<?xml version="1.0" encoding="UTF-8" ?>
<gpx version="1.1" xmlns:xsi="http://www.w3.org/2001/XMLSchema-instance" 
    xmlns="http://www.topografix.com/GPX/1/1"
    xsi:schemaLocation="http://www.topografix.com/GPX/1/1 http://www.topografix.com/GPX/1/1/gpx.xsd" 
    creator="Openrunner - https://www.openrunner.com" >	<trk>
	                   <name>TDJ 26 / 50K-22766627</name>
						<trkseg>
					<trkpt lat="49.870460" lon="4.893250">
						<ele>177</ele>
						<time>2025-12-07T11:15:16Z</time>
					</trkpt>
					<trkpt lat="49.870450" lon="4.893220">
						<ele>177</ele>
						<time>2025-12-07T11:15:17Z</time>
					</trkpt>
					<trkpt lat="49.870240" lon="4.893170">
						<ele>178</ele>
						<time>2025-12-07T11:15:28Z</time>
					</trkpt>
					<trkpt lat="49.870160" lon="4.893160">
						<ele>177</ele>
						<time>2025-12-07T11:15:32Z</time>
					</trkpt>
					<trkpt lat="49.869930" lon="4.893140">
						<ele>177</ele>
						<time>2025-12-07T11:15:43Z</time>
					</trkpt>
					<trkpt lat="49.869690" lon="4.893130">
						<ele>177</ele>
						<time>2025-12-07T11:15:55Z</time>
					</trkpt>
					<trkpt lat="49.869410" lon="4.893130">
						<ele>177</ele>
						<time>2025-12-07T11:16:09Z</time>
					</trkpt>
					<trkpt lat="49.869250" lon="4.893120">
						<ele>177</ele>
						<time>2025-12-07T11:16:17Z</time>
					</trkpt>
					<trkpt lat="49.869150" lon="4.893110">
						<ele>177</ele>
						<time>2025-12-07T11:16:22Z</time>
					</trkpt>
					<trkpt lat="49.869180" lon="4.894400">
						<ele>175</ele>
						<time>2025-12-07T11:17:04Z</time>
					</trkpt>
					<trkpt lat="49.869170" lon="4.894580">
						<ele>175</ele>
						<time>2025-12-07T11:17:10Z</time>
					</trkpt>
					<trkpt lat="49.869140" lon="4.894790">
						<ele>176</ele>
						<time>2025-12-07T11:17:17Z</time>
					</trkpt>
					<trkpt lat="49.869120" lon="4.894410">
						<ele>175</ele>
						<time>2025-12-07T11:17:29Z</time>
					</trkpt>
					<trkpt lat="49.869120" lon="4.893240">
						<ele>176</ele>
						<time>2025-12-07T11:18:07Z</time>
					</trkpt>
					<trkpt lat="49.868990" lon="4.892200">
						<ele>196</ele>
						<time>2025-12-07T11:18:41Z</time>
					</trkpt>
					<trkpt lat="49.868950" lon="4.891870">
						<ele>208</ele>
						<time>2025-12-07T11:18:52Z</time>
					</trkpt>
					<trkpt lat="49.868560" lon="4.888810">
						<ele>195</ele>
						<time>2025-12-07T11:20:32Z</time>
					</trkpt>
					<trkpt lat="49.868430" lon="4.887680">
						<ele>177</ele>
						<time>2025-12-07T11:21:09Z</time>
					</trkpt>
					<trkpt lat="49.868290" lon="4.886520">
						<ele>171</ele>
						<time>2025-12-07T11:21:47Z</time>
					</trkpt>
					<trkpt lat="49.868250" lon="4.886460">
						<ele>171</ele>
						<time>2025-12-07T11:21:50Z</time>
					</trkpt>
					<trkpt lat="49.868190" lon="4.886400">
						<ele>171</ele>
						<time>2025-12-07T11:21:54Z</time>
					</trkpt>
					<trkpt lat="49.868170" lon="4.886340">
						<ele>170</ele>
						<time>2025-12-07T11:21:56Z</time>
					</trkpt>
					<trkpt lat="49.868150" lon="4.886250">
						<ele>170</ele>
						<time>2025-12-07T11:21:59Z</time>
					</trkpt>
					<trkpt lat="49.868120" lon="4.886260">
						<ele>170</ele>
						<time>2025-12-07T11:22:01Z</time>
					</trkpt>
					<trkpt lat="49.867850" lon="4.886320">
						<ele>170</ele>
						<time>2025-12-07T11:22:14Z</time>
					</trkpt>
					<trkpt lat="49.867310" lon="4.886410">
						<ele>170</ele>
						<time>2025-12-07T11:22:41Z</time>
					</trkpt>
					<trkpt lat="49.866740" lon="4.886530">
						<ele>170</ele>
						<time>2025-12-07T11:23:10Z</time>
					</trkpt>
					<trkpt lat="49.866310" lon="4.886550">
						<ele>170</ele>
						<time>2025-12-07T11:23:32Z</time>
					</trkpt>
					<trkpt lat="49.866020" lon="4.886480">
						<ele>169</ele>
						<time>2025-12-07T11:23:46Z</time>
					</trkpt>
					<trkpt lat="49.866020" lon="4.886530">
						<ele>169</ele>
						<time>2025-12-07T11:23:48Z</time>
					</trkpt>
					<trkpt lat="49.865960" lon="4.887110">
						<ele>170</ele>
						<time>2025-12-07T11:24:07Z</time>
					</trkpt>
					<trkpt lat="49.865890" lon="4.887760">
						<ele>173</ele>
						<time>2025-12-07T11:24:28Z</time>
					</trkpt>
					<trkpt lat="49.865880" lon="4.887810">
						<ele>173</ele>
						<time>2025-12-07T11:24:30Z</time>
					</trkpt>
					<trkpt lat="49.865840" lon="4.887840">
						<ele>173</ele>
						<time>2025-12-07T11:24:32Z</time>
					</trkpt>
					<trkpt lat="49.865810" lon="4.887850">
						<ele>174</ele>
						<time>2025-12-07T11:24:34Z</time>
					</trkpt>
					<trkpt lat="49.865350" lon="4.887820">
						<ele>176</ele>
						<time>2025-12-07T11:24:57Z</time>
					</trkpt>
					<trkpt lat="49.865310" lon="4.887870">
						<ele>177</ele>
						<time>2025-12-07T11:24:59Z</time>
					</trkpt>
					<trkpt lat="49.865100" lon="4.887740">
						<ele>176</ele>
						<time>2025-12-07T11:25:11Z</time>
					</trkpt>
					<trkpt lat="49.864770" lon="4.887600">
						<ele>178</ele>
						<time>2025-12-07T11:25:28Z</time>
					</trkpt>
					<trkpt lat="49.864820" lon="4.887720">
						<ele>180</ele>
						<time>2025-12-07T11:25:32Z</time>
					</trkpt>
					<trkpt lat="49.865290" lon="4.888400">
						<ele>186</ele>
						<time>2025-12-07T11:26:05Z</time>
					</trkpt>
					<trkpt lat="49.865400" lon="4.888550">
						<ele>189</ele>
						<time>2025-12-07T11:26:12Z</time>
					</trkpt>
					<trkpt lat="49.865480" lon="4.888850">
						<ele>197</ele>
						<time>2025-12-07T11:26:22Z</time>
					</trkpt>
					<trkpt lat="49.865760" lon="4.889280">
						<ele>205</ele>
						<time>2025-12-07T11:26:42Z</time>
					</trkpt>
					<trkpt lat="49.865830" lon="4.889420">
						<ele>209</ele>
						<time>2025-12-07T11:26:48Z</time>
					</trkpt>
					<trkpt lat="49.865970" lon="4.889760">
						<ele>219</ele>
						<time>2025-12-07T11:27:01Z</time>
					</trkpt>
					<trkpt lat="49.866060" lon="4.889920">
						<ele>223</ele>
						<time>2025-12-07T11:27:08Z</time>
					</trkpt>
					<trkpt lat="49.866130" lon="4.890200">
						<ele>229</ele>
						<time>2025-12-07T11:27:17Z</time>
					</trkpt>
					<trkpt lat="49.866200" lon="4.890410">
						<ele>233</ele>
						<time>2025-12-07T11:27:25Z</time>
					</trkpt>
					<trkpt lat="49.866190" lon="4.890650">
						<ele>238</ele>
						<time>2025-12-07T11:27:33Z</time>
					</trkpt>
					<trkpt lat="49.866210" lon="4.890690">
						<ele>239</ele>
						<time>2025-12-07T11:27:34Z</time>
					</trkpt>
					<trkpt lat="49.866330" lon="4.890930">
						<ele>242</ele>
						<time>2025-12-07T11:27:44Z</time>
					</trkpt>
					<trkpt lat="49.866370" lon="4.891080">
						<ele>243</ele>
						<time>2025-12-07T11:27:49Z</time>
					</trkpt>
					<trkpt lat="49.866360" lon="4.891190">
						<ele>244</ele>
						<time>2025-12-07T11:27:53Z</time>
					</trkpt>
					<trkpt lat="49.866370" lon="4.891360">
						<ele>246</ele>
						<time>2025-12-07T11:27:58Z</time>
					</trkpt>
					<trkpt lat="49.866350" lon="4.891480">
						<ele>247</ele>
						<time>2025-12-07T11:28:02Z</time>
					</trkpt>
					<trkpt lat="49.866320" lon="4.891540">
						<ele>249</ele>
						<time>2025-12-07T11:28:05Z</time>
					</trkpt>
					<trkpt lat="49.866200" lon="4.891610">
						<ele>251</ele>
						<time>2025-12-07T11:28:11Z</time>
					</trkpt>
					<trkpt lat="49.865970" lon="4.891700">
						<ele>255</ele>
						<time>2025-12-07T11:28:23Z</time>
					</trkpt>
					<trkpt lat="49.865780" lon="4.891820">
						<ele>257</ele>
						<time>2025-12-07T11:28:33Z</time>
					</trkpt>
					<trkpt lat="49.865490" lon="4.891950">
						<ele>264</ele>
						<time>2025-12-07T11:28:49Z</time>
					</trkpt>
					<trkpt lat="49.865380" lon="4.891970">
						<ele>267</ele>
						<time>2025-12-07T11:28:54Z</time>
					</trkpt>
					<trkpt lat="49.865160" lon="4.891990">
						<ele>273</ele>
						<time>2025-12-07T11:29:05Z</time>
					</trkpt>
					<trkpt lat="49.864960" lon="4.891980">
						<ele>279</ele>
						<time>2025-12-07T11:29:15Z</time>
					</trkpt>
					<trkpt lat="49.864830" lon="4.892020">
						<ele>284</ele>
						<time>2025-12-07T11:29:22Z</time>
					</trkpt>
					<trkpt lat="49.864710" lon="4.892100">
						<ele>289</ele>
						<time>2025-12-07T11:29:28Z</time>
					</trkpt>
					<trkpt lat="49.864590" lon="4.892110">
						<ele>294</ele>
						<time>2025-12-07T11:29:34Z</time>
					</trkpt>
					<trkpt lat="49.864130" lon="4.892220">
						<ele>313</ele>
						<time>2025-12-07T11:29:58Z</time>
					</trkpt>
					<trkpt lat="49.864010" lon="4.892320">
						<ele>318</ele>
						<time>2025-12-07T11:30:04Z</time>
					</trkpt>
					<trkpt lat="49.863920" lon="4.892340">
						<ele>321</ele>
						<time>2025-12-07T11:30:09Z</time>
					</trkpt>
					<trkpt lat="49.863760" lon="4.892320">
						<ele>326</ele>
						<time>2025-12-07T11:30:17Z</time>
					</trkpt>
					<trkpt lat="49.863640" lon="4.892360">
						<ele>330</ele>
						<time>2025-12-07T11:30:23Z</time>
					</trkpt>
					<trkpt lat="49.863570" lon="4.892420">
						<ele>333</ele>
						<time>2025-12-07T11:30:27Z</time>
					</trkpt>
					<trkpt lat="49.863520" lon="4.892420">
						<ele>334</ele>
						<time>2025-12-07T11:30:30Z</time>
					</trkpt>
					<trkpt lat="49.863470" lon="4.892400">
						<ele>336</ele>
						<time>2025-12-07T11:30:32Z</time>
					</trkpt>
					<trkpt lat="49.863420" lon="4.892360">
						<ele>337</ele>
						<time>2025-12-07T11:30:35Z</time>
					</trkpt>
					<trkpt lat="49.863360" lon="4.892340">
						<ele>339</ele>
						<time>2025-12-07T11:30:38Z</time>
					</trkpt>
					<trkpt lat="49.863130" lon="4.892490">
						<ele>344</ele>
						<time>2025-12-07T11:30:51Z</time>
					</trkpt>
					<trkpt lat="49.863160" lon="4.892580">
						<ele>344</ele>
						<time>2025-12-07T11:30:54Z</time>
					</trkpt>
					<trkpt lat="49.863150" lon="4.892730">
						<ele>344</ele>
						<time>2025-12-07T11:30:59Z</time>
					</trkpt>
					<trkpt lat="49.863120" lon="4.892820">
						<ele>345</ele>
						<time>2025-12-07T11:31:02Z</time>
					</trkpt>
					<trkpt lat="49.863090" lon="4.892920">
						<ele>345</ele>
						<time>2025-12-07T11:31:06Z</time>
					</trkpt>
					<trkpt lat="49.863050" lon="4.893000">
						<ele>346</ele>
						<time>2025-12-07T11:31:09Z</time>
					</trkpt>
					<trkpt lat="49.862990" lon="4.893020">
						<ele>347</ele>
						<time>2025-12-07T11:31:12Z</time>
					</trkpt>
					<trkpt lat="49.862910" lon="4.893060">
						<ele>348</ele>
						<time>2025-12-07T11:31:16Z</time>
					</trkpt>
					<trkpt lat="49.862840" lon="4.893040">
						<ele>350</ele>
						<time>2025-12-07T11:31:20Z</time>
					</trkpt>
					<trkpt lat="49.862840" lon="4.893580">
						<ele>348</ele>
						<time>2025-12-07T11:31:37Z</time>
					</trkpt>
					<trkpt lat="49.862830" lon="4.893770">
						<ele>347</ele>
						<time>2025-12-07T11:31:43Z</time>
					</trkpt>
					<trkpt lat="49.862770" lon="4.893890">
						<ele>347</ele>
						<time>2025-12-07T11:31:48Z</time>
					</trkpt>
					<trkpt lat="49.862720" lon="4.894100">
						<ele>347</ele>
						<time>2025-12-07T11:31:55Z</time>
					</trkpt>
					<trkpt lat="49.862690" lon="4.894500">
						<ele>342</ele>
						<time>2025-12-07T11:32:08Z</time>
					</trkpt>
					<trkpt lat="49.862700" lon="4.894640">
						<ele>340</ele>
						<time>2025-12-07T11:32:13Z</time>
					</trkpt>
					<trkpt lat="49.862770" lon="4.895090">
						<ele>333</ele>
						<time>2025-12-07T11:32:28Z</time>
					</trkpt>
					<trkpt lat="49.863010" lon="4.895830">
						<ele>316</ele>
						<time>2025-12-07T11:32:55Z</time>
					</trkpt>
					<trkpt lat="49.863020" lon="4.896050">
						<ele>312</ele>
						<time>2025-12-07T11:33:02Z</time>
					</trkpt>
					<trkpt lat="49.863060" lon="4.896270">
						<ele>307</ele>
						<time>2025-12-07T11:33:09Z</time>
					</trkpt>
					<trkpt lat="49.863120" lon="4.896450">
						<ele>302</ele>
						<time>2025-12-07T11:33:16Z</time>
					</trkpt>
					<trkpt lat="49.863200" lon="4.896770">
						<ele>293</ele>
						<time>2025-12-07T11:33:27Z</time>
					</trkpt>
					<trkpt lat="49.863280" lon="4.896890">
						<ele>288</ele>
						<time>2025-12-07T11:33:32Z</time>
					</trkpt>
					<trkpt lat="49.863290" lon="4.896970">
						<ele>286</ele>
						<time>2025-12-07T11:33:35Z</time>
					</trkpt>
					<trkpt lat="49.863330" lon="4.897090">
						<ele>282</ele>
						<time>2025-12-07T11:33:39Z</time>
					</trkpt>
					<trkpt lat="49.863310" lon="4.897290">
						<ele>278</ele>
						<time>2025-12-07T11:33:46Z</time>
					</trkpt>
					<trkpt lat="49.863310" lon="4.897410">
						<ele>276</ele>
						<time>2025-12-07T11:33:50Z</time>
					</trkpt>
					<trkpt lat="49.863330" lon="4.897480">
						<ele>274</ele>
						<time>2025-12-07T11:33:52Z</time>
					</trkpt>
					<trkpt lat="49.863430" lon="4.897740">
						<ele>261</ele>
						<time>2025-12-07T11:34:02Z</time>
					</trkpt>
					<trkpt lat="49.863440" lon="4.897810">
						<ele>258</ele>
						<time>2025-12-07T11:34:04Z</time>
					</trkpt>
					<trkpt lat="49.863440" lon="4.897890">
						<ele>257</ele>
						<time>2025-12-07T11:34:07Z</time>
					</trkpt>
					<trkpt lat="49.863470" lon="4.897990">
						<ele>252</ele>
						<time>2025-12-07T11:34:10Z</time>
					</trkpt>
					<trkpt lat="49.863460" lon="4.898070">
						<ele>251</ele>
						<time>2025-12-07T11:34:13Z</time>
					</trkpt>
					<trkpt lat="49.863440" lon="4.898100">
						<ele>252</ele>
						<time>2025-12-07T11:34:14Z</time>
					</trkpt>
					<trkpt lat="49.863400" lon="4.898090">
						<ele>254</ele>
						<time>2025-12-07T11:34:16Z</time>
					</trkpt>
					<trkpt lat="49.863360" lon="4.898110">
						<ele>256</ele>
						<time>2025-12-07T11:34:18Z</time>
					</trkpt>
					<trkpt lat="49.863360" lon="4.898160">
						<ele>255</ele>
						<time>2025-12-07T11:34:20Z</time>
					</trkpt>
					<trkpt lat="49.863370" lon="4.898230">
						<ele>252</ele>
						<time>2025-12-07T11:34:22Z</time>
					</trkpt>
					<trkpt lat="49.863430" lon="4.898320">
						<ele>247</ele>
						<time>2025-12-07T11:34:27Z</time>
					</trkpt>
					<trkpt lat="49.863530" lon="4.898400">
						<ele>239</ele>
						<time>2025-12-07T11:34:32Z</time>
					</trkpt>
					<trkpt lat="49.863540" lon="4.898430">
						<ele>238</ele>
						<time>2025-12-07T11:34:33Z</time>
					</trkpt>
					<trkpt lat="49.863520" lon="4.898490">
						<ele>238</ele>
						<time>2025-12-07T11:34:35Z</time>
					</trkpt>
					<trkpt lat="49.863560" lon="4.898610">
						<ele>233</ele>
						<time>2025-12-07T11:34:40Z</time>
					</trkpt>
					<trkpt lat="49.863570" lon="4.898700">
						<ele>231</ele>
						<time>2025-12-07T11:34:43Z</time>
					</trkpt>
					<trkpt lat="49.863640" lon="4.898910">
						<ele>223</ele>
						<time>2025-12-07T11:34:50Z</time>
					</trkpt>
					<trkpt lat="49.863690" lon="4.899160">
						<ele>216</ele>
						<time>2025-12-07T11:34:59Z</time>
					</trkpt>
					<trkpt lat="49.863670" lon="4.899250">
						<ele>215</ele>
						<time>2025-12-07T11:35:02Z</time>
					</trkpt>
					<trkpt lat="49.863670" lon="4.899380">
						<ele>212</ele>
						<time>2025-12-07T11:35:06Z</time>
					</trkpt>
					<trkpt lat="49.863640" lon="4.899400">
						<ele>213</ele>
						<time>2025-12-07T11:35:08Z</time>
					</trkpt>
					<trkpt lat="49.863610" lon="4.899400">
						<ele>214</ele>
						<time>2025-12-07T11:35:09Z</time>
					</trkpt>
					<trkpt lat="49.863560" lon="4.899360">
						<ele>216</ele>
						<time>2025-12-07T11:35:12Z</time>
					</trkpt>
					<trkpt lat="49.863500" lon="4.899300">
						<ele>220</ele>
						<time>2025-12-07T11:35:16Z</time>
					</trkpt>
					<trkpt lat="49.863450" lon="4.899300">
						<ele>222</ele>
						<time>2025-12-07T11:35:18Z</time>
					</trkpt>
					<trkpt lat="49.863370" lon="4.899290">
						<ele>225</ele>
						<time>2025-12-07T11:35:22Z</time>
					</trkpt>
					<trkpt lat="49.863280" lon="4.899380">
						<ele>225</ele>
						<time>2025-12-07T11:35:27Z</time>
					</trkpt>
					<trkpt lat="49.863210" lon="4.899490">
						<ele>223</ele>
						<time>2025-12-07T11:35:32Z</time>
					</trkpt>
					<trkpt lat="49.863110" lon="4.899610">
						<ele>222</ele>
						<time>2025-12-07T11:35:39Z</time>
					</trkpt>
					<trkpt lat="49.862970" lon="4.899690">
						<ele>223</ele>
						<time>2025-12-07T11:35:46Z</time>
					</trkpt>
					<trkpt lat="49.862770" lon="4.899780">
						<ele>225</ele>
						<time>2025-12-07T11:35:57Z</time>
					</trkpt>
					<trkpt lat="49.862570" lon="4.899900">
						<ele>226</ele>
						<time>2025-12-07T11:36:07Z</time>
					</trkpt>
					<trkpt lat="49.862240" lon="4.900060">
						<ele>227</ele>
						<time>2025-12-07T11:36:25Z</time>
					</trkpt>
					<trkpt lat="49.862050" lon="4.900230">
						<ele>224</ele>
						<time>2025-12-07T11:36:36Z</time>
					</trkpt>
					<trkpt lat="49.861820" lon="4.900350">
						<ele>224</ele>
						<time>2025-12-07T11:36:48Z</time>
					</trkpt>
					<trkpt lat="49.861680" lon="4.900400">
						<ele>224</ele>
						<time>2025-12-07T11:36:55Z</time>
					</trkpt>
					<trkpt lat="49.861500" lon="4.900510">
						<ele>225</ele>
						<time>2025-12-07T11:37:05Z</time>
					</trkpt>
					<trkpt lat="49.861430" lon="4.900590">
						<ele>225</ele>
						<time>2025-12-07T11:37:09Z</time>
					</trkpt>
					<trkpt lat="49.861390" lon="4.900640">
						<ele>224</ele>
						<time>2025-12-07T11:37:12Z</time>
					</trkpt>
					<trkpt lat="49.860960" lon="4.900620">
						<ele>235</ele>
						<time>2025-12-07T11:37:33Z</time>
					</trkpt>
					<trkpt lat="49.860450" lon="4.900810">
						<ele>239</ele>
						<time>2025-12-07T11:37:59Z</time>
					</trkpt>
					<trkpt lat="49.860090" lon="4.900910">
						<ele>243</ele>
						<time>2025-12-07T11:38:18Z</time>
					</trkpt>
					<trkpt lat="49.860040" lon="4.900950">
						<ele>244</ele>
						<time>2025-12-07T11:38:21Z</time>
					</trkpt>
					<trkpt lat="49.859830" lon="4.901020">
						<ele>246</ele>
						<time>2025-12-07T11:38:31Z</time>
					</trkpt>
					<trkpt lat="49.859550" lon="4.901160">
						<ele>247</ele>
						<time>2025-12-07T11:38:46Z</time>
					</trkpt>
					<trkpt lat="49.859360" lon="4.901230">
						<ele>247</ele>
						<time>2025-12-07T11:38:56Z</time>
					</trkpt>
					<trkpt lat="49.859180" lon="4.901200">
						<ele>250</ele>
						<time>2025-12-07T11:39:05Z</time>
					</trkpt>
					<trkpt lat="49.859000" lon="4.901150">
						<ele>254</ele>
						<time>2025-12-07T11:39:14Z</time>
					</trkpt>
					<trkpt lat="49.858790" lon="4.901040">
						<ele>260</ele>
						<time>2025-12-07T11:39:25Z</time>
					</trkpt>
					<trkpt lat="49.858670" lon="4.900890">
						<ele>264</ele>
						<time>2025-12-07T11:39:33Z</time>
					</trkpt>
					<trkpt lat="49.858610" lon="4.900750">
						<ele>268</ele>
						<time>2025-12-07T11:39:38Z</time>
					</trkpt>
					<trkpt lat="49.858530" lon="4.900610">
						<ele>271</ele>
						<time>2025-12-07T11:39:44Z</time>
					</trkpt>
					<trkpt lat="49.858420" lon="4.900480">
						<ele>274</ele>
						<time>2025-12-07T11:39:51Z</time>
					</trkpt>
					<trkpt lat="49.858190" lon="4.900270">
						<ele>282</ele>
						<time>2025-12-07T11:40:04Z</time>
					</trkpt>
					<trkpt lat="49.858070" lon="4.900240">
						<ele>286</ele>
						<time>2025-12-07T11:40:11Z</time>
					</trkpt>
					<trkpt lat="49.858040" lon="4.900220">
						<ele>287</ele>
						<time>2025-12-07T11:40:12Z</time>
					</trkpt>
					<trkpt lat="49.857930" lon="4.900140">
						<ele>291</ele>
						<time>2025-12-07T11:40:18Z</time>
					</trkpt>
					<trkpt lat="49.857560" lon="4.899780">
						<ele>305</ele>
						<time>2025-12-07T11:40:40Z</time>
					</trkpt>
					<trkpt lat="49.857530" lon="4.899640">
						<ele>308</ele>
						<time>2025-12-07T11:40:45Z</time>
					</trkpt>
					<trkpt lat="49.857520" lon="4.899610">
						<ele>308</ele>
						<time>2025-12-07T11:40:46Z</time>
					</trkpt>
					<trkpt lat="49.857390" lon="4.899540">
						<ele>312</ele>
						<time>2025-12-07T11:40:53Z</time>
					</trkpt>
					<trkpt lat="49.857450" lon="4.900040">
						<ele>304</ele>
						<time>2025-12-07T11:41:09Z</time>
					</trkpt>
					<trkpt lat="49.857540" lon="4.900330">
						<ele>298</ele>
						<time>2025-12-07T11:41:20Z</time>
					</trkpt>
					<trkpt lat="49.857580" lon="4.900500">
						<ele>295</ele>
						<time>2025-12-07T11:41:26Z</time>
					</trkpt>
					<trkpt lat="49.857630" lon="4.900600">
						<ele>292</ele>
						<time>2025-12-07T11:41:30Z</time>
					</trkpt>
					<trkpt lat="49.857720" lon="4.900860">
						<ele>286</ele>
						<time>2025-12-07T11:41:39Z</time>
					</trkpt>
					<trkpt lat="49.857750" lon="4.900970">
						<ele>284</ele>
						<time>2025-12-07T11:41:43Z</time>
					</trkpt>
					<trkpt lat="49.857730" lon="4.901090">
						<ele>282</ele>
						<time>2025-12-07T11:41:47Z</time>
					</trkpt>
					<trkpt lat="49.857690" lon="4.901160">
						<ele>282</ele>
						<time>2025-12-07T11:41:50Z</time>
					</trkpt>
					<trkpt lat="49.857650" lon="4.901190">
						<ele>283</ele>
						<time>2025-12-07T11:41:52Z</time>
					</trkpt>
					<trkpt lat="49.857390" lon="4.901270">
						<ele>287</ele>
						<time>2025-12-07T11:42:05Z</time>
					</trkpt>
					<trkpt lat="49.857130" lon="4.901260">
						<ele>291</ele>
						<time>2025-12-07T11:42:18Z</time>
					</trkpt>
					<trkpt lat="49.857070" lon="4.901300">
						<ele>291</ele>
						<time>2025-12-07T11:42:22Z</time>
					</trkpt>
					<trkpt lat="49.856940" lon="4.901430">
						<ele>291</ele>
						<time>2025-12-07T11:42:30Z</time>
					</trkpt>
					<trkpt lat="49.856800" lon="4.901530">
						<ele>290</ele>
						<time>2025-12-07T11:42:37Z</time>
					</trkpt>
					<trkpt lat="49.856660" lon="4.901720">
						<ele>289</ele>
						<time>2025-12-07T11:42:47Z</time>
					</trkpt>
					<trkpt lat="49.856640" lon="4.901870">
						<ele>289</ele>
						<time>2025-12-07T11:42:51Z</time>
					</trkpt>
					<trkpt lat="49.856660" lon="4.901970">
						<ele>289</ele>
						<time>2025-12-07T11:42:55Z</time>
					</trkpt>
					<trkpt lat="49.856760" lon="4.902250">
						<ele>286</ele>
						<time>2025-12-07T11:43:05Z</time>
					</trkpt>
					<trkpt lat="49.857010" lon="4.902460">
						<ele>278</ele>
						<time>2025-12-07T11:43:19Z</time>
					</trkpt>
					<trkpt lat="49.857130" lon="4.902570">
						<ele>274</ele>
						<time>2025-12-07T11:43:26Z</time>
					</trkpt>
					<trkpt lat="49.857250" lon="4.902680">
						<ele>271</ele>
						<time>2025-12-07T11:43:33Z</time>
					</trkpt>
					<trkpt lat="49.857440" lon="4.902700">
						<ele>265</ele>
						<time>2025-12-07T11:43:43Z</time>
					</trkpt>
					<trkpt lat="49.857680" lon="4.902790">
						<ele>260</ele>
						<time>2025-12-07T11:43:55Z</time>
					</trkpt>
					<trkpt lat="49.858140" lon="4.903060">
						<ele>251</ele>
						<time>2025-12-07T11:44:20Z</time>
					</trkpt>
					<trkpt lat="49.858370" lon="4.903080">
						<ele>247</ele>
						<time>2025-12-07T11:44:31Z</time>
					</trkpt>
					<trkpt lat="49.858430" lon="4.903040">
						<ele>245</ele>
						<time>2025-12-07T11:44:35Z</time>
					</trkpt>
					<trkpt lat="49.858450" lon="4.903020">
						<ele>245</ele>
						<time>2025-12-07T11:44:36Z</time>
					</trkpt>
					<trkpt lat="49.858620" lon="4.903000">
						<ele>242</ele>
						<time>2025-12-07T11:44:44Z</time>
					</trkpt>
					<trkpt lat="49.858830" lon="4.902880">
						<ele>237</ele>
						<time>2025-12-07T11:44:56Z</time>
					</trkpt>
					<trkpt lat="49.858890" lon="4.902920">
						<ele>236</ele>
						<time>2025-12-07T11:44:59Z</time>
					</trkpt>
					<trkpt lat="49.858660" lon="4.903180">
						<ele>241</ele>
						<time>2025-12-07T11:45:13Z</time>
					</trkpt>
					<trkpt lat="49.858510" lon="4.903240">
						<ele>244</ele>
						<time>2025-12-07T11:45:21Z</time>
					</trkpt>
					<trkpt lat="49.858230" lon="4.903410">
						<ele>249</ele>
						<time>2025-12-07T11:45:36Z</time>
					</trkpt>
					<trkpt lat="49.858110" lon="4.903400">
						<ele>252</ele>
						<time>2025-12-07T11:45:42Z</time>
					</trkpt>
					<trkpt lat="49.858000" lon="4.903350">
						<ele>253</ele>
						<time>2025-12-07T11:45:48Z</time>
					</trkpt>
					<trkpt lat="49.857740" lon="4.903210">
						<ele>258</ele>
						<time>2025-12-07T11:46:01Z</time>
					</trkpt>
					<trkpt lat="49.857490" lon="4.903230">
						<ele>263</ele>
						<time>2025-12-07T11:46:14Z</time>
					</trkpt>
					<trkpt lat="49.857350" lon="4.903410">
						<ele>269</ele>
						<time>2025-12-07T11:46:23Z</time>
					</trkpt>
					<trkpt lat="49.857350" lon="4.903900">
						<ele>273</ele>
						<time>2025-12-07T11:46:39Z</time>
					</trkpt>
					<trkpt lat="49.857350" lon="4.904050">
						<ele>274</ele>
						<time>2025-12-07T11:46:44Z</time>
					</trkpt>
					<trkpt lat="49.857290" lon="4.904240">
						<ele>275</ele>
						<time>2025-12-07T11:46:50Z</time>
					</trkpt>
					<trkpt lat="49.857180" lon="4.904360">
						<ele>277</ele>
						<time>2025-12-07T11:46:57Z</time>
					</trkpt>
					<trkpt lat="49.857100" lon="4.904370">
						<ele>278</ele>
						<time>2025-12-07T11:47:01Z</time>
					</trkpt>
					<trkpt lat="49.857000" lon="4.904310">
						<ele>282</ele>
						<time>2025-12-07T11:47:07Z</time>
					</trkpt>
					<trkpt lat="49.856850" lon="4.904030">
						<ele>287</ele>
						<time>2025-12-07T11:47:18Z</time>
					</trkpt>
					<trkpt lat="49.856490" lon="4.903410">
						<ele>300</ele>
						<time>2025-12-07T11:47:45Z</time>
					</trkpt>
					<trkpt lat="49.856360" lon="4.903350">
						<ele>304</ele>
						<time>2025-12-07T11:47:52Z</time>
					</trkpt>
					<trkpt lat="49.856220" lon="4.903390">
						<ele>308</ele>
						<time>2025-12-07T11:47:59Z</time>
					</trkpt>
					<trkpt lat="49.856060" lon="4.903470">
						<ele>312</ele>
						<time>2025-12-07T11:48:08Z</time>
					</trkpt>
					<trkpt lat="49.855880" lon="4.903620">
						<ele>316</ele>
						<time>2025-12-07T11:48:18Z</time>
					</trkpt>
					<trkpt lat="49.855740" lon="4.903800">
						<ele>318</ele>
						<time>2025-12-07T11:48:27Z</time>
					</trkpt>
					<trkpt lat="49.855660" lon="4.903850">
						<ele>320</ele>
						<time>2025-12-07T11:48:31Z</time>
					</trkpt>
					<trkpt lat="49.855560" lon="4.903840">
						<ele>323</ele>
						<time>2025-12-07T11:48:36Z</time>
					</trkpt>
					<trkpt lat="49.855490" lon="4.903800">
						<ele>326</ele>
						<time>2025-12-07T11:48:40Z</time>
					</trkpt>
					<trkpt lat="49.855390" lon="4.903710">
						<ele>329</ele>
						<time>2025-12-07T11:48:46Z</time>
					</trkpt>
					<trkpt lat="49.855140" lon="4.903590">
						<ele>338</ele>
						<time>2025-12-07T11:48:59Z</time>
					</trkpt>
					<trkpt lat="49.854890" lon="4.903440">
						<ele>346</ele>
						<time>2025-12-07T11:49:12Z</time>
					</trkpt>
					<trkpt lat="49.854780" lon="4.903430">
						<ele>349</ele>
						<time>2025-12-07T11:49:18Z</time>
					</trkpt>
					<trkpt lat="49.854690" lon="4.903450">
						<ele>351</ele>
						<time>2025-12-07T11:49:22Z</time>
					</trkpt>
					<trkpt lat="49.854510" lon="4.903590">
						<ele>355</ele>
						<time>2025-12-07T11:49:32Z</time>
					</trkpt>
					<trkpt lat="49.854150" lon="4.903980">
						<ele>364</ele>
						<time>2025-12-07T11:49:54Z</time>
					</trkpt>
					<trkpt lat="49.853870" lon="4.904420">
						<ele>366</ele>
						<time>2025-12-07T11:50:14Z</time>
					</trkpt>
					<trkpt lat="49.853740" lon="4.904650">
						<ele>366</ele>
						<time>2025-12-07T11:50:24Z</time>
					</trkpt>
					<trkpt lat="49.853660" lon="4.904800">
						<ele>367</ele>
						<time>2025-12-07T11:50:30Z</time>
					</trkpt>
					<trkpt lat="49.853550" lon="4.904970">
						<ele>368</ele>
						<time>2025-12-07T11:50:38Z</time>
					</trkpt>
					<trkpt lat="49.853390" lon="4.905130">
						<ele>370</ele>
						<time>2025-12-07T11:50:48Z</time>
					</trkpt>
					<trkpt lat="49.853400" lon="4.905360">
						<ele>368</ele>
						<time>2025-12-07T11:50:55Z</time>
					</trkpt>
					<trkpt lat="49.853600" lon="4.905880">
						<ele>356</ele>
						<time>2025-12-07T11:51:15Z</time>
					</trkpt>
					<trkpt lat="49.853850" lon="4.906280">
						<ele>347</ele>
						<time>2025-12-07T11:51:33Z</time>
					</trkpt>
					<trkpt lat="49.854120" lon="4.906590">
						<ele>339</ele>
						<time>2025-12-07T11:51:50Z</time>
					</trkpt>
					<trkpt lat="49.854500" lon="4.906950">
						<ele>335</ele>
						<time>2025-12-07T11:52:12Z</time>
					</trkpt>
					<trkpt lat="49.854850" lon="4.907450">
						<ele>335</ele>
						<time>2025-12-07T11:52:36Z</time>
					</trkpt>
					<trkpt lat="49.855070" lon="4.907360">
						<ele>328</ele>
						<time>2025-12-07T11:52:47Z</time>
					</trkpt>
					<trkpt lat="49.855560" lon="4.906920">
						<ele>304</ele>
						<time>2025-12-07T11:53:15Z</time>
					</trkpt>
					<trkpt lat="49.855590" lon="4.906910">
						<ele>303</ele>
						<time>2025-12-07T11:53:17Z</time>
					</trkpt>
					<trkpt lat="49.855790" lon="4.906870">
						<ele>295</ele>
						<time>2025-12-07T11:53:27Z</time>
					</trkpt>
					<trkpt lat="49.855960" lon="4.906890">
						<ele>290</ele>
						<time>2025-12-07T11:53:36Z</time>
					</trkpt>
					<trkpt lat="49.856070" lon="4.906760">
						<ele>285</ele>
						<time>2025-12-07T11:53:42Z</time>
					</trkpt>
					<trkpt lat="49.856260" lon="4.906500">
						<ele>278</ele>
						<time>2025-12-07T11:53:55Z</time>
					</trkpt>
					<trkpt lat="49.856350" lon="4.906270">
						<ele>274</ele>
						<time>2025-12-07T11:54:04Z</time>
					</trkpt>
					<trkpt lat="49.856670" lon="4.906350">
						<ele>266</ele>
						<time>2025-12-07T11:54:20Z</time>
					</trkpt>
					<trkpt lat="49.856980" lon="4.906440">
						<ele>255</ele>
						<time>2025-12-07T11:54:36Z</time>
					</trkpt>
					<trkpt lat="49.857230" lon="4.906640">
						<ele>244</ele>
						<time>2025-12-07T11:54:50Z</time>
					</trkpt>
					<trkpt lat="49.857500" lon="4.906830">
						<ele>234</ele>
						<time>2025-12-07T11:55:05Z</time>
					</trkpt>
					<trkpt lat="49.858160" lon="4.908070">
						<ele>219</ele>
						<time>2025-12-07T11:55:57Z</time>
					</trkpt>
					<trkpt lat="49.858370" lon="4.908160">
						<ele>215</ele>
						<time>2025-12-07T11:56:07Z</time>
					</trkpt>
					<trkpt lat="49.858510" lon="4.908230">
						<ele>215</ele>
						<time>2025-12-07T11:56:15Z</time>
					</trkpt>
					<trkpt lat="49.858570" lon="4.908310">
						<ele>215</ele>
						<time>2025-12-07T11:56:19Z</time>
					</trkpt>
					<trkpt lat="49.858600" lon="4.908340">
						<ele>215</ele>
						<time>2025-12-07T11:56:21Z</time>
					</trkpt>
					<trkpt lat="49.858600" lon="4.908340">
						<ele>215</ele>
						<time>2025-12-07T11:56:21Z</time>
					</trkpt>
					<trkpt lat="49.858620" lon="4.908370">
						<ele>215</ele>
						<time>2025-12-07T11:56:22Z</time>
					</trkpt>
					<trkpt lat="49.858760" lon="4.908550">
						<ele>217</ele>
						<time>2025-12-07T11:56:31Z</time>
					</trkpt>
					<trkpt lat="49.858990" lon="4.909010">
						<ele>226</ele>
						<time>2025-12-07T11:56:50Z</time>
					</trkpt>
					<trkpt lat="49.859200" lon="4.909500">
						<ele>240</ele>
						<time>2025-12-07T11:57:09Z</time>
					</trkpt>
					<trkpt lat="49.859450" lon="4.909950">
						<ele>259</ele>
						<time>2025-12-07T11:57:28Z</time>
					</trkpt>
					<trkpt lat="49.859510" lon="4.909950">
						<ele>261</ele>
						<time>2025-12-07T11:57:31Z</time>
					</trkpt>
					<trkpt lat="49.859560" lon="4.909960">
						<ele>263</ele>
						<time>2025-12-07T11:57:34Z</time>
					</trkpt>
					<trkpt lat="49.859600" lon="4.909780">
						<ele>261</ele>
						<time>2025-12-07T11:57:40Z</time>
					</trkpt>
					<trkpt lat="49.859660" lon="4.909600">
						<ele>259</ele>
						<time>2025-12-07T11:57:46Z</time>
					</trkpt>
					<trkpt lat="49.859790" lon="4.909350">
						<ele>258</ele>
						<time>2025-12-07T11:57:57Z</time>
					</trkpt>
					<trkpt lat="49.859890" lon="4.909110">
						<ele>257</ele>
						<time>2025-12-07T11:58:06Z</time>
					</trkpt>
					<trkpt lat="49.860070" lon="4.908410">
						<ele>251</ele>
						<time>2025-12-07T11:58:30Z</time>
					</trkpt>
					<trkpt lat="49.860290" lon="4.907770">
						<ele>247</ele>
						<time>2025-12-07T11:58:54Z</time>
					</trkpt>
					<trkpt lat="49.860370" lon="4.907520">
						<ele>246</ele>
						<time>2025-12-07T11:59:03Z</time>
					</trkpt>
					<trkpt lat="49.860410" lon="4.907390">
						<ele>245</ele>
						<time>2025-12-07T11:59:07Z</time>
					</trkpt>
					<trkpt lat="49.860490" lon="4.906760">
						<ele>238</ele>
						<time>2025-12-07T11:59:28Z</time>
					</trkpt>
					<trkpt lat="49.860510" lon="4.906260">
						<ele>231</ele>
						<time>2025-12-07T11:59:44Z</time>
					</trkpt>
					<trkpt lat="49.860550" lon="4.906220">
						<ele>232</ele>
						<time>2025-12-07T11:59:46Z</time>
					</trkpt>
					<trkpt lat="49.860590" lon="4.906140">
						<ele>232</ele>
						<time>2025-12-07T11:59:50Z</time>
					</trkpt>
					<trkpt lat="49.860620" lon="4.906030">
						<ele>231</ele>
						<time>2025-12-07T11:59:54Z</time>
					</trkpt>
					<trkpt lat="49.860680" lon="4.905910">
						<ele>231</ele>
						<time>2025-12-07T11:59:58Z</time>
					</trkpt>
					<trkpt lat="49.860760" lon="4.905790">
						<ele>232</ele>
						<time>2025-12-07T12:00:04Z</time>
					</trkpt>
					<trkpt lat="49.860850" lon="4.905650">
						<ele>232</ele>
						<time>2025-12-07T12:00:10Z</time>
					</trkpt>
					<trkpt lat="49.861300" lon="4.905110">
						<ele>239</ele>
						<time>2025-12-07T12:00:39Z</time>
					</trkpt>
					<trkpt lat="49.861500" lon="4.904930">
						<ele>242</ele>
						<time>2025-12-07T12:00:50Z</time>
					</trkpt>
					<trkpt lat="49.862170" lon="4.904030">
						<ele>238</ele>
						<time>2025-12-07T12:01:35Z</time>
					</trkpt>
					<trkpt lat="49.862240" lon="4.903850">
						<ele>235</ele>
						<time>2025-12-07T12:01:42Z</time>
					</trkpt>
					<trkpt lat="49.862270" lon="4.903680">
						<ele>230</ele>
						<time>2025-12-07T12:01:47Z</time>
					</trkpt>
					<trkpt lat="49.862400" lon="4.903540">
						<ele>230</ele>
						<time>2025-12-07T12:01:55Z</time>
					</trkpt>
					<trkpt lat="49.862460" lon="4.903480">
						<ele>230</ele>
						<time>2025-12-07T12:01:59Z</time>
					</trkpt>
					<trkpt lat="49.862510" lon="4.903460">
						<ele>231</ele>
						<time>2025-12-07T12:02:01Z</time>
					</trkpt>
					<trkpt lat="49.862810" lon="4.903530">
						<ele>230</ele>
						<time>2025-12-07T12:02:17Z</time>
					</trkpt>
					<trkpt lat="49.862750" lon="4.903580">
						<ele>232</ele>
						<time>2025-12-07T12:02:20Z</time>
					</trkpt>
					<trkpt lat="49.862730" lon="4.903620">
						<ele>234</ele>
						<time>2025-12-07T12:02:22Z</time>
					</trkpt>
					<trkpt lat="49.862620" lon="4.903710">
						<ele>237</ele>
						<time>2025-12-07T12:02:28Z</time>
					</trkpt>
					<trkpt lat="49.862520" lon="4.903840">
						<ele>243</ele>
						<time>2025-12-07T12:02:34Z</time>
					</trkpt>
					<trkpt lat="49.862460" lon="4.903960">
						<ele>245</ele>
						<time>2025-12-07T12:02:39Z</time>
					</trkpt>
					<trkpt lat="49.862440" lon="4.904020">
						<ele>246</ele>
						<time>2025-12-07T12:02:41Z</time>
					</trkpt>
					<trkpt lat="49.862440" lon="4.904080">
						<ele>248</ele>
						<time>2025-12-07T12:02:43Z</time>
					</trkpt>
					<trkpt lat="49.862450" lon="4.904150">
						<ele>251</ele>
						<time>2025-12-07T12:02:46Z</time>
					</trkpt>
					<trkpt lat="49.862460" lon="4.904170">
						<ele>252</ele>
						<time>2025-12-07T12:02:46Z</time>
					</trkpt>
					<trkpt lat="49.862490" lon="4.904150">
						<ele>252</ele>
						<time>2025-12-07T12:02:48Z</time>
					</trkpt>
					<trkpt lat="49.862540" lon="4.904080">
						<ele>250</ele>
						<time>2025-12-07T12:02:51Z</time>
					</trkpt>
					<trkpt lat="49.862590" lon="4.904060">
						<ele>248</ele>
						<time>2025-12-07T12:02:54Z</time>
					</trkpt>
					<trkpt lat="49.862600" lon="4.904070">
						<ele>248</ele>
						<time>2025-12-07T12:02:55Z</time>
					</trkpt>
					<trkpt lat="49.862610" lon="4.904110">
						<ele>249</ele>
						<time>2025-12-07T12:02:56Z</time>
					</trkpt>
					<trkpt lat="49.862600" lon="4.904140">
						<ele>250</ele>
						<time>2025-12-07T12:02:57Z</time>
					</trkpt>
					<trkpt lat="49.862590" lon="4.904220">
						<ele>253</ele>
						<time>2025-12-07T12:03:00Z</time>
					</trkpt>
					<trkpt lat="49.862590" lon="4.904310">
						<ele>255</ele>
						<time>2025-12-07T12:03:03Z</time>
					</trkpt>
					<trkpt lat="49.862590" lon="4.904410">
						<ele>258</ele>
						<time>2025-12-07T12:03:06Z</time>
					</trkpt>
					<trkpt lat="49.862600" lon="4.904430">
						<ele>258</ele>
						<time>2025-12-07T12:03:07Z</time>
					</trkpt>
					<trkpt lat="49.862680" lon="4.904360">
						<ele>255</ele>
						<time>2025-12-07T12:03:11Z</time>
					</trkpt>
					<trkpt lat="49.862740" lon="4.904340">
						<ele>253</ele>
						<time>2025-12-07T12:03:14Z</time>
					</trkpt>
					<trkpt lat="49.862760" lon="4.904360">
						<ele>253</ele>
						<time>2025-12-07T12:03:16Z</time>
					</trkpt>
					<trkpt lat="49.862790" lon="4.904370">
						<ele>253</ele>
						<time>2025-12-07T12:03:17Z</time>
					</trkpt>
					<trkpt lat="49.862870" lon="4.904490">
						<ele>254</ele>
						<time>2025-12-07T12:03:23Z</time>
					</trkpt>
					<trkpt lat="49.862900" lon="4.904560">
						<ele>256</ele>
						<time>2025-12-07T12:03:25Z</time>
					</trkpt>
					<trkpt lat="49.862910" lon="4.904590">
						<ele>256</ele>
						<time>2025-12-07T12:03:26Z</time>
					</trkpt>
					<trkpt lat="49.862950" lon="4.904640">
						<ele>256</ele>
						<time>2025-12-07T12:03:29Z</time>
					</trkpt>
					<trkpt lat="49.863020" lon="4.904630">
						<ele>255</ele>
						<time>2025-12-07T12:03:33Z</time>
					</trkpt>
					<trkpt lat="49.863040" lon="4.904600">
						<ele>254</ele>
						<time>2025-12-07T12:03:34Z</time>
					</trkpt>
					<trkpt lat="49.863090" lon="4.904650">
						<ele>254</ele>
						<time>2025-12-07T12:03:37Z</time>
					</trkpt>
					<trkpt lat="49.862990" lon="4.904780">
						<ele>259</ele>
						<time>2025-12-07T12:03:43Z</time>
					</trkpt>
					<trkpt lat="49.862860" lon="4.904940">
						<ele>266</ele>
						<time>2025-12-07T12:03:52Z</time>
					</trkpt>
					<trkpt lat="49.862790" lon="4.905030">
						<ele>270</ele>
						<time>2025-12-07T12:03:56Z</time>
					</trkpt>
					<trkpt lat="49.862700" lon="4.905230">
						<ele>276</ele>
						<time>2025-12-07T12:04:04Z</time>
					</trkpt>
					<trkpt lat="49.862640" lon="4.905400">
						<ele>282</ele>
						<time>2025-12-07T12:04:10Z</time>
					</trkpt>
					<trkpt lat="49.862570" lon="4.905530">
						<ele>287</ele>
						<time>2025-12-07T12:04:16Z</time>
					</trkpt>
					<trkpt lat="49.862550" lon="4.905610">
						<ele>289</ele>
						<time>2025-12-07T12:04:19Z</time>
					</trkpt>
					<trkpt lat="49.862550" lon="4.905630">
						<ele>290</ele>
						<time>2025-12-07T12:04:19Z</time>
					</trkpt>
					<trkpt lat="49.862570" lon="4.905630">
						<ele>289</ele>
						<time>2025-12-07T12:04:20Z</time>
					</trkpt>
					<trkpt lat="49.862660" lon="4.905590">
						<ele>285</ele>
						<time>2025-12-07T12:04:25Z</time>
					</trkpt>
					<trkpt lat="49.862690" lon="4.905650">
						<ele>286</ele>
						<time>2025-12-07T12:04:27Z</time>
					</trkpt>
					<trkpt lat="49.862710" lon="4.905760">
						<ele>288</ele>
						<time>2025-12-07T12:04:31Z</time>
					</trkpt>
					<trkpt lat="49.862700" lon="4.905850">
						<ele>290</ele>
						<time>2025-12-07T12:04:34Z</time>
					</trkpt>
					<trkpt lat="49.862690" lon="4.906060">
						<ele>294</ele>
						<time>2025-12-07T12:04:41Z</time>
					</trkpt>
					<trkpt lat="49.862700" lon="4.906230">
						<ele>297</ele>
						<time>2025-12-07T12:04:46Z</time>
					</trkpt>
					<trkpt lat="49.862770" lon="4.906430">
						<ele>298</ele>
						<time>2025-12-07T12:04:54Z</time>
					</trkpt>
					<trkpt lat="49.862760" lon="4.906530">
						<ele>301</ele>
						<time>2025-12-07T12:04:57Z</time>
					</trkpt>
					<trkpt lat="49.862730" lon="4.906640">
						<ele>304</ele>
						<time>2025-12-07T12:05:01Z</time>
					</trkpt>
					<trkpt lat="49.862660" lon="4.906740">
						<ele>308</ele>
						<time>2025-12-07T12:05:06Z</time>
					</trkpt>
					<trkpt lat="49.862600" lon="4.906900">
						<ele>312</ele>
						<time>2025-12-07T12:05:12Z</time>
					</trkpt>
					<trkpt lat="49.862580" lon="4.907030">
						<ele>315</ele>
						<time>2025-12-07T12:05:16Z</time>
					</trkpt>
					<trkpt lat="49.862580" lon="4.907120">
						<ele>316</ele>
						<time>2025-12-07T12:05:19Z</time>
					</trkpt>
					<trkpt lat="49.862590" lon="4.907240">
						<ele>317</ele>
						<time>2025-12-07T12:05:23Z</time>
					</trkpt>
					<trkpt lat="49.862630" lon="4.907400">
						<ele>318</ele>
						<time>2025-12-07T12:05:28Z</time>
					</trkpt>
					<trkpt lat="49.862700" lon="4.907490">
						<ele>317</ele>
						<time>2025-12-07T12:05:33Z</time>
					</trkpt>
					<trkpt lat="49.862800" lon="4.907560">
						<ele>314</ele>
						<time>2025-12-07T12:05:38Z</time>
					</trkpt>
					<trkpt lat="49.862850" lon="4.907600">
						<ele>313</ele>
						<time>2025-12-07T12:05:41Z</time>
					</trkpt>
					<trkpt lat="49.862960" lon="4.907740">
						<ele>311</ele>
						<time>2025-12-07T12:05:48Z</time>
					</trkpt>
					<trkpt lat="49.862910" lon="4.907950">
						<ele>314</ele>
						<time>2025-12-07T12:05:55Z</time>
					</trkpt>
					<trkpt lat="49.862860" lon="4.908290">
						<ele>318</ele>
						<time>2025-12-07T12:06:07Z</time>
					</trkpt>
					<trkpt lat="49.862840" lon="4.908690">
						<ele>321</ele>
						<time>2025-12-07T12:06:20Z</time>
					</trkpt>
					<trkpt lat="49.862770" lon="4.908810">
						<ele>323</ele>
						<time>2025-12-07T12:06:25Z</time>
					</trkpt>
					<trkpt lat="49.862760" lon="4.908950">
						<ele>324</ele>
						<time>2025-12-07T12:06:29Z</time>
					</trkpt>
					<trkpt lat="49.862800" lon="4.909130">
						<ele>324</ele>
						<time>2025-12-07T12:06:35Z</time>
					</trkpt>
					<trkpt lat="49.862880" lon="4.909270">
						<ele>323</ele>
						<time>2025-12-07T12:06:42Z</time>
					</trkpt>
					<trkpt lat="49.862930" lon="4.909430">
						<ele>323</ele>
						<time>2025-12-07T12:06:47Z</time>
					</trkpt>
					<trkpt lat="49.862990" lon="4.909590">
						<ele>323</ele>
						<time>2025-12-07T12:06:53Z</time>
					</trkpt>
					<trkpt lat="49.863050" lon="4.909650">
						<ele>322</ele>
						<time>2025-12-07T12:06:57Z</time>
					</trkpt>
					<trkpt lat="49.863100" lon="4.909740">
						<ele>321</ele>
						<time>2025-12-07T12:07:01Z</time>
					</trkpt>
					<trkpt lat="49.863170" lon="4.909900">
						<ele>321</ele>
						<time>2025-12-07T12:07:07Z</time>
					</trkpt>
					<trkpt lat="49.863250" lon="4.909950">
						<ele>319</ele>
						<time>2025-12-07T12:07:11Z</time>
					</trkpt>
					<trkpt lat="49.863400" lon="4.909880">
						<ele>315</ele>
						<time>2025-12-07T12:07:19Z</time>
					</trkpt>
					<trkpt lat="49.863500" lon="4.909890">
						<ele>311</ele>
						<time>2025-12-07T12:07:24Z</time>
					</trkpt>
					<trkpt lat="49.863580" lon="4.909840">
						<ele>307</ele>
						<time>2025-12-07T12:07:28Z</time>
					</trkpt>
					<trkpt lat="49.863760" lon="4.909630">
						<ele>298</ele>
						<time>2025-12-07T12:07:40Z</time>
					</trkpt>
					<trkpt lat="49.863850" lon="4.909600">
						<ele>294</ele>
						<time>2025-12-07T12:07:44Z</time>
					</trkpt>
					<trkpt lat="49.863910" lon="4.909590">
						<ele>291</ele>
						<time>2025-12-07T12:07:47Z</time>
					</trkpt>
					<trkpt lat="49.864000" lon="4.909620">
						<ele>288</ele>
						<time>2025-12-07T12:07:52Z</time>
					</trkpt>
					<trkpt lat="49.864040" lon="4.909670">
						<ele>287</ele>
						<time>2025-12-07T12:07:54Z</time>
					</trkpt>
					<trkpt lat="49.864080" lon="4.909890">
						<ele>289</ele>
						<time>2025-12-07T12:08:02Z</time>
					</trkpt>
					<trkpt lat="49.864170" lon="4.910200">
						<ele>290</ele>
						<time>2025-12-07T12:08:13Z</time>
					</trkpt>
					<trkpt lat="49.864180" lon="4.910320">
						<ele>291</ele>
						<time>2025-12-07T12:08:17Z</time>
					</trkpt>
					<trkpt lat="49.864160" lon="4.910440">
						<ele>294</ele>
						<time>2025-12-07T12:08:21Z</time>
					</trkpt>
					<trkpt lat="49.864150" lon="4.910580">
						<ele>296</ele>
						<time>2025-12-07T12:08:25Z</time>
					</trkpt>
					<trkpt lat="49.864160" lon="4.910670">
						<ele>297</ele>
						<time>2025-12-07T12:08:28Z</time>
					</trkpt>
					<trkpt lat="49.864220" lon="4.910760">
						<ele>297</ele>
						<time>2025-12-07T12:08:32Z</time>
					</trkpt>
					<trkpt lat="49.864310" lon="4.910840">
						<ele>295</ele>
						<time>2025-12-07T12:08:38Z</time>
					</trkpt>
					<trkpt lat="49.864540" lon="4.910990">
						<ele>293</ele>
						<time>2025-12-07T12:08:50Z</time>
					</trkpt>
					<trkpt lat="49.864720" lon="4.911080">
						<ele>291</ele>
						<time>2025-12-07T12:08:59Z</time>
					</trkpt>
					<trkpt lat="49.864860" lon="4.911130">
						<ele>289</ele>
						<time>2025-12-07T12:09:07Z</time>
					</trkpt>
					<trkpt lat="49.864960" lon="4.911130">
						<ele>287</ele>
						<time>2025-12-07T12:09:12Z</time>
					</trkpt>
					<trkpt lat="49.865070" lon="4.911200">
						<ele>287</ele>
						<time>2025-12-07T12:09:18Z</time>
					</trkpt>
					<trkpt lat="49.865200" lon="4.911290">
						<ele>286</ele>
						<time>2025-12-07T12:09:25Z</time>
					</trkpt>
					<trkpt lat="49.865280" lon="4.911410">
						<ele>288</ele>
						<time>2025-12-07T12:09:30Z</time>
					</trkpt>
					<trkpt lat="49.865430" lon="4.911510">
						<ele>287</ele>
						<time>2025-12-07T12:09:38Z</time>
					</trkpt>
					<trkpt lat="49.865570" lon="4.911680">
						<ele>288</ele>
						<time>2025-12-07T12:09:47Z</time>
					</trkpt>
					<trkpt lat="49.865870" lon="4.911830">
						<ele>284</ele>
						<time>2025-12-07T12:10:03Z</time>
					</trkpt>
					<trkpt lat="49.865960" lon="4.911840">
						<ele>283</ele>
						<time>2025-12-07T12:10:08Z</time>
					</trkpt>
					<trkpt lat="49.866130" lon="4.911830">
						<ele>280</ele>
						<time>2025-12-07T12:10:16Z</time>
					</trkpt>
					<trkpt lat="49.866220" lon="4.911840">
						<ele>280</ele>
						<time>2025-12-07T12:10:21Z</time>
					</trkpt>
					<trkpt lat="49.866400" lon="4.911890">
						<ele>278</ele>
						<time>2025-12-07T12:10:30Z</time>
					</trkpt>
					<trkpt lat="49.866680" lon="4.911840">
						<ele>274</ele>
						<time>2025-12-07T12:10:44Z</time>
					</trkpt>
					<trkpt lat="49.866890" lon="4.911860">
						<ele>271</ele>
						<time>2025-12-07T12:10:54Z</time>
					</trkpt>
					<trkpt lat="49.867090" lon="4.911910">
						<ele>270</ele>
						<time>2025-12-07T12:11:05Z</time>
					</trkpt>
					<trkpt lat="49.867290" lon="4.911910">
						<ele>267</ele>
						<time>2025-12-07T12:11:15Z</time>
					</trkpt>
					<trkpt lat="49.867330" lon="4.911860">
						<ele>266</ele>
						<time>2025-12-07T12:11:17Z</time>
					</trkpt>
					<trkpt lat="49.867330" lon="4.911760">
						<ele>264</ele>
						<time>2025-12-07T12:11:20Z</time>
					</trkpt>
					<trkpt lat="49.867290" lon="4.911690">
						<ele>263</ele>
						<time>2025-12-07T12:11:23Z</time>
					</trkpt>
					<trkpt lat="49.866340" lon="4.910580">
						<ele>247</ele>
						<time>2025-12-07T12:12:23Z</time>
					</trkpt>
					<trkpt lat="49.865700" lon="4.909930">
						<ele>240</ele>
						<time>2025-12-07T12:13:01Z</time>
					</trkpt>
					<trkpt lat="49.865520" lon="4.909650">
						<ele>236</ele>
						<time>2025-12-07T12:13:14Z</time>
					</trkpt>
					<trkpt lat="49.865370" lon="4.909400">
						<ele>233</ele>
						<time>2025-12-07T12:13:25Z</time>
					</trkpt>
					<trkpt lat="49.865150" lon="4.908990">
						<ele>227</ele>
						<time>2025-12-07T12:13:42Z</time>
					</trkpt>
					<trkpt lat="49.865080" lon="4.908690">
						<ele>222</ele>
						<time>2025-12-07T12:13:53Z</time>
					</trkpt>
					<trkpt lat="49.865040" lon="4.908430">
						<ele>216</ele>
						<time>2025-12-07T12:14:01Z</time>
					</trkpt>
					<trkpt lat="49.865000" lon="4.908260">
						<ele>213</ele>
						<time>2025-12-07T12:14:07Z</time>
					</trkpt>
					<trkpt lat="49.864890" lon="4.908020">
						<ele>213</ele>
						<time>2025-12-07T12:14:16Z</time>
					</trkpt>
					<trkpt lat="49.864740" lon="4.907720">
						<ele>213</ele>
						<time>2025-12-07T12:14:29Z</time>
					</trkpt>
					<trkpt lat="49.864360" lon="4.906550">
						<ele>210</ele>
						<time>2025-12-07T12:15:11Z</time>
					</trkpt>
					<trkpt lat="49.864320" lon="4.906200">
						<ele>205</ele>
						<time>2025-12-07T12:15:22Z</time>
					</trkpt>
					<trkpt lat="49.864330" lon="4.906100">
						<ele>203</ele>
						<time>2025-12-07T12:15:26Z</time>
					</trkpt>
					<trkpt lat="49.864280" lon="4.905880">
						<ele>200</ele>
						<time>2025-12-07T12:15:33Z</time>
					</trkpt>
					<trkpt lat="49.864250" lon="4.905670">
						<ele>198</ele>
						<time>2025-12-07T12:15:40Z</time>
					</trkpt>
					<trkpt lat="49.863970" lon="4.904270">
						<ele>197</ele>
						<time>2025-12-07T12:16:27Z</time>
					</trkpt>
					<trkpt lat="49.863900" lon="4.904010">
						<ele>199</ele>
						<time>2025-12-07T12:16:37Z</time>
					</trkpt>
					<trkpt lat="49.863770" lon="4.903520">
						<ele>202</ele>
						<time>2025-12-07T12:16:54Z</time>
					</trkpt>
					<trkpt lat="49.863710" lon="4.903200">
						<ele>201</ele>
						<time>2025-12-07T12:17:04Z</time>
					</trkpt>
					<trkpt lat="49.863700" lon="4.903070">
						<ele>200</ele>
						<time>2025-12-07T12:17:09Z</time>
					</trkpt>
					<trkpt lat="49.863690" lon="4.902860">
						<ele>197</ele>
						<time>2025-12-07T12:17:15Z</time>
					</trkpt>
					<trkpt lat="49.863610" lon="4.902110">
						<ele>188</ele>
						<time>2025-12-07T12:17:40Z</time>
					</trkpt>
					<trkpt lat="49.863740" lon="4.902090">
						<ele>186</ele>
						<time>2025-12-07T12:17:46Z</time>
					</trkpt>
					<trkpt lat="49.864680" lon="4.902000">
						<ele>179</ele>
						<time>2025-12-07T12:18:34Z</time>
					</trkpt>
					<trkpt lat="49.864680" lon="4.902070">
						<ele>179</ele>
						<time>2025-12-07T12:18:36Z</time>
					</trkpt>
					<trkpt lat="49.864330" lon="4.902130">
						<ele>178</ele>
						<time>2025-12-07T12:18:53Z</time>
					</trkpt>
					<trkpt lat="49.864270" lon="4.902150">
						<ele>177</ele>
						<time>2025-12-07T12:18:57Z</time>
					</trkpt>
					<trkpt lat="49.864270" lon="4.902180">
						<ele>177</ele>
						<time>2025-12-07T12:18:58Z</time>
					</trkpt>
					<trkpt lat="49.864260" lon="4.902230">
						<ele>177</ele>
						<time>2025-12-07T12:18:59Z</time>
					</trkpt>
					<trkpt lat="49.864270" lon="4.902390">
						<ele>177</ele>
						<time>2025-12-07T12:19:04Z</time>
					</trkpt>
					<trkpt lat="49.864280" lon="4.902580">
						<ele>178</ele>
						<time>2025-12-07T12:19:11Z</time>
					</trkpt>
					<trkpt lat="49.864300" lon="4.902720">
						<ele>178</ele>
						<time>2025-12-07T12:19:15Z</time>
					</trkpt>
					<trkpt lat="49.864380" lon="4.902920">
						<ele>179</ele>
						<time>2025-12-07T12:19:23Z</time>
					</trkpt>
					<trkpt lat="49.864470" lon="4.903080">
						<ele>180</ele>
						<time>2025-12-07T12:19:30Z</time>
					</trkpt>
					<trkpt lat="49.864540" lon="4.903220">
						<ele>180</ele>
						<time>2025-12-07T12:19:35Z</time>
					</trkpt>
					<trkpt lat="49.864590" lon="4.903350">
						<ele>180</ele>
						<time>2025-12-07T12:19:40Z</time>
					</trkpt>
					<trkpt lat="49.864620" lon="4.903430">
						<ele>180</ele>
						<time>2025-12-07T12:19:43Z</time>
					</trkpt>
					<trkpt lat="49.864750" lon="4.903620">
						<ele>180</ele>
						<time>2025-12-07T12:19:52Z</time>
					</trkpt>
					<trkpt lat="49.864860" lon="4.903820">
						<ele>180</ele>
						<time>2025-12-07T12:20:01Z</time>
					</trkpt>
					<trkpt lat="49.865220" lon="4.904310">
						<ele>183</ele>
						<time>2025-12-07T12:20:25Z</time>
					</trkpt>
					<trkpt lat="49.865310" lon="4.904480">
						<ele>183</ele>
						<time>2025-12-07T12:20:32Z</time>
					</trkpt>
					<trkpt lat="49.865440" lon="4.904660">
						<ele>184</ele>
						<time>2025-12-07T12:20:40Z</time>
					</trkpt>
					<trkpt lat="49.865520" lon="4.904760">
						<ele>184</ele>
						<time>2025-12-07T12:20:46Z</time>
					</trkpt>
					<trkpt lat="49.865820" lon="4.905040">
						<ele>185</ele>
						<time>2025-12-07T12:21:03Z</time>
					</trkpt>
					<trkpt lat="49.866030" lon="4.905220">
						<ele>187</ele>
						<time>2025-12-07T12:21:15Z</time>
					</trkpt>
					<trkpt lat="49.866130" lon="4.905280">
						<ele>189</ele>
						<time>2025-12-07T12:21:20Z</time>
					</trkpt>
					<trkpt lat="49.866240" lon="4.905360">
						<ele>189</ele>
						<time>2025-12-07T12:21:26Z</time>
					</trkpt>
					<trkpt lat="49.866380" lon="4.905440">
						<ele>190</ele>
						<time>2025-12-07T12:21:34Z</time>
					</trkpt>
					<trkpt lat="49.866520" lon="4.905540">
						<ele>190</ele>
						<time>2025-12-07T12:21:42Z</time>
					</trkpt>
					<trkpt lat="49.866600" lon="4.905570">
						<ele>191</ele>
						<time>2025-12-07T12:21:46Z</time>
					</trkpt>
					<trkpt lat="49.866750" lon="4.905290">
						<ele>198</ele>
						<time>2025-12-07T12:21:58Z</time>
					</trkpt>
					<trkpt lat="49.866800" lon="4.905300">
						<ele>199</ele>
						<time>2025-12-07T12:22:00Z</time>
					</trkpt>
					<trkpt lat="49.866910" lon="4.905370">
						<ele>199</ele>
						<time>2025-12-07T12:22:06Z</time>
					</trkpt>
					<trkpt lat="49.867060" lon="4.905420">
						<ele>199</ele>
						<time>2025-12-07T12:22:14Z</time>
					</trkpt>
					<trkpt lat="49.867210" lon="4.905320">
						<ele>204</ele>
						<time>2025-12-07T12:22:22Z</time>
					</trkpt>
					<trkpt lat="49.867390" lon="4.905310">
						<ele>206</ele>
						<time>2025-12-07T12:22:31Z</time>
					</trkpt>
					<trkpt lat="49.867830" lon="4.905360">
						<ele>208</ele>
						<time>2025-12-07T12:22:53Z</time>
					</trkpt>
					<trkpt lat="49.867990" lon="4.905350">
						<ele>209</ele>
						<time>2025-12-07T12:23:01Z</time>
					</trkpt>
					<trkpt lat="49.868030" lon="4.905340">
						<ele>209</ele>
						<time>2025-12-07T12:23:03Z</time>
					</trkpt>
					<trkpt lat="49.868220" lon="4.905290">
						<ele>211</ele>
						<time>2025-12-07T12:23:13Z</time>
					</trkpt>
					<trkpt lat="49.868440" lon="4.905290">
						<ele>213</ele>
						<time>2025-12-07T12:23:24Z</time>
					</trkpt>
					<trkpt lat="49.868610" lon="4.905170">
						<ele>219</ele>
						<time>2025-12-07T12:23:33Z</time>
					</trkpt>
					<trkpt lat="49.868680" lon="4.905000">
						<ele>224</ele>
						<time>2025-12-07T12:23:40Z</time>
					</trkpt>
					<trkpt lat="49.868680" lon="4.904870">
						<ele>227</ele>
						<time>2025-12-07T12:23:44Z</time>
					</trkpt>
					<trkpt lat="49.868670" lon="4.904770">
						<ele>228</ele>
						<time>2025-12-07T12:23:47Z</time>
					</trkpt>
					<trkpt lat="49.868720" lon="4.904630">
						<ele>232</ele>
						<time>2025-12-07T12:23:52Z</time>
					</trkpt>
					<trkpt lat="49.868760" lon="4.904540">
						<ele>234</ele>
						<time>2025-12-07T12:23:56Z</time>
					</trkpt>
					<trkpt lat="49.868810" lon="4.904380">
						<ele>237</ele>
						<time>2025-12-07T12:24:01Z</time>
					</trkpt>
					<trkpt lat="49.868830" lon="4.904300">
						<ele>239</ele>
						<time>2025-12-07T12:24:04Z</time>
					</trkpt>
					<trkpt lat="49.868900" lon="4.904340">
						<ele>239</ele>
						<time>2025-12-07T12:24:08Z</time>
					</trkpt>
					<trkpt lat="49.868970" lon="4.904470">
						<ele>238</ele>
						<time>2025-12-07T12:24:13Z</time>
					</trkpt>
					<trkpt lat="49.869060" lon="4.904690">
						<ele>235</ele>
						<time>2025-12-07T12:24:22Z</time>
					</trkpt>
					<trkpt lat="49.869140" lon="4.904790">
						<ele>235</ele>
						<time>2025-12-07T12:24:27Z</time>
					</trkpt>
					<trkpt lat="49.869250" lon="4.904810">
						<ele>236</ele>
						<time>2025-12-07T12:24:32Z</time>
					</trkpt>
					<trkpt lat="49.869340" lon="4.904870">
						<ele>237</ele>
						<time>2025-12-07T12:24:37Z</time>
					</trkpt>
					<trkpt lat="49.869430" lon="4.904900">
						<ele>238</ele>
						<time>2025-12-07T12:24:42Z</time>
					</trkpt>
					<trkpt lat="49.869450" lon="4.904910">
						<ele>238</ele>
						<time>2025-12-07T12:24:43Z</time>
					</trkpt>
					<trkpt lat="49.869570" lon="4.904860">
						<ele>240</ele>
						<time>2025-12-07T12:24:49Z</time>
					</trkpt>
					<trkpt lat="49.869660" lon="4.904850">
						<ele>242</ele>
						<time>2025-12-07T12:24:54Z</time>
					</trkpt>
					<trkpt lat="49.869900" lon="4.904900">
						<ele>245</ele>
						<time>2025-12-07T12:25:06Z</time>
					</trkpt>
					<trkpt lat="49.870080" lon="4.904980">
						<ele>245</ele>
						<time>2025-12-07T12:25:15Z</time>
					</trkpt>
					<trkpt lat="49.870170" lon="4.905000">
						<ele>245</ele>
						<time>2025-12-07T12:25:20Z</time>
					</trkpt>
					<trkpt lat="49.870390" lon="4.904990">
						<ele>247</ele>
						<time>2025-12-07T12:25:31Z</time>
					</trkpt>
					<trkpt lat="49.870530" lon="4.905010">
						<ele>248</ele>
						<time>2025-12-07T12:25:38Z</time>
					</trkpt>
					<trkpt lat="49.870820" lon="4.905130">
						<ele>247</ele>
						<time>2025-12-07T12:25:53Z</time>
					</trkpt>
					<trkpt lat="49.871120" lon="4.905180">
						<ele>247</ele>
						<time>2025-12-07T12:26:08Z</time>
					</trkpt>
					<trkpt lat="49.871330" lon="4.905160">
						<ele>249</ele>
						<time>2025-12-07T12:26:18Z</time>
					</trkpt>
					<trkpt lat="49.871490" lon="4.905170">
						<ele>250</ele>
						<time>2025-12-07T12:26:26Z</time>
					</trkpt>
					<trkpt lat="49.871890" lon="4.905360">
						<ele>246</ele>
						<time>2025-12-07T12:26:47Z</time>
					</trkpt>
					<trkpt lat="49.872250" lon="4.905460">
						<ele>245</ele>
						<time>2025-12-07T12:27:06Z</time>
					</trkpt>
					<trkpt lat="49.872360" lon="4.905460">
						<ele>245</ele>
						<time>2025-12-07T12:27:11Z</time>
					</trkpt>
					<trkpt lat="49.872440" lon="4.905450">
						<ele>246</ele>
						<time>2025-12-07T12:27:15Z</time>
					</trkpt>
					<trkpt lat="49.872590" lon="4.905390">
						<ele>248</ele>
						<time>2025-12-07T12:27:23Z</time>
					</trkpt>
					<trkpt lat="49.872900" lon="4.905410">
						<ele>248</ele>
						<time>2025-12-07T12:27:39Z</time>
					</trkpt>
					<trkpt lat="49.873230" lon="4.905410">
						<ele>248</ele>
						<time>2025-12-07T12:27:55Z</time>
					</trkpt>
					<trkpt lat="49.873370" lon="4.905410">
						<ele>249</ele>
						<time>2025-12-07T12:28:02Z</time>
					</trkpt>
					<trkpt lat="49.873530" lon="4.905350">
						<ele>250</ele>
						<time>2025-12-07T12:28:10Z</time>
					</trkpt>
					<trkpt lat="49.873660" lon="4.905340">
						<ele>251</ele>
						<time>2025-12-07T12:28:17Z</time>
					</trkpt>
					<trkpt lat="49.873870" lon="4.905480">
						<ele>250</ele>
						<time>2025-12-07T12:28:28Z</time>
					</trkpt>
					<trkpt lat="49.874120" lon="4.905690">
						<ele>250</ele>
						<time>2025-12-07T12:28:42Z</time>
					</trkpt>
					<trkpt lat="49.875540" lon="4.905950">
						<ele>271</ele>
						<time>2025-12-07T12:29:54Z</time>
					</trkpt>
					<trkpt lat="49.875720" lon="4.905970">
						<ele>274</ele>
						<time>2025-12-07T12:30:03Z</time>
					</trkpt>
					<trkpt lat="49.875920" lon="4.906030">
						<ele>278</ele>
						<time>2025-12-07T12:30:13Z</time>
					</trkpt>
					<trkpt lat="49.876180" lon="4.906180">
						<ele>282</ele>
						<time>2025-12-07T12:30:27Z</time>
					</trkpt>
					<trkpt lat="49.876480" lon="4.906370">
						<ele>287</ele>
						<time>2025-12-07T12:30:43Z</time>
					</trkpt>
					<trkpt lat="49.876770" lon="4.906530">
						<ele>291</ele>
						<time>2025-12-07T12:30:59Z</time>
					</trkpt>
					<trkpt lat="49.877030" lon="4.906720">
						<ele>292</ele>
						<time>2025-12-07T12:31:13Z</time>
					</trkpt>
					<trkpt lat="49.877210" lon="4.906760">
						<ele>294</ele>
						<time>2025-12-07T12:31:22Z</time>
					</trkpt>
					<trkpt lat="49.877520" lon="4.906710">
						<ele>301</ele>
						<time>2025-12-07T12:31:38Z</time>
					</trkpt>
					<trkpt lat="49.877860" lon="4.906640">
						<ele>308</ele>
						<time>2025-12-07T12:31:55Z</time>
					</trkpt>
					<trkpt lat="49.877980" lon="4.906670">
						<ele>310</ele>
						<time>2025-12-07T12:32:01Z</time>
					</trkpt>
					<trkpt lat="49.878120" lon="4.906790">
						<ele>310</ele>
						<time>2025-12-07T12:32:09Z</time>
					</trkpt>
					<trkpt lat="49.878250" lon="4.906950">
						<ele>311</ele>
						<time>2025-12-07T12:32:17Z</time>
					</trkpt>
					<trkpt lat="49.878460" lon="4.907410">
						<ele>309</ele>
						<time>2025-12-07T12:32:36Z</time>
					</trkpt>
					<trkpt lat="49.878540" lon="4.907520">
						<ele>309</ele>
						<time>2025-12-07T12:32:41Z</time>
					</trkpt>
					<trkpt lat="49.878690" lon="4.907570">
						<ele>311</ele>
						<time>2025-12-07T12:32:49Z</time>
					</trkpt>
					<trkpt lat="49.878860" lon="4.907540">
						<ele>315</ele>
						<time>2025-12-07T12:32:57Z</time>
					</trkpt>
					<trkpt lat="49.879070" lon="4.907480">
						<ele>320</ele>
						<time>2025-12-07T12:33:08Z</time>
					</trkpt>
					<trkpt lat="49.879120" lon="4.907490">
						<ele>321</ele>
						<time>2025-12-07T12:33:10Z</time>
					</trkpt>
					<trkpt lat="49.879350" lon="4.907640">
						<ele>322</ele>
						<time>2025-12-07T12:33:23Z</time>
					</trkpt>
					<trkpt lat="49.879620" lon="4.907920">
						<ele>323</ele>
						<time>2025-12-07T12:33:39Z</time>
					</trkpt>
					<trkpt lat="49.879980" lon="4.908200">
						<ele>330</ele>
						<time>2025-12-07T12:33:59Z</time>
					</trkpt>
					<trkpt lat="49.880120" lon="4.908390">
						<ele>330</ele>
						<time>2025-12-07T12:34:09Z</time>
					</trkpt>
					<trkpt lat="49.880300" lon="4.908680">
						<ele>328</ele>
						<time>2025-12-07T12:34:22Z</time>
					</trkpt>
					<trkpt lat="49.881050" lon="4.909740">
						<ele>334</ele>
						<time>2025-12-07T12:35:12Z</time>
					</trkpt>
					<trkpt lat="49.881220" lon="4.909640">
						<ele>337</ele>
						<time>2025-12-07T12:35:21Z</time>
					</trkpt>
					<trkpt lat="49.881390" lon="4.909390">
						<ele>341</ele>
						<time>2025-12-07T12:35:33Z</time>
					</trkpt>
					<trkpt lat="49.881370" lon="4.909230">
						<ele>342</ele>
						<time>2025-12-07T12:35:38Z</time>
					</trkpt>
					<trkpt lat="49.881210" lon="4.908870">
						<ele>340</ele>
						<time>2025-12-07T12:35:52Z</time>
					</trkpt>
					<trkpt lat="49.881150" lon="4.908760">
						<ele>340</ele>
						<time>2025-12-07T12:35:57Z</time>
					</trkpt>
					<trkpt lat="49.880730" lon="4.907940">
						<ele>336</ele>
						<time>2025-12-07T12:36:31Z</time>
					</trkpt>
					<trkpt lat="49.880650" lon="4.907740">
						<ele>334</ele>
						<time>2025-12-07T12:36:38Z</time>
					</trkpt>
					<trkpt lat="49.880540" lon="4.907430">
						<ele>332</ele>
						<time>2025-12-07T12:36:50Z</time>
					</trkpt>
					<trkpt lat="49.880480" lon="4.907210">
						<ele>331</ele>
						<time>2025-12-07T12:36:58Z</time>
					</trkpt>
					<trkpt lat="49.880290" lon="4.907050">
						<ele>330</ele>
						<time>2025-12-07T12:37:08Z</time>
					</trkpt>
					<trkpt lat="49.880200" lon="4.906940">
						<ele>329</ele>
						<time>2025-12-07T12:37:14Z</time>
					</trkpt>
					<trkpt lat="49.879880" lon="4.906720">
						<ele>328</ele>
						<time>2025-12-07T12:37:32Z</time>
					</trkpt>
					<trkpt lat="49.879420" lon="4.906430">
						<ele>324</ele>
						<time>2025-12-07T12:37:56Z</time>
					</trkpt>
					<trkpt lat="49.879400" lon="4.906230">
						<ele>323</ele>
						<time>2025-12-07T12:38:03Z</time>
					</trkpt>
					<trkpt lat="49.879410" lon="4.906190">
						<ele>322</ele>
						<time>2025-12-07T12:38:04Z</time>
					</trkpt>
					<trkpt lat="49.879430" lon="4.906040">
						<ele>321</ele>
						<time>2025-12-07T12:38:09Z</time>
					</trkpt>
					<trkpt lat="49.879450" lon="4.905940">
						<ele>320</ele>
						<time>2025-12-07T12:38:13Z</time>
					</trkpt>
					<trkpt lat="49.880140" lon="4.906160">
						<ele>322</ele>
						<time>2025-12-07T12:38:48Z</time>
					</trkpt>
					<trkpt lat="49.880500" lon="4.906310">
						<ele>324</ele>
						<time>2025-12-07T12:39:07Z</time>
					</trkpt>
					<trkpt lat="49.880850" lon="4.906390">
						<ele>325</ele>
						<time>2025-12-07T12:39:24Z</time>
					</trkpt>
					<trkpt lat="49.881290" lon="4.906490">
						<ele>328</ele>
						<time>2025-12-07T12:39:47Z</time>
					</trkpt>
					<trkpt lat="49.881390" lon="4.906470">
						<ele>328</ele>
						<time>2025-12-07T12:39:52Z</time>
					</trkpt>
					<trkpt lat="49.881430" lon="4.906430">
						<ele>328</ele>
						<time>2025-12-07T12:39:54Z</time>
					</trkpt>
					<trkpt lat="49.881460" lon="4.906400">
						<ele>328</ele>
						<time>2025-12-07T12:39:56Z</time>
					</trkpt>
					<trkpt lat="49.881510" lon="4.906280">
						<ele>328</ele>
						<time>2025-12-07T12:40:00Z</time>
					</trkpt>
					<trkpt lat="49.881540" lon="4.906090">
						<ele>328</ele>
						<time>2025-12-07T12:40:07Z</time>
					</trkpt>
					<trkpt lat="49.881530" lon="4.905870">
						<ele>328</ele>
						<time>2025-12-07T12:40:14Z</time>
					</trkpt>
					<trkpt lat="49.881600" lon="4.905530">
						<ele>325</ele>
						<time>2025-12-07T12:40:25Z</time>
					</trkpt>
					<trkpt lat="49.881750" lon="4.904980">
						<ele>322</ele>
						<time>2025-12-07T12:40:45Z</time>
					</trkpt>
					<trkpt lat="49.881930" lon="4.904690">
						<ele>324</ele>
						<time>2025-12-07T12:40:58Z</time>
					</trkpt>
					<trkpt lat="49.882000" lon="4.904610">
						<ele>325</ele>
						<time>2025-12-07T12:41:02Z</time>
					</trkpt>
					<trkpt lat="49.882410" lon="4.904090">
						<ele>327</ele>
						<time>2025-12-07T12:41:28Z</time>
					</trkpt>
					<trkpt lat="49.882540" lon="4.904030">
						<ele>329</ele>
						<time>2025-12-07T12:41:35Z</time>
					</trkpt>
					<trkpt lat="49.883340" lon="4.904050">
						<ele>341</ele>
						<time>2025-12-07T12:42:15Z</time>
					</trkpt>
					<trkpt lat="49.883870" lon="4.904120">
						<ele>344</ele>
						<time>2025-12-07T12:42:42Z</time>
					</trkpt>
					<trkpt lat="49.884270" lon="4.904190">
						<ele>346</ele>
						<time>2025-12-07T12:43:02Z</time>
					</trkpt>
					<trkpt lat="49.884510" lon="4.904200">
						<ele>347</ele>
						<time>2025-12-07T12:43:14Z</time>
					</trkpt>
					<trkpt lat="49.884670" lon="4.904210">
						<ele>348</ele>
						<time>2025-12-07T12:43:22Z</time>
					</trkpt>
					<trkpt lat="49.885400" lon="4.904250">
						<ele>349</ele>
						<time>2025-12-07T12:43:59Z</time>
					</trkpt>
					<trkpt lat="49.885960" lon="4.904270">
						<ele>351</ele>
						<time>2025-12-07T12:44:27Z</time>
					</trkpt>
					<trkpt lat="49.886340" lon="4.904260">
						<ele>355</ele>
						<time>2025-12-07T12:44:46Z</time>
					</trkpt>
					<trkpt lat="49.886910" lon="4.904420">
						<ele>361</ele>
						<time>2025-12-07T12:45:15Z</time>
					</trkpt>
					<trkpt lat="49.887100" lon="4.904500">
						<ele>362</ele>
						<time>2025-12-07T12:45:24Z</time>
					</trkpt>
					<trkpt lat="49.887380" lon="4.904650">
						<ele>364</ele>
						<time>2025-12-07T12:45:39Z</time>
					</trkpt>
					<trkpt lat="49.887580" lon="4.904790">
						<ele>366</ele>
						<time>2025-12-07T12:45:50Z</time>
					</trkpt>
					<trkpt lat="49.887640" lon="4.904840">
						<ele>366</ele>
						<time>2025-12-07T12:45:54Z</time>
					</trkpt>
					<trkpt lat="49.887810" lon="4.905000">
						<ele>368</ele>
						<time>2025-12-07T12:46:04Z</time>
					</trkpt>
					<trkpt lat="49.888340" lon="4.905610">
						<ele>373</ele>
						<time>2025-12-07T12:46:37Z</time>
					</trkpt>
					<trkpt lat="49.888940" lon="4.906260">
						<ele>371</ele>
						<time>2025-12-07T12:47:13Z</time>
					</trkpt>
					<trkpt lat="49.889240" lon="4.906540">
						<ele>370</ele>
						<time>2025-12-07T12:47:31Z</time>
					</trkpt>
					<trkpt lat="49.889790" lon="4.906990">
						<ele>372</ele>
						<time>2025-12-07T12:48:02Z</time>
					</trkpt>
					<trkpt lat="49.889970" lon="4.907170">
						<ele>373</ele>
						<time>2025-12-07T12:48:13Z</time>
					</trkpt>
					<trkpt lat="49.890180" lon="4.907410">
						<ele>375</ele>
						<time>2025-12-07T12:48:26Z</time>
					</trkpt>
					<trkpt lat="49.890250" lon="4.907460">
						<ele>375</ele>
						<time>2025-12-07T12:48:30Z</time>
					</trkpt>
					<trkpt lat="49.890250" lon="4.907460">
						<ele>375</ele>
						<time>2025-12-07T12:48:30Z</time>
					</trkpt>
					<trkpt lat="49.891910" lon="4.908470">
						<ele>382</ele>
						<time>2025-12-07T12:49:59Z</time>
					</trkpt>
					<trkpt lat="49.891960" lon="4.908820">
						<ele>382</ele>
						<time>2025-12-07T12:50:10Z</time>
					</trkpt>
					<trkpt lat="49.892420" lon="4.910410">
						<ele>384</ele>
						<time>2025-12-07T12:51:07Z</time>
					</trkpt>
					<trkpt lat="49.892690" lon="4.911520">
						<ele>378</ele>
						<time>2025-12-07T12:51:45Z</time>
					</trkpt>
					<trkpt lat="49.892760" lon="4.913100">
						<ele>362</ele>
						<time>2025-12-07T12:52:36Z</time>
					</trkpt>
					<trkpt lat="49.892780" lon="4.913350">
						<ele>358</ele>
						<time>2025-12-07T12:52:44Z</time>
					</trkpt>
					<trkpt lat="49.892800" lon="4.913610">
						<ele>354</ele>
						<time>2025-12-07T12:52:52Z</time>
					</trkpt>
					<trkpt lat="49.892890" lon="4.913540">
						<ele>354</ele>
						<time>2025-12-07T12:52:57Z</time>
					</trkpt>
					<trkpt lat="49.893320" lon="4.913100">
						<ele>354</ele>
						<time>2025-12-07T12:53:23Z</time>
					</trkpt>
					<trkpt lat="49.893530" lon="4.912750">
						<ele>358</ele>
						<time>2025-12-07T12:53:39Z</time>
					</trkpt>
					<trkpt lat="49.893620" lon="4.912880">
						<ele>356</ele>
						<time>2025-12-07T12:53:45Z</time>
					</trkpt>
					<trkpt lat="49.894060" lon="4.913190">
						<ele>352</ele>
						<time>2025-12-07T12:54:09Z</time>
					</trkpt>
					<trkpt lat="49.894200" lon="4.913310">
						<ele>352</ele>
						<time>2025-12-07T12:54:17Z</time>
					</trkpt>
					<trkpt lat="49.894870" lon="4.913770">
						<ele>355</ele>
						<time>2025-12-07T12:54:54Z</time>
					</trkpt>
					<trkpt lat="49.894970" lon="4.913810">
						<ele>355</ele>
						<time>2025-12-07T12:54:59Z</time>
					</trkpt>
					<trkpt lat="49.895050" lon="4.913810">
						<ele>355</ele>
						<time>2025-12-07T12:55:03Z</time>
					</trkpt>
					<trkpt lat="49.895180" lon="4.913740">
						<ele>352</ele>
						<time>2025-12-07T12:55:10Z</time>
					</trkpt>
					<trkpt lat="49.895320" lon="4.913610">
						<ele>350</ele>
						<time>2025-12-07T12:55:18Z</time>
					</trkpt>
					<trkpt lat="49.895420" lon="4.913420">
						<ele>347</ele>
						<time>2025-12-07T12:55:26Z</time>
					</trkpt>
					<trkpt lat="49.895460" lon="4.913330">
						<ele>346</ele>
						<time>2025-12-07T12:55:29Z</time>
					</trkpt>
					<trkpt lat="49.895450" lon="4.913240">
						<ele>345</ele>
						<time>2025-12-07T12:55:32Z</time>
					</trkpt>
					<trkpt lat="49.895430" lon="4.913170">
						<ele>344</ele>
						<time>2025-12-07T12:55:35Z</time>
					</trkpt>
					<trkpt lat="49.895290" lon="4.912920">
						<ele>344</ele>
						<time>2025-12-07T12:55:45Z</time>
					</trkpt>
					<trkpt lat="49.895020" lon="4.912400">
						<ele>343</ele>
						<time>2025-12-07T12:56:07Z</time>
					</trkpt>
					<trkpt lat="49.894900" lon="4.912200">
						<ele>342</ele>
						<time>2025-12-07T12:56:16Z</time>
					</trkpt>
					<trkpt lat="49.894820" lon="4.911900">
						<ele>339</ele>
						<time>2025-12-07T12:56:26Z</time>
					</trkpt>
					<trkpt lat="49.894910" lon="4.911920">
						<ele>338</ele>
						<time>2025-12-07T12:56:31Z</time>
					</trkpt>
					<trkpt lat="49.894980" lon="4.912010">
						<ele>338</ele>
						<time>2025-12-07T12:56:35Z</time>
					</trkpt>
					<trkpt lat="49.895180" lon="4.912170">
						<ele>336</ele>
						<time>2025-12-07T12:56:47Z</time>
					</trkpt>
					<trkpt lat="49.895540" lon="4.912560">
						<ele>332</ele>
						<time>2025-12-07T12:57:09Z</time>
					</trkpt>
					<trkpt lat="49.895760" lon="4.912820">
						<ele>331</ele>
						<time>2025-12-07T12:57:22Z</time>
					</trkpt>
					<trkpt lat="49.895840" lon="4.912920">
						<ele>331</ele>
						<time>2025-12-07T12:57:27Z</time>
					</trkpt>
					<trkpt lat="49.895950" lon="4.913090">
						<ele>330</ele>
						<time>2025-12-07T12:57:35Z</time>
					</trkpt>
					<trkpt lat="49.896230" lon="4.913750">
						<ele>325</ele>
						<time>2025-12-07T12:58:01Z</time>
					</trkpt>
					<trkpt lat="49.896270" lon="4.913870">
						<ele>324</ele>
						<time>2025-12-07T12:58:05Z</time>
					</trkpt>
					<trkpt lat="49.896350" lon="4.914220">
						<ele>322</ele>
						<time>2025-12-07T12:58:17Z</time>
					</trkpt>
					<trkpt lat="49.896380" lon="4.914440">
						<ele>321</ele>
						<time>2025-12-07T12:58:24Z</time>
					</trkpt>
					<trkpt lat="49.896450" lon="4.914670">
						<ele>318</ele>
						<time>2025-12-07T12:58:33Z</time>
					</trkpt>
					<trkpt lat="49.896540" lon="4.914930">
						<ele>314</ele>
						<time>2025-12-07T12:58:42Z</time>
					</trkpt>
					<trkpt lat="49.896550" lon="4.915010">
						<ele>313</ele>
						<time>2025-12-07T12:58:45Z</time>
					</trkpt>
					<trkpt lat="49.896520" lon="4.915090">
						<ele>313</ele>
						<time>2025-12-07T12:58:48Z</time>
					</trkpt>
					<trkpt lat="49.896250" lon="4.915900">
						<ele>308</ele>
						<time>2025-12-07T12:59:17Z</time>
					</trkpt>
					<trkpt lat="49.896100" lon="4.916170">
						<ele>306</ele>
						<time>2025-12-07T12:59:29Z</time>
					</trkpt>
					<trkpt lat="49.896080" lon="4.916310">
						<ele>303</ele>
						<time>2025-12-07T12:59:33Z</time>
					</trkpt>
					<trkpt lat="49.896020" lon="4.916470">
						<ele>300</ele>
						<time>2025-12-07T12:59:39Z</time>
					</trkpt>
					<trkpt lat="49.895940" lon="4.916580">
						<ele>298</ele>
						<time>2025-12-07T12:59:44Z</time>
					</trkpt>
					<trkpt lat="49.895870" lon="4.916640">
						<ele>297</ele>
						<time>2025-12-07T12:59:48Z</time>
					</trkpt>
					<trkpt lat="49.895730" lon="4.916770">
						<ele>297</ele>
						<time>2025-12-07T12:59:57Z</time>
					</trkpt>
					<trkpt lat="49.895400" lon="4.917030">
						<ele>296</ele>
						<time>2025-12-07T13:00:15Z</time>
					</trkpt>
					<trkpt lat="49.895320" lon="4.917110">
						<ele>295</ele>
						<time>2025-12-07T13:00:20Z</time>
					</trkpt>
					<trkpt lat="49.895150" lon="4.917200">
						<ele>294</ele>
						<time>2025-12-07T13:00:29Z</time>
					</trkpt>
					<trkpt lat="49.895020" lon="4.917310">
						<ele>291</ele>
						<time>2025-12-07T13:00:36Z</time>
					</trkpt>
					<trkpt lat="49.894750" lon="4.917690">
						<ele>294</ele>
						<time>2025-12-07T13:00:55Z</time>
					</trkpt>
					<trkpt lat="49.894550" lon="4.918110">
						<ele>294</ele>
						<time>2025-12-07T13:01:11Z</time>
					</trkpt>
					<trkpt lat="49.894390" lon="4.918630">
						<ele>291</ele>
						<time>2025-12-07T13:01:30Z</time>
					</trkpt>
					<trkpt lat="49.894220" lon="4.919410">
						<ele>285</ele>
						<time>2025-12-07T13:01:57Z</time>
					</trkpt>
					<trkpt lat="49.893890" lon="4.920550">
						<ele>282</ele>
						<time>2025-12-07T13:02:37Z</time>
					</trkpt>
					<trkpt lat="49.893740" lon="4.920830">
						<ele>280</ele>
						<time>2025-12-07T13:02:49Z</time>
					</trkpt>
					<trkpt lat="49.893690" lon="4.920840">
						<ele>281</ele>
						<time>2025-12-07T13:02:51Z</time>
					</trkpt>
					<trkpt lat="49.893580" lon="4.920920">
						<ele>281</ele>
						<time>2025-12-07T13:02:57Z</time>
					</trkpt>
					<trkpt lat="49.893080" lon="4.921170">
						<ele>285</ele>
						<time>2025-12-07T13:03:23Z</time>
					</trkpt>
					<trkpt lat="49.892960" lon="4.921220">
						<ele>285</ele>
						<time>2025-12-07T13:03:30Z</time>
					</trkpt>
					<trkpt lat="49.892840" lon="4.921270">
						<ele>285</ele>
						<time>2025-12-07T13:03:36Z</time>
					</trkpt>
					<trkpt lat="49.892550" lon="4.921460">
						<ele>283</ele>
						<time>2025-12-07T13:03:52Z</time>
					</trkpt>
					<trkpt lat="49.892420" lon="4.921590">
						<ele>283</ele>
						<time>2025-12-07T13:03:59Z</time>
					</trkpt>
					<trkpt lat="49.892300" lon="4.921700">
						<ele>285</ele>
						<time>2025-12-07T13:04:06Z</time>
					</trkpt>
					<trkpt lat="49.892140" lon="4.921930">
						<ele>288</ele>
						<time>2025-12-07T13:04:17Z</time>
					</trkpt>
					<trkpt lat="49.892110" lon="4.922000">
						<ele>288</ele>
						<time>2025-12-07T13:04:20Z</time>
					</trkpt>
					<trkpt lat="49.892100" lon="4.922070">
						<ele>288</ele>
						<time>2025-12-07T13:04:22Z</time>
					</trkpt>
					<trkpt lat="49.892100" lon="4.922130">
						<ele>288</ele>
						<time>2025-12-07T13:04:24Z</time>
					</trkpt>
					<trkpt lat="49.892100" lon="4.922190">
						<ele>287</ele>
						<time>2025-12-07T13:04:26Z</time>
					</trkpt>
					<trkpt lat="49.892100" lon="4.922250">
						<ele>287</ele>
						<time>2025-12-07T13:04:28Z</time>
					</trkpt>
					<trkpt lat="49.892070" lon="4.922330">
						<ele>287</ele>
						<time>2025-12-07T13:04:31Z</time>
					</trkpt>
					<trkpt lat="49.891830" lon="4.922690">
						<ele>285</ele>
						<time>2025-12-07T13:04:48Z</time>
					</trkpt>
					<trkpt lat="49.891810" lon="4.922740">
						<ele>285</ele>
						<time>2025-12-07T13:04:50Z</time>
					</trkpt>
					<trkpt lat="49.891690" lon="4.922760">
						<ele>284</ele>
						<time>2025-12-07T13:04:56Z</time>
					</trkpt>
					<trkpt lat="49.891600" lon="4.922770">
						<ele>283</ele>
						<time>2025-12-07T13:05:00Z</time>
					</trkpt>
					<trkpt lat="49.890920" lon="4.922820">
						<ele>284</ele>
						<time>2025-12-07T13:05:34Z</time>
					</trkpt>
					<trkpt lat="49.890810" lon="4.922830">
						<ele>285</ele>
						<time>2025-12-07T13:05:40Z</time>
					</trkpt>
					<trkpt lat="49.890660" lon="4.922880">
						<ele>286</ele>
						<time>2025-12-07T13:05:47Z</time>
					</trkpt>
					<trkpt lat="49.890550" lon="4.922950">
						<ele>286</ele>
						<time>2025-12-07T13:05:53Z</time>
					</trkpt>
					<trkpt lat="49.890460" lon="4.923050">
						<ele>285</ele>
						<time>2025-12-07T13:05:59Z</time>
					</trkpt>
					<trkpt lat="49.890340" lon="4.923230">
						<ele>282</ele>
						<time>2025-12-07T13:06:07Z</time>
					</trkpt>
					<trkpt lat="49.890090" lon="4.923630">
						<ele>281</ele>
						<time>2025-12-07T13:06:25Z</time>
					</trkpt>
					<trkpt lat="49.889980" lon="4.923790">
						<ele>281</ele>
						<time>2025-12-07T13:06:33Z</time>
					</trkpt>
					<trkpt lat="49.889920" lon="4.923890">
						<ele>282</ele>
						<time>2025-12-07T13:06:37Z</time>
					</trkpt>
					<trkpt lat="49.889790" lon="4.924010">
						<ele>286</ele>
						<time>2025-12-07T13:06:45Z</time>
					</trkpt>
					<trkpt lat="49.889750" lon="4.924110">
						<ele>287</ele>
						<time>2025-12-07T13:06:49Z</time>
					</trkpt>
					<trkpt lat="49.889680" lon="4.924230">
						<ele>290</ele>
						<time>2025-12-07T13:06:54Z</time>
					</trkpt>
					<trkpt lat="49.889660" lon="4.924350">
						<ele>292</ele>
						<time>2025-12-07T13:06:58Z</time>
					</trkpt>
					<trkpt lat="49.889660" lon="4.924460">
						<ele>294</ele>
						<time>2025-12-07T13:07:01Z</time>
					</trkpt>
					<trkpt lat="49.889750" lon="4.924780">
						<ele>293</ele>
						<time>2025-12-07T13:07:13Z</time>
					</trkpt>
					<trkpt lat="49.889790" lon="4.925020">
						<ele>294</ele>
						<time>2025-12-07T13:07:21Z</time>
					</trkpt>
					<trkpt lat="49.889950" lon="4.925280">
						<ele>293</ele>
						<time>2025-12-07T13:07:32Z</time>
					</trkpt>
					<trkpt lat="49.890000" lon="4.925430">
						<ele>294</ele>
						<time>2025-12-07T13:07:38Z</time>
					</trkpt>
					<trkpt lat="49.890110" lon="4.925740">
						<ele>299</ele>
						<time>2025-12-07T13:07:49Z</time>
					</trkpt>
					<trkpt lat="49.890220" lon="4.926210">
						<ele>301</ele>
						<time>2025-12-07T13:08:05Z</time>
					</trkpt>
					<trkpt lat="49.890250" lon="4.926490">
						<ele>302</ele>
						<time>2025-12-07T13:08:14Z</time>
					</trkpt>
					<trkpt lat="49.890230" lon="4.926690">
						<ele>304</ele>
						<time>2025-12-07T13:08:21Z</time>
					</trkpt>
					<trkpt lat="49.890200" lon="4.926890">
						<ele>303</ele>
						<time>2025-12-07T13:08:27Z</time>
					</trkpt>
					<trkpt lat="49.890080" lon="4.927080">
						<ele>305</ele>
						<time>2025-12-07T13:08:36Z</time>
					</trkpt>
					<trkpt lat="49.889990" lon="4.927180">
						<ele>308</ele>
						<time>2025-12-07T13:08:42Z</time>
					</trkpt>
					<trkpt lat="49.889920" lon="4.927230">
						<ele>309</ele>
						<time>2025-12-07T13:08:45Z</time>
					</trkpt>
					<trkpt lat="49.889880" lon="4.927290">
						<ele>309</ele>
						<time>2025-12-07T13:08:48Z</time>
					</trkpt>
					<trkpt lat="49.889750" lon="4.927330">
						<ele>313</ele>
						<time>2025-12-07T13:08:55Z</time>
					</trkpt>
					<trkpt lat="49.889650" lon="4.927410">
						<ele>315</ele>
						<time>2025-12-07T13:09:00Z</time>
					</trkpt>
					<trkpt lat="49.889530" lon="4.927550">
						<ele>316</ele>
						<time>2025-12-07T13:09:08Z</time>
					</trkpt>
					<trkpt lat="49.889460" lon="4.927600">
						<ele>317</ele>
						<time>2025-12-07T13:09:12Z</time>
					</trkpt>
					<trkpt lat="49.889400" lon="4.927610">
						<ele>319</ele>
						<time>2025-12-07T13:09:15Z</time>
					</trkpt>
					<trkpt lat="49.889160" lon="4.927480">
						<ele>329</ele>
						<time>2025-12-07T13:09:28Z</time>
					</trkpt>
					<trkpt lat="49.889020" lon="4.927510">
						<ele>331</ele>
						<time>2025-12-07T13:09:35Z</time>
					</trkpt>
					<trkpt lat="49.888910" lon="4.927580">
						<ele>331</ele>
						<time>2025-12-07T13:09:41Z</time>
					</trkpt>
					<trkpt lat="49.888710" lon="4.927770">
						<ele>331</ele>
						<time>2025-12-07T13:09:52Z</time>
					</trkpt>
					<trkpt lat="49.888580" lon="4.927830">
						<ele>333</ele>
						<time>2025-12-07T13:09:59Z</time>
					</trkpt>
					<trkpt lat="49.888410" lon="4.927850">
						<ele>335</ele>
						<time>2025-12-07T13:10:08Z</time>
					</trkpt>
					<trkpt lat="49.888310" lon="4.927920">
						<ele>336</ele>
						<time>2025-12-07T13:10:13Z</time>
					</trkpt>
					<trkpt lat="49.888230" lon="4.928020">
						<ele>335</ele>
						<time>2025-12-07T13:10:18Z</time>
					</trkpt>
					<trkpt lat="49.888170" lon="4.928160">
						<ele>334</ele>
						<time>2025-12-07T13:10:24Z</time>
					</trkpt>
					<trkpt lat="49.888170" lon="4.928830">
						<ele>334</ele>
						<time>2025-12-07T13:10:45Z</time>
					</trkpt>
					<trkpt lat="49.888190" lon="4.929540">
						<ele>335</ele>
						<time>2025-12-07T13:11:08Z</time>
					</trkpt>
					<trkpt lat="49.888190" lon="4.929900">
						<ele>335</ele>
						<time>2025-12-07T13:11:20Z</time>
					</trkpt>
					<trkpt lat="49.888210" lon="4.930180">
						<ele>334</ele>
						<time>2025-12-07T13:11:29Z</time>
					</trkpt>
					<trkpt lat="49.888200" lon="4.930380">
						<ele>333</ele>
						<time>2025-12-07T13:11:35Z</time>
					</trkpt>
					<trkpt lat="49.888190" lon="4.930540">
						<ele>332</ele>
						<time>2025-12-07T13:11:41Z</time>
					</trkpt>
					<trkpt lat="49.888110" lon="4.930690">
						<ele>333</ele>
						<time>2025-12-07T13:11:47Z</time>
					</trkpt>
					<trkpt lat="49.887940" lon="4.930850">
						<ele>334</ele>
						<time>2025-12-07T13:11:57Z</time>
					</trkpt>
					<trkpt lat="49.887650" lon="4.931090">
						<ele>335</ele>
						<time>2025-12-07T13:12:13Z</time>
					</trkpt>
					<trkpt lat="49.887490" lon="4.931190">
						<ele>336</ele>
						<time>2025-12-07T13:12:22Z</time>
					</trkpt>
					<trkpt lat="49.887330" lon="4.931230">
						<ele>335</ele>
						<time>2025-12-07T13:12:30Z</time>
					</trkpt>
					<trkpt lat="49.887130" lon="4.931150">
						<ele>336</ele>
						<time>2025-12-07T13:12:40Z</time>
					</trkpt>
					<trkpt lat="49.886870" lon="4.931150">
						<ele>336</ele>
						<time>2025-12-07T13:12:53Z</time>
					</trkpt>
					<trkpt lat="49.886650" lon="4.931180">
						<ele>335</ele>
						<time>2025-12-07T13:13:04Z</time>
					</trkpt>
					<trkpt lat="49.886460" lon="4.931240">
						<ele>334</ele>
						<time>2025-12-07T13:13:14Z</time>
					</trkpt>
					<trkpt lat="49.886360" lon="4.931240">
						<ele>334</ele>
						<time>2025-12-07T13:13:19Z</time>
					</trkpt>
					<trkpt lat="49.885780" lon="4.931410">
						<ele>330</ele>
						<time>2025-12-07T13:13:49Z</time>
					</trkpt>
					<trkpt lat="49.885520" lon="4.931510">
						<ele>323</ele>
						<time>2025-12-07T13:14:02Z</time>
					</trkpt>
					<trkpt lat="49.885430" lon="4.931490">
						<ele>321</ele>
						<time>2025-12-07T13:14:07Z</time>
					</trkpt>
					<trkpt lat="49.885370" lon="4.931430">
						<ele>321</ele>
						<time>2025-12-07T13:14:10Z</time>
					</trkpt>
					<trkpt lat="49.885340" lon="4.931280">
						<ele>323</ele>
						<time>2025-12-07T13:14:15Z</time>
					</trkpt>
					<trkpt lat="49.885240" lon="4.931030">
						<ele>326</ele>
						<time>2025-12-07T13:14:25Z</time>
					</trkpt>
					<trkpt lat="49.885100" lon="4.930740">
						<ele>326</ele>
						<time>2025-12-07T13:14:36Z</time>
					</trkpt>
					<trkpt lat="49.884710" lon="4.929870">
						<ele>331</ele>
						<time>2025-12-07T13:15:11Z</time>
					</trkpt>
					<trkpt lat="49.884620" lon="4.929700">
						<ele>331</ele>
						<time>2025-12-07T13:15:18Z</time>
					</trkpt>
					<trkpt lat="49.884270" lon="4.929100">
						<ele>330</ele>
						<time>2025-12-07T13:15:44Z</time>
					</trkpt>
					<trkpt lat="49.884190" lon="4.929080">
						<ele>329</ele>
						<time>2025-12-07T13:15:48Z</time>
					</trkpt>
					<trkpt lat="49.884110" lon="4.929120">
						<ele>330</ele>
						<time>2025-12-07T13:15:52Z</time>
					</trkpt>
					<trkpt lat="49.884030" lon="4.929250">
						<ele>331</ele>
						<time>2025-12-07T13:15:58Z</time>
					</trkpt>
					<trkpt lat="49.883970" lon="4.929500">
						<ele>331</ele>
						<time>2025-12-07T13:16:06Z</time>
					</trkpt>
					<trkpt lat="49.883940" lon="4.929620">
						<ele>332</ele>
						<time>2025-12-07T13:16:11Z</time>
					</trkpt>
					<trkpt lat="49.883970" lon="4.930140">
						<ele>331</ele>
						<time>2025-12-07T13:16:27Z</time>
					</trkpt>
					<trkpt lat="49.883910" lon="4.930430">
						<ele>330</ele>
						<time>2025-12-07T13:16:37Z</time>
					</trkpt>
					<trkpt lat="49.883860" lon="4.930740">
						<ele>329</ele>
						<time>2025-12-07T13:16:48Z</time>
					</trkpt>
					<trkpt lat="49.883830" lon="4.931060">
						<ele>328</ele>
						<time>2025-12-07T13:16:58Z</time>
					</trkpt>
					<trkpt lat="49.883820" lon="4.931150">
						<ele>328</ele>
						<time>2025-12-07T13:17:01Z</time>
					</trkpt>
					<trkpt lat="49.883820" lon="4.931580">
						<ele>325</ele>
						<time>2025-12-07T13:17:15Z</time>
					</trkpt>
					<trkpt lat="49.883760" lon="4.931750">
						<ele>324</ele>
						<time>2025-12-07T13:17:21Z</time>
					</trkpt>
					<trkpt lat="49.883710" lon="4.931960">
						<ele>322</ele>
						<time>2025-12-07T13:17:28Z</time>
					</trkpt>
					<trkpt lat="49.883610" lon="4.932150">
						<ele>321</ele>
						<time>2025-12-07T13:17:36Z</time>
					</trkpt>
					<trkpt lat="49.883560" lon="4.932200">
						<ele>322</ele>
						<time>2025-12-07T13:17:39Z</time>
					</trkpt>
					<trkpt lat="49.883430" lon="4.932250">
						<ele>325</ele>
						<time>2025-12-07T13:17:46Z</time>
					</trkpt>
					<trkpt lat="49.883360" lon="4.932240">
						<ele>327</ele>
						<time>2025-12-07T13:17:49Z</time>
					</trkpt>
					<trkpt lat="49.883270" lon="4.932300">
						<ele>327</ele>
						<time>2025-12-07T13:17:54Z</time>
					</trkpt>
					<trkpt lat="49.883200" lon="4.932370">
						<ele>326</ele>
						<time>2025-12-07T13:17:58Z</time>
					</trkpt>
					<trkpt lat="49.883100" lon="4.932530">
						<ele>323</ele>
						<time>2025-12-07T13:18:06Z</time>
					</trkpt>
					<trkpt lat="49.883030" lon="4.932680">
						<ele>319</ele>
						<time>2025-12-07T13:18:12Z</time>
					</trkpt>
					<trkpt lat="49.882940" lon="4.932750">
						<ele>317</ele>
						<time>2025-12-07T13:18:17Z</time>
					</trkpt>
					<trkpt lat="49.882880" lon="4.932750">
						<ele>317</ele>
						<time>2025-12-07T13:18:20Z</time>
					</trkpt>
					<trkpt lat="49.882810" lon="4.932650">
						<ele>319</ele>
						<time>2025-12-07T13:18:24Z</time>
					</trkpt>
					<trkpt lat="49.882660" lon="4.932280">
						<ele>323</ele>
						<time>2025-12-07T13:18:38Z</time>
					</trkpt>
					<trkpt lat="49.882540" lon="4.932170">
						<ele>323</ele>
						<time>2025-12-07T13:18:45Z</time>
					</trkpt>
					<trkpt lat="49.882470" lon="4.932080">
						<ele>323</ele>
						<time>2025-12-07T13:18:50Z</time>
					</trkpt>
					<trkpt lat="49.882310" lon="4.932000">
						<ele>324</ele>
						<time>2025-12-07T13:18:58Z</time>
					</trkpt>
					<trkpt lat="49.882220" lon="4.932030">
						<ele>324</ele>
						<time>2025-12-07T13:19:03Z</time>
					</trkpt>
					<trkpt lat="49.882090" lon="4.932130">
						<ele>323</ele>
						<time>2025-12-07T13:19:10Z</time>
					</trkpt>
					<trkpt lat="49.881940" lon="4.932100">
						<ele>324</ele>
						<time>2025-12-07T13:19:18Z</time>
					</trkpt>
					<trkpt lat="49.881820" lon="4.931960">
						<ele>325</ele>
						<time>2025-12-07T13:19:25Z</time>
					</trkpt>
					<trkpt lat="49.881670" lon="4.931850">
						<ele>326</ele>
						<time>2025-12-07T13:19:34Z</time>
					</trkpt>
					<trkpt lat="49.881590" lon="4.931890">
						<ele>327</ele>
						<time>2025-12-07T13:19:38Z</time>
					</trkpt>
					<trkpt lat="49.881520" lon="4.931960">
						<ele>327</ele>
						<time>2025-12-07T13:19:42Z</time>
					</trkpt>
					<trkpt lat="49.881390" lon="4.932200">
						<ele>326</ele>
						<time>2025-12-07T13:19:52Z</time>
					</trkpt>
					<trkpt lat="49.881270" lon="4.932330">
						<ele>325</ele>
						<time>2025-12-07T13:19:59Z</time>
					</trkpt>
					<trkpt lat="49.881060" lon="4.932500">
						<ele>324</ele>
						<time>2025-12-07T13:20:11Z</time>
					</trkpt>
					<trkpt lat="49.880870" lon="4.932620">
						<ele>324</ele>
						<time>2025-12-07T13:20:22Z</time>
					</trkpt>
					<trkpt lat="49.880730" lon="4.932750">
						<ele>324</ele>
						<time>2025-12-07T13:20:30Z</time>
					</trkpt>
					<trkpt lat="49.880630" lon="4.932940">
						<ele>322</ele>
						<time>2025-12-07T13:20:38Z</time>
					</trkpt>
					<trkpt lat="49.880540" lon="4.933120">
						<ele>320</ele>
						<time>2025-12-07T13:20:45Z</time>
					</trkpt>
					<trkpt lat="49.880450" lon="4.933330">
						<ele>318</ele>
						<time>2025-12-07T13:20:53Z</time>
					</trkpt>
					<trkpt lat="49.880260" lon="4.933870">
						<ele>311</ele>
						<time>2025-12-07T13:21:13Z</time>
					</trkpt>
					<trkpt lat="49.880130" lon="4.934220">
						<ele>306</ele>
						<time>2025-12-07T13:21:26Z</time>
					</trkpt>
					<trkpt lat="49.880120" lon="4.934350">
						<ele>305</ele>
						<time>2025-12-07T13:21:30Z</time>
					</trkpt>
					<trkpt lat="49.880110" lon="4.934540">
						<ele>302</ele>
						<time>2025-12-07T13:21:36Z</time>
					</trkpt>
					<trkpt lat="49.880100" lon="4.934960">
						<ele>297</ele>
						<time>2025-12-07T13:21:50Z</time>
					</trkpt>
					<trkpt lat="49.880210" lon="4.935390">
						<ele>287</ele>
						<time>2025-12-07T13:22:05Z</time>
					</trkpt>
					<trkpt lat="49.880210" lon="4.935880">
						<ele>279</ele>
						<time>2025-12-07T13:22:21Z</time>
					</trkpt>
					<trkpt lat="49.880210" lon="4.936180">
						<ele>275</ele>
						<time>2025-12-07T13:22:30Z</time>
					</trkpt>
					<trkpt lat="49.880270" lon="4.936760">
						<ele>266</ele>
						<time>2025-12-07T13:22:49Z</time>
					</trkpt>
					<trkpt lat="49.880420" lon="4.937690">
						<ele>258</ele>
						<time>2025-12-07T13:23:20Z</time>
					</trkpt>
					<trkpt lat="49.880520" lon="4.938430">
						<ele>252</ele>
						<time>2025-12-07T13:23:45Z</time>
					</trkpt>
					<trkpt lat="49.880520" lon="4.938690">
						<ele>251</ele>
						<time>2025-12-07T13:23:53Z</time>
					</trkpt>
					<trkpt lat="49.880520" lon="4.938970">
						<ele>249</ele>
						<time>2025-12-07T13:24:02Z</time>
					</trkpt>
					<trkpt lat="49.880730" lon="4.939460">
						<ele>242</ele>
						<time>2025-12-07T13:24:21Z</time>
					</trkpt>
					<trkpt lat="49.881130" lon="4.939970">
						<ele>242</ele>
						<time>2025-12-07T13:24:47Z</time>
					</trkpt>
					<trkpt lat="49.881270" lon="4.940300">
						<ele>244</ele>
						<time>2025-12-07T13:25:00Z</time>
					</trkpt>
					<trkpt lat="49.881280" lon="4.940580">
						<ele>246</ele>
						<time>2025-12-07T13:25:09Z</time>
					</trkpt>
					<trkpt lat="49.881330" lon="4.940840">
						<ele>247</ele>
						<time>2025-12-07T13:25:17Z</time>
					</trkpt>
					<trkpt lat="49.881530" lon="4.940970">
						<ele>247</ele>
						<time>2025-12-07T13:25:28Z</time>
					</trkpt>
					<trkpt lat="49.881470" lon="4.941050">
						<ele>248</ele>
						<time>2025-12-07T13:25:32Z</time>
					</trkpt>
					<trkpt lat="49.881480" lon="4.941170">
						<ele>250</ele>
						<time>2025-12-07T13:25:36Z</time>
					</trkpt>
					<trkpt lat="49.881530" lon="4.941300">
						<ele>250</ele>
						<time>2025-12-07T13:25:41Z</time>
					</trkpt>
					<trkpt lat="49.881510" lon="4.941430">
						<ele>252</ele>
						<time>2025-12-07T13:25:45Z</time>
					</trkpt>
					<trkpt lat="49.881410" lon="4.941620">
						<ele>256</ele>
						<time>2025-12-07T13:25:53Z</time>
					</trkpt>
					<trkpt lat="49.881350" lon="4.941660">
						<ele>259</ele>
						<time>2025-12-07T13:25:56Z</time>
					</trkpt>
					<trkpt lat="49.881310" lon="4.941620">
						<ele>259</ele>
						<time>2025-12-07T13:25:59Z</time>
					</trkpt>
					<trkpt lat="49.881270" lon="4.941470">
						<ele>258</ele>
						<time>2025-12-07T13:26:04Z</time>
					</trkpt>
					<trkpt lat="49.881200" lon="4.941390">
						<ele>258</ele>
						<time>2025-12-07T13:26:08Z</time>
					</trkpt>
					<trkpt lat="49.881030" lon="4.941380">
						<ele>262</ele>
						<time>2025-12-07T13:26:17Z</time>
					</trkpt>
					<trkpt lat="49.880930" lon="4.941400">
						<ele>264</ele>
						<time>2025-12-07T13:26:22Z</time>
					</trkpt>
					<trkpt lat="49.880870" lon="4.941460">
						<ele>267</ele>
						<time>2025-12-07T13:26:26Z</time>
					</trkpt>
					<trkpt lat="49.880940" lon="4.941510">
						<ele>266</ele>
						<time>2025-12-07T13:26:29Z</time>
					</trkpt>
					<trkpt lat="49.880950" lon="4.941590">
						<ele>268</ele>
						<time>2025-12-07T13:26:32Z</time>
					</trkpt>
					<trkpt lat="49.880870" lon="4.941700">
						<ele>272</ele>
						<time>2025-12-07T13:26:37Z</time>
					</trkpt>
					<trkpt lat="49.880860" lon="4.941950">
						<ele>273</ele>
						<time>2025-12-07T13:26:45Z</time>
					</trkpt>
					<trkpt lat="49.880870" lon="4.942000">
						<ele>273</ele>
						<time>2025-12-07T13:26:47Z</time>
					</trkpt>
					<trkpt lat="49.880870" lon="4.942100">
						<ele>273</ele>
						<time>2025-12-07T13:26:50Z</time>
					</trkpt>
					<trkpt lat="49.880860" lon="4.942140">
						<ele>274</ele>
						<time>2025-12-07T13:26:52Z</time>
					</trkpt>
					<trkpt lat="49.880710" lon="4.942420">
						<ele>278</ele>
						<time>2025-12-07T13:27:04Z</time>
					</trkpt>
					<trkpt lat="49.880640" lon="4.942520">
						<ele>280</ele>
						<time>2025-12-07T13:27:08Z</time>
					</trkpt>
					<trkpt lat="49.880570" lon="4.942590">
						<ele>280</ele>
						<time>2025-12-07T13:27:12Z</time>
					</trkpt>
					<trkpt lat="49.880500" lon="4.942630">
						<ele>280</ele>
						<time>2025-12-07T13:27:16Z</time>
					</trkpt>
					<trkpt lat="49.880430" lon="4.942620">
						<ele>282</ele>
						<time>2025-12-07T13:27:20Z</time>
					</trkpt>
					<trkpt lat="49.880370" lon="4.942490">
						<ele>286</ele>
						<time>2025-12-07T13:27:25Z</time>
					</trkpt>
					<trkpt lat="49.880320" lon="4.942330">
						<ele>286</ele>
						<time>2025-12-07T13:27:31Z</time>
					</trkpt>
					<trkpt lat="49.880290" lon="4.942280">
						<ele>286</ele>
						<time>2025-12-07T13:27:33Z</time>
					</trkpt>
					<trkpt lat="49.880140" lon="4.942170">
						<ele>288</ele>
						<time>2025-12-07T13:27:41Z</time>
					</trkpt>
					<trkpt lat="49.880020" lon="4.942280">
						<ele>291</ele>
						<time>2025-12-07T13:27:48Z</time>
					</trkpt>
					<trkpt lat="49.879850" lon="4.942510">
						<ele>293</ele>
						<time>2025-12-07T13:27:59Z</time>
					</trkpt>
					<trkpt lat="49.879770" lon="4.942700">
						<ele>290</ele>
						<time>2025-12-07T13:28:07Z</time>
					</trkpt>
					<trkpt lat="49.879770" lon="4.942930">
						<ele>286</ele>
						<time>2025-12-07T13:28:14Z</time>
					</trkpt>
					<trkpt lat="49.879760" lon="4.943140">
						<ele>283</ele>
						<time>2025-12-07T13:28:21Z</time>
					</trkpt>
					<trkpt lat="49.879720" lon="4.943170">
						<ele>282</ele>
						<time>2025-12-07T13:28:23Z</time>
					</trkpt>
					<trkpt lat="49.879540" lon="4.943040">
						<ele>284</ele>
						<time>2025-12-07T13:28:33Z</time>
					</trkpt>
					<trkpt lat="49.879180" lon="4.943220">
						<ele>280</ele>
						<time>2025-12-07T13:28:52Z</time>
					</trkpt>
					<trkpt lat="49.878870" lon="4.943100">
						<ele>269</ele>
						<time>2025-12-07T13:29:08Z</time>
					</trkpt>
					<trkpt lat="49.878740" lon="4.942960">
						<ele>265</ele>
						<time>2025-12-07T13:29:16Z</time>
					</trkpt>
					<trkpt lat="49.878620" lon="4.942730">
						<ele>262</ele>
						<time>2025-12-07T13:29:25Z</time>
					</trkpt>
					<trkpt lat="49.878530" lon="4.942510">
						<ele>260</ele>
						<time>2025-12-07T13:29:34Z</time>
					</trkpt>
					<trkpt lat="49.878490" lon="4.942250">
						<ele>259</ele>
						<time>2025-12-07T13:29:42Z</time>
					</trkpt>
					<trkpt lat="49.878430" lon="4.941850">
						<ele>257</ele>
						<time>2025-12-07T13:29:56Z</time>
					</trkpt>
					<trkpt lat="49.878390" lon="4.941480">
						<ele>258</ele>
						<time>2025-12-07T13:30:08Z</time>
					</trkpt>
					<trkpt lat="49.878320" lon="4.941400">
						<ele>255</ele>
						<time>2025-12-07T13:30:12Z</time>
					</trkpt>
					<trkpt lat="49.878160" lon="4.940850">
						<ele>252</ele>
						<time>2025-12-07T13:30:32Z</time>
					</trkpt>
					<trkpt lat="49.877880" lon="4.940360">
						<ele>245</ele>
						<time>2025-12-07T13:30:53Z</time>
					</trkpt>
					<trkpt lat="49.877740" lon="4.940220">
						<ele>240</ele>
						<time>2025-12-07T13:31:01Z</time>
					</trkpt>
					<trkpt lat="49.877480" lon="4.939790">
						<ele>238</ele>
						<time>2025-12-07T13:31:20Z</time>
					</trkpt>
					<trkpt lat="49.877150" lon="4.939520">
						<ele>237</ele>
						<time>2025-12-07T13:31:39Z</time>
					</trkpt>
					<trkpt lat="49.876940" lon="4.939450">
						<ele>234</ele>
						<time>2025-12-07T13:31:49Z</time>
					</trkpt>
					<trkpt lat="49.876780" lon="4.939410">
						<ele>231</ele>
						<time>2025-12-07T13:31:58Z</time>
					</trkpt>
					<trkpt lat="49.876580" lon="4.939400">
						<ele>226</ele>
						<time>2025-12-07T13:32:08Z</time>
					</trkpt>
					<trkpt lat="49.876450" lon="4.939370">
						<ele>224</ele>
						<time>2025-12-07T13:32:14Z</time>
					</trkpt>
					<trkpt lat="49.876340" lon="4.939290">
						<ele>223</ele>
						<time>2025-12-07T13:32:20Z</time>
					</trkpt>
					<trkpt lat="49.875900" lon="4.938960">
						<ele>223</ele>
						<time>2025-12-07T13:32:45Z</time>
					</trkpt>
					<trkpt lat="49.875650" lon="4.938850">
						<ele>222</ele>
						<time>2025-12-07T13:32:58Z</time>
					</trkpt>
					<trkpt lat="49.875550" lon="4.938840">
						<ele>221</ele>
						<time>2025-12-07T13:33:03Z</time>
					</trkpt>
					<trkpt lat="49.875430" lon="4.938920">
						<ele>217</ele>
						<time>2025-12-07T13:33:09Z</time>
					</trkpt>
					<trkpt lat="49.874980" lon="4.938840">
						<ele>213</ele>
						<time>2025-12-07T13:33:32Z</time>
					</trkpt>
					<trkpt lat="49.874790" lon="4.938790">
						<ele>213</ele>
						<time>2025-12-07T13:33:42Z</time>
					</trkpt>
					<trkpt lat="49.874600" lon="4.938720">
						<ele>213</ele>
						<time>2025-12-07T13:33:51Z</time>
					</trkpt>
					<trkpt lat="49.874420" lon="4.938630">
						<ele>212</ele>
						<time>2025-12-07T13:34:01Z</time>
					</trkpt>
					<trkpt lat="49.874060" lon="4.938470">
						<ele>210</ele>
						<time>2025-12-07T13:34:20Z</time>
					</trkpt>
					<trkpt lat="49.873860" lon="4.938420">
						<ele>207</ele>
						<time>2025-12-07T13:34:30Z</time>
					</trkpt>
					<trkpt lat="49.873670" lon="4.938340">
						<ele>204</ele>
						<time>2025-12-07T13:34:40Z</time>
					</trkpt>
					<trkpt lat="49.873580" lon="4.938240">
						<ele>202</ele>
						<time>2025-12-07T13:34:45Z</time>
					</trkpt>
					<trkpt lat="49.873620" lon="4.938140">
						<ele>204</ele>
						<time>2025-12-07T13:34:49Z</time>
					</trkpt>
					<trkpt lat="49.873690" lon="4.937900">
						<ele>207</ele>
						<time>2025-12-07T13:34:57Z</time>
					</trkpt>
					<trkpt lat="49.873670" lon="4.937750">
						<ele>207</ele>
						<time>2025-12-07T13:35:02Z</time>
					</trkpt>
					<trkpt lat="49.873680" lon="4.937450">
						<ele>209</ele>
						<time>2025-12-07T13:35:12Z</time>
					</trkpt>
					<trkpt lat="49.873730" lon="4.937310">
						<ele>211</ele>
						<time>2025-12-07T13:35:17Z</time>
					</trkpt>
					<trkpt lat="49.873760" lon="4.937170">
						<ele>211</ele>
						<time>2025-12-07T13:35:22Z</time>
					</trkpt>
					<trkpt lat="49.873860" lon="4.936890">
						<ele>215</ele>
						<time>2025-12-07T13:35:32Z</time>
					</trkpt>
					<trkpt lat="49.873900" lon="4.936860">
						<ele>216</ele>
						<time>2025-12-07T13:35:34Z</time>
					</trkpt>
					<trkpt lat="49.873920" lon="4.936870">
						<ele>217</ele>
						<time>2025-12-07T13:35:36Z</time>
					</trkpt>
					<trkpt lat="49.873990" lon="4.937100">
						<ele>220</ele>
						<time>2025-12-07T13:35:44Z</time>
					</trkpt>
					<trkpt lat="49.874020" lon="4.937250">
						<ele>221</ele>
						<time>2025-12-07T13:35:49Z</time>
					</trkpt>
					<trkpt lat="49.874150" lon="4.937460">
						<ele>225</ele>
						<time>2025-12-07T13:35:58Z</time>
					</trkpt>
					<trkpt lat="49.874170" lon="4.937470">
						<ele>226</ele>
						<time>2025-12-07T13:35:59Z</time>
					</trkpt>
					<trkpt lat="49.874190" lon="4.937450">
						<ele>227</ele>
						<time>2025-12-07T13:36:00Z</time>
					</trkpt>
					<trkpt lat="49.874180" lon="4.937320">
						<ele>226</ele>
						<time>2025-12-07T13:36:05Z</time>
					</trkpt>
					<trkpt lat="49.874160" lon="4.937060">
						<ele>226</ele>
						<time>2025-12-07T13:36:13Z</time>
					</trkpt>
					<trkpt lat="49.874240" lon="4.937010">
						<ele>228</ele>
						<time>2025-12-07T13:36:17Z</time>
					</trkpt>
					<trkpt lat="49.874640" lon="4.937260">
						<ele>238</ele>
						<time>2025-12-07T13:36:39Z</time>
					</trkpt>
					<trkpt lat="49.875050" lon="4.937280">
						<ele>248</ele>
						<time>2025-12-07T13:37:00Z</time>
					</trkpt>
					<trkpt lat="49.875180" lon="4.937340">
						<ele>251</ele>
						<time>2025-12-07T13:37:06Z</time>
					</trkpt>
					<trkpt lat="49.875460" lon="4.937390">
						<ele>257</ele>
						<time>2025-12-07T13:37:20Z</time>
					</trkpt>
					<trkpt lat="49.875820" lon="4.937360">
						<ele>264</ele>
						<time>2025-12-07T13:37:38Z</time>
					</trkpt>
					<trkpt lat="49.876140" lon="4.937250">
						<ele>272</ele>
						<time>2025-12-07T13:37:55Z</time>
					</trkpt>
					<trkpt lat="49.876260" lon="4.937230">
						<ele>275</ele>
						<time>2025-12-07T13:38:01Z</time>
					</trkpt>
					<trkpt lat="49.876490" lon="4.937150">
						<ele>282</ele>
						<time>2025-12-07T13:38:13Z</time>
					</trkpt>
					<trkpt lat="49.876900" lon="4.936970">
						<ele>294</ele>
						<time>2025-12-07T13:38:34Z</time>
					</trkpt>
					<trkpt lat="49.877300" lon="4.936870">
						<ele>306</ele>
						<time>2025-12-07T13:38:54Z</time>
					</trkpt>
					<trkpt lat="49.877490" lon="4.936740">
						<ele>314</ele>
						<time>2025-12-07T13:39:05Z</time>
					</trkpt>
					<trkpt lat="49.877800" lon="4.936450">
						<ele>312</ele>
						<time>2025-12-07T13:39:23Z</time>
					</trkpt>
					<trkpt lat="49.877900" lon="4.936190">
						<ele>310</ele>
						<time>2025-12-07T13:39:33Z</time>
					</trkpt>
					<trkpt lat="49.877990" lon="4.935800">
						<ele>307</ele>
						<time>2025-12-07T13:39:46Z</time>
					</trkpt>
					<trkpt lat="49.878080" lon="4.935400">
						<ele>308</ele>
						<time>2025-12-07T13:40:00Z</time>
					</trkpt>
					<trkpt lat="49.878210" lon="4.934840">
						<ele>312</ele>
						<time>2025-12-07T13:40:19Z</time>
					</trkpt>
					<trkpt lat="49.878280" lon="4.934580">
						<ele>316</ele>
						<time>2025-12-07T13:40:28Z</time>
					</trkpt>
					<trkpt lat="49.878390" lon="4.934150">
						<ele>322</ele>
						<time>2025-12-07T13:40:43Z</time>
					</trkpt>
					<trkpt lat="49.878470" lon="4.933730">
						<ele>326</ele>
						<time>2025-12-07T13:40:57Z</time>
					</trkpt>
					<trkpt lat="49.878460" lon="4.933480">
						<ele>329</ele>
						<time>2025-12-07T13:41:05Z</time>
					</trkpt>
					<trkpt lat="49.878480" lon="4.933300">
						<ele>331</ele>
						<time>2025-12-07T13:41:11Z</time>
					</trkpt>
					<trkpt lat="49.878560" lon="4.933090">
						<ele>331</ele>
						<time>2025-12-07T13:41:19Z</time>
					</trkpt>
					<trkpt lat="49.878620" lon="4.933020">
						<ele>331</ele>
						<time>2025-12-07T13:41:22Z</time>
					</trkpt>
					<trkpt lat="49.878870" lon="4.932540">
						<ele>333</ele>
						<time>2025-12-07T13:41:42Z</time>
					</trkpt>
					<trkpt lat="49.878910" lon="4.932500">
						<ele>333</ele>
						<time>2025-12-07T13:41:45Z</time>
					</trkpt>
					<trkpt lat="49.878960" lon="4.932440">
						<ele>334</ele>
						<time>2025-12-07T13:41:48Z</time>
					</trkpt>
					<trkpt lat="49.879020" lon="4.932200">
						<ele>334</ele>
						<time>2025-12-07T13:41:56Z</time>
					</trkpt>
					<trkpt lat="49.879620" lon="4.931050">
						<ele>343</ele>
						<time>2025-12-07T13:42:44Z</time>
					</trkpt>
					<trkpt lat="49.879660" lon="4.931090">
						<ele>343</ele>
						<time>2025-12-07T13:42:46Z</time>
					</trkpt>
					<trkpt lat="49.879620" lon="4.931050">
						<ele>343</ele>
						<time>2025-12-07T13:42:49Z</time>
					</trkpt>
					<trkpt lat="49.879780" lon="4.930600">
						<ele>347</ele>
						<time>2025-12-07T13:43:05Z</time>
					</trkpt>
					<trkpt lat="49.879990" lon="4.930090">
						<ele>352</ele>
						<time>2025-12-07T13:43:25Z</time>
					</trkpt>
					<trkpt lat="49.880070" lon="4.929770">
						<ele>354</ele>
						<time>2025-12-07T13:43:36Z</time>
					</trkpt>
					<trkpt lat="49.880080" lon="4.929580">
						<ele>354</ele>
						<time>2025-12-07T13:43:42Z</time>
					</trkpt>
					<trkpt lat="49.880030" lon="4.929150">
						<ele>355</ele>
						<time>2025-12-07T13:43:56Z</time>
					</trkpt>
					<trkpt lat="49.879930" lon="4.928650">
						<ele>352</ele>
						<time>2025-12-07T13:44:13Z</time>
					</trkpt>
					<trkpt lat="49.879880" lon="4.928260">
						<ele>350</ele>
						<time>2025-12-07T13:44:26Z</time>
					</trkpt>
					<trkpt lat="49.879790" lon="4.927950">
						<ele>349</ele>
						<time>2025-12-07T13:44:37Z</time>
					</trkpt>
					<trkpt lat="49.879450" lon="4.928210">
						<ele>345</ele>
						<time>2025-12-07T13:44:56Z</time>
					</trkpt>
					<trkpt lat="49.879380" lon="4.928290">
						<ele>343</ele>
						<time>2025-12-07T13:45:00Z</time>
					</trkpt>
					<trkpt lat="49.879320" lon="4.928360">
						<ele>342</ele>
						<time>2025-12-07T13:45:04Z</time>
					</trkpt>
					<trkpt lat="49.879120" lon="4.928440">
						<ele>339</ele>
						<time>2025-12-07T13:45:14Z</time>
					</trkpt>
					<trkpt lat="49.878750" lon="4.928620">
						<ele>328</ele>
						<time>2025-12-07T13:45:34Z</time>
					</trkpt>
					<trkpt lat="49.878490" lon="4.928810">
						<ele>320</ele>
						<time>2025-12-07T13:45:48Z</time>
					</trkpt>
					<trkpt lat="49.878310" lon="4.928860">
						<ele>315</ele>
						<time>2025-12-07T13:45:57Z</time>
					</trkpt>
					<trkpt lat="49.878160" lon="4.929000">
						<ele>309</ele>
						<time>2025-12-07T13:46:06Z</time>
					</trkpt>
					<trkpt lat="49.878030" lon="4.929070">
						<ele>305</ele>
						<time>2025-12-07T13:46:13Z</time>
					</trkpt>
					<trkpt lat="49.877890" lon="4.929090">
						<ele>301</ele>
						<time>2025-12-07T13:46:20Z</time>
					</trkpt>
					<trkpt lat="49.877670" lon="4.929000">
						<ele>296</ele>
						<time>2025-12-07T13:46:31Z</time>
					</trkpt>
					<trkpt lat="49.877470" lon="4.928870">
						<ele>291</ele>
						<time>2025-12-07T13:46:42Z</time>
					</trkpt>
					<trkpt lat="49.877390" lon="4.928860">
						<ele>289</ele>
						<time>2025-12-07T13:46:46Z</time>
					</trkpt>
					<trkpt lat="49.877270" lon="4.928950">
						<ele>285</ele>
						<time>2025-12-07T13:46:53Z</time>
					</trkpt>
					<trkpt lat="49.877190" lon="4.929060">
						<ele>283</ele>
						<time>2025-12-07T13:46:58Z</time>
					</trkpt>
					<trkpt lat="49.877150" lon="4.929140">
						<ele>281</ele>
						<time>2025-12-07T13:47:01Z</time>
					</trkpt>
					<trkpt lat="49.877040" lon="4.929210">
						<ele>278</ele>
						<time>2025-12-07T13:47:07Z</time>
					</trkpt>
					<trkpt lat="49.876970" lon="4.929420">
						<ele>276</ele>
						<time>2025-12-07T13:47:15Z</time>
					</trkpt>
					<trkpt lat="49.876910" lon="4.929460">
						<ele>274</ele>
						<time>2025-12-07T13:47:18Z</time>
					</trkpt>
					<trkpt lat="49.876700" lon="4.929450">
						<ele>269</ele>
						<time>2025-12-07T13:47:29Z</time>
					</trkpt>
					<trkpt lat="49.876540" lon="4.929530">
						<ele>266</ele>
						<time>2025-12-07T13:47:37Z</time>
					</trkpt>
					<trkpt lat="49.876460" lon="4.929550">
						<ele>265</ele>
						<time>2025-12-07T13:47:41Z</time>
					</trkpt>
					<trkpt lat="49.876390" lon="4.929530">
						<ele>264</ele>
						<time>2025-12-07T13:47:45Z</time>
					</trkpt>
					<trkpt lat="49.876260" lon="4.929570">
						<ele>261</ele>
						<time>2025-12-07T13:47:51Z</time>
					</trkpt>
					<trkpt lat="49.876180" lon="4.929570">
						<ele>260</ele>
						<time>2025-12-07T13:47:55Z</time>
					</trkpt>
					<trkpt lat="49.875840" lon="4.929730">
						<ele>254</ele>
						<time>2025-12-07T13:48:13Z</time>
					</trkpt>
					<trkpt lat="49.875760" lon="4.929740">
						<ele>253</ele>
						<time>2025-12-07T13:48:17Z</time>
					</trkpt>
					<trkpt lat="49.875680" lon="4.929720">
						<ele>251</ele>
						<time>2025-12-07T13:48:21Z</time>
					</trkpt>
					<trkpt lat="49.875590" lon="4.929740">
						<ele>249</ele>
						<time>2025-12-07T13:48:26Z</time>
					</trkpt>
					<trkpt lat="49.875500" lon="4.929810">
						<ele>247</ele>
						<time>2025-12-07T13:48:31Z</time>
					</trkpt>
					<trkpt lat="49.875160" lon="4.929920">
						<ele>240</ele>
						<time>2025-12-07T13:48:48Z</time>
					</trkpt>
					<trkpt lat="49.874950" lon="4.930030">
						<ele>235</ele>
						<time>2025-12-07T13:48:59Z</time>
					</trkpt>
					<trkpt lat="49.874640" lon="4.930210">
						<ele>228</ele>
						<time>2025-12-07T13:49:16Z</time>
					</trkpt>
					<trkpt lat="49.874350" lon="4.930350">
						<ele>222</ele>
						<time>2025-12-07T13:49:31Z</time>
					</trkpt>
					<trkpt lat="49.874230" lon="4.930420">
						<ele>219</ele>
						<time>2025-12-07T13:49:37Z</time>
					</trkpt>
					<trkpt lat="49.873960" lon="4.930550">
						<ele>213</ele>
						<time>2025-12-07T13:49:52Z</time>
					</trkpt>
					<trkpt lat="49.873910" lon="4.930580">
						<ele>211</ele>
						<time>2025-12-07T13:49:54Z</time>
					</trkpt>
					<trkpt lat="49.873890" lon="4.930610">
						<ele>211</ele>
						<time>2025-12-07T13:49:56Z</time>
					</trkpt>
					<trkpt lat="49.873790" lon="4.930680">
						<ele>208</ele>
						<time>2025-12-07T13:50:01Z</time>
					</trkpt>
					<trkpt lat="49.873750" lon="4.930680">
						<ele>207</ele>
						<time>2025-12-07T13:50:03Z</time>
					</trkpt>
					<trkpt lat="49.873650" lon="4.930630">
						<ele>205</ele>
						<time>2025-12-07T13:50:08Z</time>
					</trkpt>
					<trkpt lat="49.873630" lon="4.930590">
						<ele>205</ele>
						<time>2025-12-07T13:50:10Z</time>
					</trkpt>
					<trkpt lat="49.873620" lon="4.930580">
						<ele>204</ele>
						<time>2025-12-07T13:50:11Z</time>
					</trkpt>
					<trkpt lat="49.873570" lon="4.930540">
						<ele>203</ele>
						<time>2025-12-07T13:50:13Z</time>
					</trkpt>
					<trkpt lat="49.873330" lon="4.930590">
						<ele>197</ele>
						<time>2025-12-07T13:50:26Z</time>
					</trkpt>
					<trkpt lat="49.873240" lon="4.930540">
						<ele>196</ele>
						<time>2025-12-07T13:50:30Z</time>
					</trkpt>
					<trkpt lat="49.872940" lon="4.930110">
						<ele>192</ele>
						<time>2025-12-07T13:50:51Z</time>
					</trkpt>
					<trkpt lat="49.872790" lon="4.930030">
						<ele>190</ele>
						<time>2025-12-07T13:50:59Z</time>
					</trkpt>
					<trkpt lat="49.872660" lon="4.930250">
						<ele>188</ele>
						<time>2025-12-07T13:51:08Z</time>
					</trkpt>
					<trkpt lat="49.872630" lon="4.930270">
						<ele>187</ele>
						<time>2025-12-07T13:51:10Z</time>
					</trkpt>
					<trkpt lat="49.872470" lon="4.930440">
						<ele>185</ele>
						<time>2025-12-07T13:51:20Z</time>
					</trkpt>
					<trkpt lat="49.872470" lon="4.930540">
						<ele>186</ele>
						<time>2025-12-07T13:51:23Z</time>
					</trkpt>
					<trkpt lat="49.872430" lon="4.930700">
						<ele>186</ele>
						<time>2025-12-07T13:51:28Z</time>
					</trkpt>
					<trkpt lat="49.872370" lon="4.930860">
						<ele>185</ele>
						<time>2025-12-07T13:51:34Z</time>
					</trkpt>
					<trkpt lat="49.872190" lon="4.931260">
						<ele>183</ele>
						<time>2025-12-07T13:51:50Z</time>
					</trkpt>
					<trkpt lat="49.872090" lon="4.931420">
						<ele>182</ele>
						<time>2025-12-07T13:51:57Z</time>
					</trkpt>
					<trkpt lat="49.872070" lon="4.931520">
						<ele>182</ele>
						<time>2025-12-07T13:52:01Z</time>
					</trkpt>
					<trkpt lat="49.871970" lon="4.931440">
						<ele>182</ele>
						<time>2025-12-07T13:52:06Z</time>
					</trkpt>
					<trkpt lat="49.871750" lon="4.931140">
						<ele>182</ele>
						<time>2025-12-07T13:52:21Z</time>
					</trkpt>
					<trkpt lat="49.871650" lon="4.931090">
						<ele>182</ele>
						<time>2025-12-07T13:52:26Z</time>
					</trkpt>
					<trkpt lat="49.871590" lon="4.931080">
						<ele>182</ele>
						<time>2025-12-07T13:52:29Z</time>
					</trkpt>
					<trkpt lat="49.870950" lon="4.931130">
						<ele>182</ele>
						<time>2025-12-07T13:53:01Z</time>
					</trkpt>
					<trkpt lat="49.870790" lon="4.931140">
						<ele>183</ele>
						<time>2025-12-07T13:53:09Z</time>
					</trkpt>
					<trkpt lat="49.870520" lon="4.931190">
						<ele>185</ele>
						<time>2025-12-07T13:53:23Z</time>
					</trkpt>
					<trkpt lat="49.870040" lon="4.931270">
						<ele>190</ele>
						<time>2025-12-07T13:53:47Z</time>
					</trkpt>
					<trkpt lat="49.869970" lon="4.931280">
						<ele>190</ele>
						<time>2025-12-07T13:53:51Z</time>
					</trkpt>
					<trkpt lat="49.869720" lon="4.931360">
						<ele>192</ele>
						<time>2025-12-07T13:54:03Z</time>
					</trkpt>
					<trkpt lat="49.869180" lon="4.931570">
						<ele>197</ele>
						<time>2025-12-07T13:54:31Z</time>
					</trkpt>
					<trkpt lat="49.869190" lon="4.931420">
						<ele>197</ele>
						<time>2025-12-07T13:54:36Z</time>
					</trkpt>
					<trkpt lat="49.869350" lon="4.930880">
						<ele>195</ele>
						<time>2025-12-07T13:54:55Z</time>
					</trkpt>
					<trkpt lat="49.869400" lon="4.930680">
						<ele>195</ele>
						<time>2025-12-07T13:55:02Z</time>
					</trkpt>
					<trkpt lat="49.869390" lon="4.930600">
						<ele>196</ele>
						<time>2025-12-07T13:55:05Z</time>
					</trkpt>
					<trkpt lat="49.869290" lon="4.930510">
						<ele>197</ele>
						<time>2025-12-07T13:55:11Z</time>
					</trkpt>
					<trkpt lat="49.869200" lon="4.930440">
						<ele>198</ele>
						<time>2025-12-07T13:55:16Z</time>
					</trkpt>
					<trkpt lat="49.869070" lon="4.930320">
						<ele>200</ele>
						<time>2025-12-07T13:55:23Z</time>
					</trkpt>
					<trkpt lat="49.868960" lon="4.930170">
						<ele>201</ele>
						<time>2025-12-07T13:55:31Z</time>
					</trkpt>
					<trkpt lat="49.868800" lon="4.929920">
						<ele>203</ele>
						<time>2025-12-07T13:55:42Z</time>
					</trkpt>
					<trkpt lat="49.869060" lon="4.929660">
						<ele>203</ele>
						<time>2025-12-07T13:55:57Z</time>
					</trkpt>
					<trkpt lat="49.869220" lon="4.929520">
						<ele>203</ele>
						<time>2025-12-07T13:56:07Z</time>
					</trkpt>
					<trkpt lat="49.869350" lon="4.929380">
						<ele>202</ele>
						<time>2025-12-07T13:56:15Z</time>
					</trkpt>
					<trkpt lat="49.869610" lon="4.928860">
						<ele>201</ele>
						<time>2025-12-07T13:56:36Z</time>
					</trkpt>
					<trkpt lat="49.869680" lon="4.928500">
						<ele>202</ele>
						<time>2025-12-07T13:56:48Z</time>
					</trkpt>
					<trkpt lat="49.869710" lon="4.928400">
						<ele>202</ele>
						<time>2025-12-07T13:56:51Z</time>
					</trkpt>
					<trkpt lat="49.869750" lon="4.928380">
						<ele>201</ele>
						<time>2025-12-07T13:56:54Z</time>
					</trkpt>
					<trkpt lat="49.869950" lon="4.928490">
						<ele>199</ele>
						<time>2025-12-07T13:57:04Z</time>
					</trkpt>
					<trkpt lat="49.869980" lon="4.928470">
						<ele>199</ele>
						<time>2025-12-07T13:57:06Z</time>
					</trkpt>
					<trkpt lat="49.870000" lon="4.928420">
						<ele>199</ele>
						<time>2025-12-07T13:57:08Z</time>
					</trkpt>
					<trkpt lat="49.870130" lon="4.928270">
						<ele>198</ele>
						<time>2025-12-07T13:57:16Z</time>
					</trkpt>
					<trkpt lat="49.870180" lon="4.928080">
						<ele>198</ele>
						<time>2025-12-07T13:57:22Z</time>
					</trkpt>
					<trkpt lat="49.870330" lon="4.926830">
						<ele>206</ele>
						<time>2025-12-07T13:58:03Z</time>
					</trkpt>
					<trkpt lat="49.870370" lon="4.926700">
						<ele>207</ele>
						<time>2025-12-07T13:58:08Z</time>
					</trkpt>
					<trkpt lat="49.870410" lon="4.926640">
						<ele>207</ele>
						<time>2025-12-07T13:58:11Z</time>
					</trkpt>
					<trkpt lat="49.870200" lon="4.926580">
						<ele>213</ele>
						<time>2025-12-07T13:58:22Z</time>
					</trkpt>
					<trkpt lat="49.869900" lon="4.926590">
						<ele>219</ele>
						<time>2025-12-07T13:58:37Z</time>
					</trkpt>
					<trkpt lat="49.869660" lon="4.926740">
						<ele>222</ele>
						<time>2025-12-07T13:58:50Z</time>
					</trkpt>
					<trkpt lat="49.869270" lon="4.926990">
						<ele>225</ele>
						<time>2025-12-07T13:59:11Z</time>
					</trkpt>
					<trkpt lat="49.869090" lon="4.927000">
						<ele>227</ele>
						<time>2025-12-07T13:59:20Z</time>
					</trkpt>
					<trkpt lat="49.868750" lon="4.926860">
						<ele>232</ele>
						<time>2025-12-07T13:59:37Z</time>
					</trkpt>
					<trkpt lat="49.868500" lon="4.926840">
						<ele>234</ele>
						<time>2025-12-07T13:59:50Z</time>
					</trkpt>
					<trkpt lat="49.868210" lon="4.926710">
						<ele>238</ele>
						<time>2025-12-07T14:00:05Z</time>
					</trkpt>
					<trkpt lat="49.868010" lon="4.926710">
						<ele>240</ele>
						<time>2025-12-07T14:00:15Z</time>
					</trkpt>
					<trkpt lat="49.867720" lon="4.926800">
						<ele>240</ele>
						<time>2025-12-07T14:00:30Z</time>
					</trkpt>
					<trkpt lat="49.867010" lon="4.927410">
						<ele>237</ele>
						<time>2025-12-07T14:01:10Z</time>
					</trkpt>
					<trkpt lat="49.866730" lon="4.927550">
						<ele>238</ele>
						<time>2025-12-07T14:01:25Z</time>
					</trkpt>
					<trkpt lat="49.866300" lon="4.927670">
						<ele>241</ele>
						<time>2025-12-07T14:01:47Z</time>
					</trkpt>
					<trkpt lat="49.865770" lon="4.927760">
						<ele>245</ele>
						<time>2025-12-07T14:02:14Z</time>
					</trkpt>
					<trkpt lat="49.865510" lon="4.927810">
						<ele>244</ele>
						<time>2025-12-07T14:02:27Z</time>
					</trkpt>
					<trkpt lat="49.865430" lon="4.927790">
						<ele>245</ele>
						<time>2025-12-07T14:02:31Z</time>
					</trkpt>
					<trkpt lat="49.866010" lon="4.927560">
						<ele>247</ele>
						<time>2025-12-07T14:03:01Z</time>
					</trkpt>
					<trkpt lat="49.866220" lon="4.927450">
						<ele>247</ele>
						<time>2025-12-07T14:03:12Z</time>
					</trkpt>
					<trkpt lat="49.866530" lon="4.927170">
						<ele>250</ele>
						<time>2025-12-07T14:03:30Z</time>
					</trkpt>
					<trkpt lat="49.866930" lon="4.926960">
						<ele>249</ele>
						<time>2025-12-07T14:03:51Z</time>
					</trkpt>
					<trkpt lat="49.867000" lon="4.926810">
						<ele>251</ele>
						<time>2025-12-07T14:03:57Z</time>
					</trkpt>
					<trkpt lat="49.867270" lon="4.926360">
						<ele>254</ele>
						<time>2025-12-07T14:04:17Z</time>
					</trkpt>
					<trkpt lat="49.867650" lon="4.926100">
						<ele>253</ele>
						<time>2025-12-07T14:04:37Z</time>
					</trkpt>
					<trkpt lat="49.867830" lon="4.925760">
						<ele>255</ele>
						<time>2025-12-07T14:04:52Z</time>
					</trkpt>
					<trkpt lat="49.867820" lon="4.925660">
						<ele>255</ele>
						<time>2025-12-07T14:04:55Z</time>
					</trkpt>
					<trkpt lat="49.867640" lon="4.925560">
						<ele>257</ele>
						<time>2025-12-07T14:05:04Z</time>
					</trkpt>
					<trkpt lat="49.867450" lon="4.925520">
						<ele>259</ele>
						<time>2025-12-07T14:05:14Z</time>
					</trkpt>
					<trkpt lat="49.867320" lon="4.925530">
						<ele>262</ele>
						<time>2025-12-07T14:05:21Z</time>
					</trkpt>
					<trkpt lat="49.867200" lon="4.925560">
						<ele>264</ele>
						<time>2025-12-07T14:05:27Z</time>
					</trkpt>
					<trkpt lat="49.867110" lon="4.925650">
						<ele>267</ele>
						<time>2025-12-07T14:05:32Z</time>
					</trkpt>
					<trkpt lat="49.866900" lon="4.925760">
						<ele>272</ele>
						<time>2025-12-07T14:05:43Z</time>
					</trkpt>
					<trkpt lat="49.866700" lon="4.925840">
						<ele>276</ele>
						<time>2025-12-07T14:05:53Z</time>
					</trkpt>
					<trkpt lat="49.866460" lon="4.926090">
						<ele>274</ele>
						<time>2025-12-07T14:06:08Z</time>
					</trkpt>
					<trkpt lat="49.866320" lon="4.926340">
						<ele>271</ele>
						<time>2025-12-07T14:06:19Z</time>
					</trkpt>
					<trkpt lat="49.865860" lon="4.926400">
						<ele>276</ele>
						<time>2025-12-07T14:06:42Z</time>
					</trkpt>
					<trkpt lat="49.865720" lon="4.926460">
						<ele>276</ele>
						<time>2025-12-07T14:06:49Z</time>
					</trkpt>
					<trkpt lat="49.865530" lon="4.926560">
						<ele>276</ele>
						<time>2025-12-07T14:06:59Z</time>
					</trkpt>
					<trkpt lat="49.865300" lon="4.926730">
						<ele>274</ele>
						<time>2025-12-07T14:07:12Z</time>
					</trkpt>
					<trkpt lat="49.865140" lon="4.926590">
						<ele>276</ele>
						<time>2025-12-07T14:07:21Z</time>
					</trkpt>
					<trkpt lat="49.865070" lon="4.926550">
						<ele>277</ele>
						<time>2025-12-07T14:07:25Z</time>
					</trkpt>
					<trkpt lat="49.864720" lon="4.926570">
						<ele>275</ele>
						<time>2025-12-07T14:07:42Z</time>
					</trkpt>
					<trkpt lat="49.864330" lon="4.926450">
						<ele>274</ele>
						<time>2025-12-07T14:08:02Z</time>
					</trkpt>
					<trkpt lat="49.864160" lon="4.926530">
						<ele>273</ele>
						<time>2025-12-07T14:08:11Z</time>
					</trkpt>
					<trkpt lat="49.863720" lon="4.926460">
						<ele>270</ele>
						<time>2025-12-07T14:08:33Z</time>
					</trkpt>
					<trkpt lat="49.863100" lon="4.926260">
						<ele>269</ele>
						<time>2025-12-07T14:09:05Z</time>
					</trkpt>
					<trkpt lat="49.862810" lon="4.926330">
						<ele>269</ele>
						<time>2025-12-07T14:09:20Z</time>
					</trkpt>
					<trkpt lat="49.862730" lon="4.926220">
						<ele>270</ele>
						<time>2025-12-07T14:09:25Z</time>
					</trkpt>
					<trkpt lat="49.862320" lon="4.925300">
						<ele>269</ele>
						<time>2025-12-07T14:10:01Z</time>
					</trkpt>
					<trkpt lat="49.862220" lon="4.924990">
						<ele>266</ele>
						<time>2025-12-07T14:10:12Z</time>
					</trkpt>
					<trkpt lat="49.862180" lon="4.924860">
						<ele>264</ele>
						<time>2025-12-07T14:10:17Z</time>
					</trkpt>
					<trkpt lat="49.862010" lon="4.924580">
						<ele>258</ele>
						<time>2025-12-07T14:10:29Z</time>
					</trkpt>
					<trkpt lat="49.861960" lon="4.924560">
						<ele>258</ele>
						<time>2025-12-07T14:10:32Z</time>
					</trkpt>
					<trkpt lat="49.861640" lon="4.924510">
						<ele>254</ele>
						<time>2025-12-07T14:10:48Z</time>
					</trkpt>
					<trkpt lat="49.861520" lon="4.924530">
						<ele>253</ele>
						<time>2025-12-07T14:10:54Z</time>
					</trkpt>
					<trkpt lat="49.861340" lon="4.924610">
						<ele>253</ele>
						<time>2025-12-07T14:11:03Z</time>
					</trkpt>
					<trkpt lat="49.861230" lon="4.924710">
						<ele>252</ele>
						<time>2025-12-07T14:11:10Z</time>
					</trkpt>
					<trkpt lat="49.861060" lon="4.924850">
						<ele>251</ele>
						<time>2025-12-07T14:11:19Z</time>
					</trkpt>
					<trkpt lat="49.860990" lon="4.924930">
						<ele>250</ele>
						<time>2025-12-07T14:11:24Z</time>
					</trkpt>
					<trkpt lat="49.860910" lon="4.925040">
						<ele>249</ele>
						<time>2025-12-07T14:11:29Z</time>
					</trkpt>
					<trkpt lat="49.860920" lon="4.924950">
						<ele>249</ele>
						<time>2025-12-07T14:11:32Z</time>
					</trkpt>
					<trkpt lat="49.860920" lon="4.924720">
						<ele>248</ele>
						<time>2025-12-07T14:11:39Z</time>
					</trkpt>
					<trkpt lat="49.860890" lon="4.924160">
						<ele>246</ele>
						<time>2025-12-07T14:11:57Z</time>
					</trkpt>
					<trkpt lat="49.860850" lon="4.923930">
						<ele>246</ele>
						<time>2025-12-07T14:12:05Z</time>
					</trkpt>
					<trkpt lat="49.860790" lon="4.923720">
						<ele>246</ele>
						<time>2025-12-07T14:12:13Z</time>
					</trkpt>
					<trkpt lat="49.860670" lon="4.923410">
						<ele>247</ele>
						<time>2025-12-07T14:12:24Z</time>
					</trkpt>
					<trkpt lat="49.860460" lon="4.922830">
						<ele>249</ele>
						<time>2025-12-07T14:12:46Z</time>
					</trkpt>
					<trkpt lat="49.860450" lon="4.922740">
						<ele>250</ele>
						<time>2025-12-07T14:12:49Z</time>
					</trkpt>
					<trkpt lat="49.860430" lon="4.922530">
						<ele>250</ele>
						<time>2025-12-07T14:12:56Z</time>
					</trkpt>
					<trkpt lat="49.860460" lon="4.921690">
						<ele>253</ele>
						<time>2025-12-07T14:13:23Z</time>
					</trkpt>
					<trkpt lat="49.860450" lon="4.921390">
						<ele>255</ele>
						<time>2025-12-07T14:13:32Z</time>
					</trkpt>
					<trkpt lat="49.860380" lon="4.920890">
						<ele>259</ele>
						<time>2025-12-07T14:13:49Z</time>
					</trkpt>
					<trkpt lat="49.860200" lon="4.920160">
						<ele>266</ele>
						<time>2025-12-07T14:14:14Z</time>
					</trkpt>
					<trkpt lat="49.860160" lon="4.920010">
						<ele>268</ele>
						<time>2025-12-07T14:14:19Z</time>
					</trkpt>
					<trkpt lat="49.860050" lon="4.919440">
						<ele>275</ele>
						<time>2025-12-07T14:14:38Z</time>
					</trkpt>
					<trkpt lat="49.859960" lon="4.919110">
						<ele>280</ele>
						<time>2025-12-07T14:14:50Z</time>
					</trkpt>
					<trkpt lat="49.859890" lon="4.918900">
						<ele>286</ele>
						<time>2025-12-07T14:14:58Z</time>
					</trkpt>
					<trkpt lat="49.859420" lon="4.918440">
						<ele>300</ele>
						<time>2025-12-07T14:15:25Z</time>
					</trkpt>
					<trkpt lat="49.859190" lon="4.918220">
						<ele>303</ele>
						<time>2025-12-07T14:15:39Z</time>
					</trkpt>
					<trkpt lat="49.859100" lon="4.918170">
						<ele>302</ele>
						<time>2025-12-07T14:15:44Z</time>
					</trkpt>
					<trkpt lat="49.858970" lon="4.918250">
						<ele>299</ele>
						<time>2025-12-07T14:15:51Z</time>
					</trkpt>
					<trkpt lat="49.858740" lon="4.918340">
						<ele>295</ele>
						<time>2025-12-07T14:16:03Z</time>
					</trkpt>
					<trkpt lat="49.858490" lon="4.918540">
						<ele>293</ele>
						<time>2025-12-07T14:16:17Z</time>
					</trkpt>
					<trkpt lat="49.858270" lon="4.918640">
						<ele>291</ele>
						<time>2025-12-07T14:16:28Z</time>
					</trkpt>
					<trkpt lat="49.858020" lon="4.918810">
						<ele>289</ele>
						<time>2025-12-07T14:16:42Z</time>
					</trkpt>
					<trkpt lat="49.857700" lon="4.918990">
						<ele>287</ele>
						<time>2025-12-07T14:16:59Z</time>
					</trkpt>
					<trkpt lat="49.857290" lon="4.919110">
						<ele>283</ele>
						<time>2025-12-07T14:17:20Z</time>
					</trkpt>
					<trkpt lat="49.857150" lon="4.919140">
						<ele>282</ele>
						<time>2025-12-07T14:17:27Z</time>
					</trkpt>
					<trkpt lat="49.856400" lon="4.919140">
						<ele>274</ele>
						<time>2025-12-07T14:18:04Z</time>
					</trkpt>
					<trkpt lat="49.856140" lon="4.919150">
						<ele>273</ele>
						<time>2025-12-07T14:18:17Z</time>
					</trkpt>
					<trkpt lat="49.855910" lon="4.919190">
						<ele>273</ele>
						<time>2025-12-07T14:18:29Z</time>
					</trkpt>
					<trkpt lat="49.855660" lon="4.919170">
						<ele>271</ele>
						<time>2025-12-07T14:18:42Z</time>
					</trkpt>
					<trkpt lat="49.855280" lon="4.919170">
						<ele>270</ele>
						<time>2025-12-07T14:19:01Z</time>
					</trkpt>
					<trkpt lat="49.854760" lon="4.919190">
						<ele>268</ele>
						<time>2025-12-07T14:19:27Z</time>
					</trkpt>
					<trkpt lat="49.854420" lon="4.919230">
						<ele>266</ele>
						<time>2025-12-07T14:19:44Z</time>
					</trkpt>
					<trkpt lat="49.853980" lon="4.919240">
						<ele>262</ele>
						<time>2025-12-07T14:20:06Z</time>
					</trkpt>
					<trkpt lat="49.853660" lon="4.919240">
						<ele>259</ele>
						<time>2025-12-07T14:20:22Z</time>
					</trkpt>
					<trkpt lat="49.853400" lon="4.919200">
						<ele>255</ele>
						<time>2025-12-07T14:20:35Z</time>
					</trkpt>
					<trkpt lat="49.853260" lon="4.919230">
						<ele>254</ele>
						<time>2025-12-07T14:20:42Z</time>
					</trkpt>
					<trkpt lat="49.853160" lon="4.919290">
						<ele>254</ele>
						<time>2025-12-07T14:20:47Z</time>
					</trkpt>
					<trkpt lat="49.852820" lon="4.919630">
						<ele>254</ele>
						<time>2025-12-07T14:21:07Z</time>
					</trkpt>
					<trkpt lat="49.852710" lon="4.919770">
						<ele>254</ele>
						<time>2025-12-07T14:21:15Z</time>
					</trkpt>
					<trkpt lat="49.852510" lon="4.920120">
						<ele>252</ele>
						<time>2025-12-07T14:21:30Z</time>
					</trkpt>
					<trkpt lat="49.852390" lon="4.920320">
						<ele>255</ele>
						<time>2025-12-07T14:21:38Z</time>
					</trkpt>
					<trkpt lat="49.852340" lon="4.920440">
						<ele>256</ele>
						<time>2025-12-07T14:21:43Z</time>
					</trkpt>
					<trkpt lat="49.852300" lon="4.920570">
						<ele>257</ele>
						<time>2025-12-07T14:21:48Z</time>
					</trkpt>
					<trkpt lat="49.852090" lon="4.921160">
						<ele>259</ele>
						<time>2025-12-07T14:22:09Z</time>
					</trkpt>
					<trkpt lat="49.852040" lon="4.921420">
						<ele>259</ele>
						<time>2025-12-07T14:22:18Z</time>
					</trkpt>
					<trkpt lat="49.851990" lon="4.921920">
						<ele>264</ele>
						<time>2025-12-07T14:22:35Z</time>
					</trkpt>
					<trkpt lat="49.851890" lon="4.922200">
						<ele>265</ele>
						<time>2025-12-07T14:22:45Z</time>
					</trkpt>
					<trkpt lat="49.851760" lon="4.922520">
						<ele>266</ele>
						<time>2025-12-07T14:22:57Z</time>
					</trkpt>
					<trkpt lat="49.851670" lon="4.922590">
						<ele>265</ele>
						<time>2025-12-07T14:23:02Z</time>
					</trkpt>
					<trkpt lat="49.851580" lon="4.922650">
						<ele>266</ele>
						<time>2025-12-07T14:23:07Z</time>
					</trkpt>
					<trkpt lat="49.851320" lon="4.922690">
						<ele>267</ele>
						<time>2025-12-07T14:23:20Z</time>
					</trkpt>
					<trkpt lat="49.851140" lon="4.922610">
						<ele>265</ele>
						<time>2025-12-07T14:23:29Z</time>
					</trkpt>
					<trkpt lat="49.850900" lon="4.922430">
						<ele>260</ele>
						<time>2025-12-07T14:23:43Z</time>
					</trkpt>
					<trkpt lat="49.850690" lon="4.922260">
						<ele>260</ele>
						<time>2025-12-07T14:23:55Z</time>
					</trkpt>
					<trkpt lat="49.850200" lon="4.921680">
						<ele>256</ele>
						<time>2025-12-07T14:24:25Z</time>
					</trkpt>
					<trkpt lat="49.850030" lon="4.921540">
						<ele>257</ele>
						<time>2025-12-07T14:24:35Z</time>
					</trkpt>
					<trkpt lat="49.849930" lon="4.921450">
						<ele>258</ele>
						<time>2025-12-07T14:24:41Z</time>
					</trkpt>
					<trkpt lat="49.849810" lon="4.921180">
						<ele>257</ele>
						<time>2025-12-07T14:24:51Z</time>
					</trkpt>
					<trkpt lat="49.849790" lon="4.921080">
						<ele>256</ele>
						<time>2025-12-07T14:24:55Z</time>
					</trkpt>
					<trkpt lat="49.849760" lon="4.920960">
						<ele>255</ele>
						<time>2025-12-07T14:24:59Z</time>
					</trkpt>
					<trkpt lat="49.849790" lon="4.920790">
						<ele>254</ele>
						<time>2025-12-07T14:25:05Z</time>
					</trkpt>
					<trkpt lat="49.849790" lon="4.920790">
						<ele>254</ele>
						<time>2025-12-07T14:25:05Z</time>
					</trkpt>
					<trkpt lat="49.849800" lon="4.920740">
						<ele>255</ele>
						<time>2025-12-07T14:25:06Z</time>
					</trkpt>
					<trkpt lat="49.849780" lon="4.920660">
						<ele>257</ele>
						<time>2025-12-07T14:25:09Z</time>
					</trkpt>
					<trkpt lat="49.849730" lon="4.920580">
						<ele>258</ele>
						<time>2025-12-07T14:25:13Z</time>
					</trkpt>
					<trkpt lat="49.849600" lon="4.920280">
						<ele>261</ele>
						<time>2025-12-07T14:25:24Z</time>
					</trkpt>
					<trkpt lat="49.849430" lon="4.919980">
						<ele>262</ele>
						<time>2025-12-07T14:25:37Z</time>
					</trkpt>
					<trkpt lat="49.849290" lon="4.919810">
						<ele>264</ele>
						<time>2025-12-07T14:25:46Z</time>
					</trkpt>
					<trkpt lat="49.849120" lon="4.919680">
						<ele>266</ele>
						<time>2025-12-07T14:25:56Z</time>
					</trkpt>
					<trkpt lat="49.849100" lon="4.919660">
						<ele>266</ele>
						<time>2025-12-07T14:25:57Z</time>
					</trkpt>
					<trkpt lat="49.848930" lon="4.919620">
						<ele>268</ele>
						<time>2025-12-07T14:26:05Z</time>
					</trkpt>
					<trkpt lat="49.848660" lon="4.919650">
						<ele>269</ele>
						<time>2025-12-07T14:26:19Z</time>
					</trkpt>
					<trkpt lat="49.848390" lon="4.919770">
						<ele>269</ele>
						<time>2025-12-07T14:26:33Z</time>
					</trkpt>
					<trkpt lat="49.848290" lon="4.919880">
						<ele>268</ele>
						<time>2025-12-07T14:26:39Z</time>
					</trkpt>
					<trkpt lat="49.848180" lon="4.920140">
						<ele>266</ele>
						<time>2025-12-07T14:26:49Z</time>
					</trkpt>
					<trkpt lat="49.848110" lon="4.920290">
						<ele>265</ele>
						<time>2025-12-07T14:26:55Z</time>
					</trkpt>
					<trkpt lat="49.848010" lon="4.920380">
						<ele>265</ele>
						<time>2025-12-07T14:27:01Z</time>
					</trkpt>
					<trkpt lat="49.847970" lon="4.920510">
						<ele>263</ele>
						<time>2025-12-07T14:27:06Z</time>
					</trkpt>
					<trkpt lat="49.847930" lon="4.920550">
						<ele>263</ele>
						<time>2025-12-07T14:27:08Z</time>
					</trkpt>
					<trkpt lat="49.847900" lon="4.920550">
						<ele>264</ele>
						<time>2025-12-07T14:27:10Z</time>
					</trkpt>
					<trkpt lat="49.847820" lon="4.920500">
						<ele>266</ele>
						<time>2025-12-07T14:27:14Z</time>
					</trkpt>
					<trkpt lat="49.847610" lon="4.920310">
						<ele>272</ele>
						<time>2025-12-07T14:27:26Z</time>
					</trkpt>
					<trkpt lat="49.847790" lon="4.919910">
						<ele>277</ele>
						<time>2025-12-07T14:27:42Z</time>
					</trkpt>
					<trkpt lat="49.847820" lon="4.919760">
						<ele>278</ele>
						<time>2025-12-07T14:27:47Z</time>
					</trkpt>
					<trkpt lat="49.847820" lon="4.919730">
						<ele>279</ele>
						<time>2025-12-07T14:27:48Z</time>
					</trkpt>
					<trkpt lat="49.847820" lon="4.919600">
						<ele>281</ele>
						<time>2025-12-07T14:27:52Z</time>
					</trkpt>
					<trkpt lat="49.847780" lon="4.919370">
						<ele>285</ele>
						<time>2025-12-07T14:28:00Z</time>
					</trkpt>
					<trkpt lat="49.847880" lon="4.918960">
						<ele>290</ele>
						<time>2025-12-07T14:28:14Z</time>
					</trkpt>
					<trkpt lat="49.848200" lon="4.918050">
						<ele>298</ele>
						<time>2025-12-07T14:28:47Z</time>
					</trkpt>
					<trkpt lat="49.848300" lon="4.917640">
						<ele>302</ele>
						<time>2025-12-07T14:29:01Z</time>
					</trkpt>
					<trkpt lat="49.848850" lon="4.916520">
						<ele>323</ele>
						<time>2025-12-07T14:29:47Z</time>
					</trkpt>
					<trkpt lat="49.849050" lon="4.916240">
						<ele>326</ele>
						<time>2025-12-07T14:30:00Z</time>
					</trkpt>
					<trkpt lat="49.849140" lon="4.916130">
						<ele>327</ele>
						<time>2025-12-07T14:30:06Z</time>
					</trkpt>
					<trkpt lat="49.849300" lon="4.916020">
						<ele>330</ele>
						<time>2025-12-07T14:30:15Z</time>
					</trkpt>
					<trkpt lat="49.849430" lon="4.915990">
						<ele>331</ele>
						<time>2025-12-07T14:30:21Z</time>
					</trkpt>
					<trkpt lat="49.849550" lon="4.916070">
						<ele>332</ele>
						<time>2025-12-07T14:30:28Z</time>
					</trkpt>
					<trkpt lat="49.849810" lon="4.916380">
						<ele>335</ele>
						<time>2025-12-07T14:30:44Z</time>
					</trkpt>
					<trkpt lat="49.849910" lon="4.916460">
						<ele>337</ele>
						<time>2025-12-07T14:30:50Z</time>
					</trkpt>
					<trkpt lat="49.850060" lon="4.916540">
						<ele>339</ele>
						<time>2025-12-07T14:30:58Z</time>
					</trkpt>
					<trkpt lat="49.850180" lon="4.916490">
						<ele>338</ele>
						<time>2025-12-07T14:31:04Z</time>
					</trkpt>
					<trkpt lat="49.850280" lon="4.916330">
						<ele>338</ele>
						<time>2025-12-07T14:31:11Z</time>
					</trkpt>
					<trkpt lat="49.850360" lon="4.916040">
						<ele>338</ele>
						<time>2025-12-07T14:31:21Z</time>
					</trkpt>
					<trkpt lat="49.850380" lon="4.915790">
						<ele>338</ele>
						<time>2025-12-07T14:31:30Z</time>
					</trkpt>
					<trkpt lat="49.850370" lon="4.915540">
						<ele>340</ele>
						<time>2025-12-07T14:31:38Z</time>
					</trkpt>
					<trkpt lat="49.850410" lon="4.915310">
						<ele>342</ele>
						<time>2025-12-07T14:31:45Z</time>
					</trkpt>
					<trkpt lat="49.850410" lon="4.915060">
						<ele>344</ele>
						<time>2025-12-07T14:31:53Z</time>
					</trkpt>
					<trkpt lat="49.850340" lon="4.914470">
						<ele>350</ele>
						<time>2025-12-07T14:32:13Z</time>
					</trkpt>
					<trkpt lat="49.850260" lon="4.913910">
						<ele>356</ele>
						<time>2025-12-07T14:32:31Z</time>
					</trkpt>
					<trkpt lat="49.850160" lon="4.913470">
						<ele>361</ele>
						<time>2025-12-07T14:32:46Z</time>
					</trkpt>
					<trkpt lat="49.850110" lon="4.913240">
						<ele>364</ele>
						<time>2025-12-07T14:32:54Z</time>
					</trkpt>
					<trkpt lat="49.850060" lon="4.913110">
						<ele>365</ele>
						<time>2025-12-07T14:32:59Z</time>
					</trkpt>
					<trkpt lat="49.849950" lon="4.912620">
						<ele>369</ele>
						<time>2025-12-07T14:33:16Z</time>
					</trkpt>
					<trkpt lat="49.849830" lon="4.912080">
						<ele>372</ele>
						<time>2025-12-07T14:33:34Z</time>
					</trkpt>
					<trkpt lat="49.849940" lon="4.911660">
						<ele>376</ele>
						<time>2025-12-07T14:33:49Z</time>
					</trkpt>
					<trkpt lat="49.849890" lon="4.911290">
						<ele>378</ele>
						<time>2025-12-07T14:34:01Z</time>
					</trkpt>
					<trkpt lat="49.849780" lon="4.910890">
						<ele>379</ele>
						<time>2025-12-07T14:34:15Z</time>
					</trkpt>
					<trkpt lat="49.849510" lon="4.910290">
						<ele>379</ele>
						<time>2025-12-07T14:34:39Z</time>
					</trkpt>
					<trkpt lat="49.848930" lon="4.909260">
						<ele>375</ele>
						<time>2025-12-07T14:35:23Z</time>
					</trkpt>
					<trkpt lat="49.848850" lon="4.908980">
						<ele>375</ele>
						<time>2025-12-07T14:35:33Z</time>
					</trkpt>
					<trkpt lat="49.848730" lon="4.908340">
						<ele>377</ele>
						<time>2025-12-07T14:35:54Z</time>
					</trkpt>
					<trkpt lat="49.848500" lon="4.907690">
						<ele>374</ele>
						<time>2025-12-07T14:36:18Z</time>
					</trkpt>
					<trkpt lat="49.848310" lon="4.907180">
						<ele>373</ele>
						<time>2025-12-07T14:36:37Z</time>
					</trkpt>
					<trkpt lat="49.848070" lon="4.906650">
						<ele>376</ele>
						<time>2025-12-07T14:36:58Z</time>
					</trkpt>
					<trkpt lat="49.848010" lon="4.906500">
						<ele>376</ele>
						<time>2025-12-07T14:37:04Z</time>
					</trkpt>
					<trkpt lat="49.847720" lon="4.905920">
						<ele>377</ele>
						<time>2025-12-07T14:37:27Z</time>
					</trkpt>
					<trkpt lat="49.847640" lon="4.905770">
						<ele>377</ele>
						<time>2025-12-07T14:37:34Z</time>
					</trkpt>
					<trkpt lat="49.847570" lon="4.905600">
						<ele>376</ele>
						<time>2025-12-07T14:37:40Z</time>
					</trkpt>
					<trkpt lat="49.847410" lon="4.904400">
						<ele>371</ele>
						<time>2025-12-07T14:38:20Z</time>
					</trkpt>
					<trkpt lat="49.847370" lon="4.903630">
						<ele>369</ele>
						<time>2025-12-07T14:38:45Z</time>
					</trkpt>
					<trkpt lat="49.847280" lon="4.902670">
						<ele>366</ele>
						<time>2025-12-07T14:39:16Z</time>
					</trkpt>
					<trkpt lat="49.847280" lon="4.902640">
						<ele>366</ele>
						<time>2025-12-07T14:39:17Z</time>
					</trkpt>
					<trkpt lat="49.847480" lon="4.902210">
						<ele>368</ele>
						<time>2025-12-07T14:39:34Z</time>
					</trkpt>
					<trkpt lat="49.848740" lon="4.900490">
						<ele>396</ele>
						<time>2025-12-07T14:40:58Z</time>
					</trkpt>
					<trkpt lat="49.849130" lon="4.899730">
						<ele>401</ele>
						<time>2025-12-07T14:41:29Z</time>
					</trkpt>
					<trkpt lat="49.848980" lon="4.899630">
						<ele>400</ele>
						<time>2025-12-07T14:41:38Z</time>
					</trkpt>
					<trkpt lat="49.849040" lon="4.899490">
						<ele>400</ele>
						<time>2025-12-07T14:41:43Z</time>
					</trkpt>
					<trkpt lat="49.849240" lon="4.899350">
						<ele>400</ele>
						<time>2025-12-07T14:41:54Z</time>
					</trkpt>
					<trkpt lat="49.849620" lon="4.898320">
						<ele>395</ele>
						<time>2025-12-07T14:42:32Z</time>
					</trkpt>
					<trkpt lat="49.849660" lon="4.897820">
						<ele>392</ele>
						<time>2025-12-07T14:42:49Z</time>
					</trkpt>
					<trkpt lat="49.849600" lon="4.897160">
						<ele>387</ele>
						<time>2025-12-07T14:43:10Z</time>
					</trkpt>
					<trkpt lat="49.849670" lon="4.896950">
						<ele>385</ele>
						<time>2025-12-07T14:43:18Z</time>
					</trkpt>
					<trkpt lat="49.849700" lon="4.896530">
						<ele>382</ele>
						<time>2025-12-07T14:43:31Z</time>
					</trkpt>
					<trkpt lat="49.849890" lon="4.896040">
						<ele>378</ele>
						<time>2025-12-07T14:43:50Z</time>
					</trkpt>
					<trkpt lat="49.850160" lon="4.895260">
						<ele>373</ele>
						<time>2025-12-07T14:44:18Z</time>
					</trkpt>
					<trkpt lat="49.850610" lon="4.894200">
						<ele>367</ele>
						<time>2025-12-07T14:44:59Z</time>
					</trkpt>
					<trkpt lat="49.850710" lon="4.894000">
						<ele>365</ele>
						<time>2025-12-07T14:45:07Z</time>
					</trkpt>
					<trkpt lat="49.850770" lon="4.893930">
						<ele>364</ele>
						<time>2025-12-07T14:45:11Z</time>
					</trkpt>
					<trkpt lat="49.850880" lon="4.893840">
						<ele>362</ele>
						<time>2025-12-07T14:45:17Z</time>
					</trkpt>
					<trkpt lat="49.851180" lon="4.893530">
						<ele>357</ele>
						<time>2025-12-07T14:45:35Z</time>
					</trkpt>
					<trkpt lat="49.851290" lon="4.893410">
						<ele>355</ele>
						<time>2025-12-07T14:45:42Z</time>
					</trkpt>
					<trkpt lat="49.851400" lon="4.893250">
						<ele>351</ele>
						<time>2025-12-07T14:45:50Z</time>
					</trkpt>
					<trkpt lat="49.851480" lon="4.893060">
						<ele>348</ele>
						<time>2025-12-07T14:45:57Z</time>
					</trkpt>
					<trkpt lat="49.851580" lon="4.892950">
						<ele>344</ele>
						<time>2025-12-07T14:46:03Z</time>
					</trkpt>
					<trkpt lat="49.851810" lon="4.892740">
						<ele>339</ele>
						<time>2025-12-07T14:46:17Z</time>
					</trkpt>
					<trkpt lat="49.852220" lon="4.892310">
						<ele>329</ele>
						<time>2025-12-07T14:46:41Z</time>
					</trkpt>
					<trkpt lat="49.852580" lon="4.892000">
						<ele>318</ele>
						<time>2025-12-07T14:47:02Z</time>
					</trkpt>
					<trkpt lat="49.852630" lon="4.891960">
						<ele>317</ele>
						<time>2025-12-07T14:47:05Z</time>
					</trkpt>
					<trkpt lat="49.852970" lon="4.891500">
						<ele>306</ele>
						<time>2025-12-07T14:47:27Z</time>
					</trkpt>
					<trkpt lat="49.853140" lon="4.891290">
						<ele>300</ele>
						<time>2025-12-07T14:47:38Z</time>
					</trkpt>
					<trkpt lat="49.853480" lon="4.890790">
						<ele>286</ele>
						<time>2025-12-07T14:48:02Z</time>
					</trkpt>
					<trkpt lat="49.853610" lon="4.890510">
						<ele>284</ele>
						<time>2025-12-07T14:48:13Z</time>
					</trkpt>
					<trkpt lat="49.854040" lon="4.889760">
						<ele>277</ele>
						<time>2025-12-07T14:48:45Z</time>
					</trkpt>
					<trkpt lat="49.854340" lon="4.889080">
						<ele>268</ele>
						<time>2025-12-07T14:49:12Z</time>
					</trkpt>
					<trkpt lat="49.854410" lon="4.888950">
						<ele>267</ele>
						<time>2025-12-07T14:49:17Z</time>
					</trkpt>
					<trkpt lat="49.854630" lon="4.888660">
						<ele>263</ele>
						<time>2025-12-07T14:49:32Z</time>
					</trkpt>
					<trkpt lat="49.855010" lon="4.888550">
						<ele>263</ele>
						<time>2025-12-07T14:49:51Z</time>
					</trkpt>
					<trkpt lat="49.855340" lon="4.888380">
						<ele>267</ele>
						<time>2025-12-07T14:50:08Z</time>
					</trkpt>
					<trkpt lat="49.855490" lon="4.888200">
						<ele>267</ele>
						<time>2025-12-07T14:50:18Z</time>
					</trkpt>
					<trkpt lat="49.855720" lon="4.887980">
						<ele>266</ele>
						<time>2025-12-07T14:50:31Z</time>
					</trkpt>
					<trkpt lat="49.856030" lon="4.887810">
						<ele>266</ele>
						<time>2025-12-07T14:50:48Z</time>
					</trkpt>
					<trkpt lat="49.856200" lon="4.887810">
						<ele>269</ele>
						<time>2025-12-07T14:50:56Z</time>
					</trkpt>
					<trkpt lat="49.856410" lon="4.887840">
						<ele>273</ele>
						<time>2025-12-07T14:51:07Z</time>
					</trkpt>
					<trkpt lat="49.856650" lon="4.887970">
						<ele>280</ele>
						<time>2025-12-07T14:51:20Z</time>
					</trkpt>
					<trkpt lat="49.856740" lon="4.888030">
						<ele>282</ele>
						<time>2025-12-07T14:51:25Z</time>
					</trkpt>
					<trkpt lat="49.856980" lon="4.888220">
						<ele>286</ele>
						<time>2025-12-07T14:51:38Z</time>
					</trkpt>
					<trkpt lat="49.857710" lon="4.888730">
						<ele>296</ele>
						<time>2025-12-07T14:52:18Z</time>
					</trkpt>
					<trkpt lat="49.858160" lon="4.888880">
						<ele>297</ele>
						<time>2025-12-07T14:52:41Z</time>
					</trkpt>
					<trkpt lat="49.858630" lon="4.889140">
						<ele>297</ele>
						<time>2025-12-07T14:53:06Z</time>
					</trkpt>
					<trkpt lat="49.859230" lon="4.889850">
						<ele>308</ele>
						<time>2025-12-07T14:53:44Z</time>
					</trkpt>
					<trkpt lat="49.859340" lon="4.889960">
						<ele>310</ele>
						<time>2025-12-07T14:53:50Z</time>
					</trkpt>
					<trkpt lat="49.859930" lon="4.890480">
						<ele>319</ele>
						<time>2025-12-07T14:54:24Z</time>
					</trkpt>
					<trkpt lat="49.860060" lon="4.890600">
						<ele>322</ele>
						<time>2025-12-07T14:54:32Z</time>
					</trkpt>
					<trkpt lat="49.860390" lon="4.890870">
						<ele>328</ele>
						<time>2025-12-07T14:54:51Z</time>
					</trkpt>
					<trkpt lat="49.860570" lon="4.890970">
						<ele>328</ele>
						<time>2025-12-07T14:55:00Z</time>
					</trkpt>
					<trkpt lat="49.860770" lon="4.891050">
						<ele>328</ele>
						<time>2025-12-07T14:55:11Z</time>
					</trkpt>
					<trkpt lat="49.860910" lon="4.891100">
						<ele>330</ele>
						<time>2025-12-07T14:55:18Z</time>
					</trkpt>
					<trkpt lat="49.861220" lon="4.891150">
						<ele>333</ele>
						<time>2025-12-07T14:55:33Z</time>
					</trkpt>
					<trkpt lat="49.861340" lon="4.891140">
						<ele>333</ele>
						<time>2025-12-07T14:55:39Z</time>
					</trkpt>
					<trkpt lat="49.861510" lon="4.891070">
						<ele>333</ele>
						<time>2025-12-07T14:55:48Z</time>
					</trkpt>
					<trkpt lat="49.861730" lon="4.890900">
						<ele>333</ele>
						<time>2025-12-07T14:56:00Z</time>
					</trkpt>
					<trkpt lat="49.861920" lon="4.890780">
						<ele>332</ele>
						<time>2025-12-07T14:56:11Z</time>
					</trkpt>
					<trkpt lat="49.862330" lon="4.890490">
						<ele>331</ele>
						<time>2025-12-07T14:56:33Z</time>
					</trkpt>
					<trkpt lat="49.862380" lon="4.890480">
						<ele>331</ele>
						<time>2025-12-07T14:56:36Z</time>
					</trkpt>
					<trkpt lat="49.862490" lon="4.890500">
						<ele>333</ele>
						<time>2025-12-07T14:56:41Z</time>
					</trkpt>
					<trkpt lat="49.862530" lon="4.890130">
						<ele>325</ele>
						<time>2025-12-07T14:56:53Z</time>
					</trkpt>
					<trkpt lat="49.862520" lon="4.889960">
						<ele>323</ele>
						<time>2025-12-07T14:56:59Z</time>
					</trkpt>
					<trkpt lat="49.862530" lon="4.889810">
						<ele>319</ele>
						<time>2025-12-07T14:57:04Z</time>
					</trkpt>
					<trkpt lat="49.862560" lon="4.889760">
						<ele>317</ele>
						<time>2025-12-07T14:57:06Z</time>
					</trkpt>
					<trkpt lat="49.862590" lon="4.889650">
						<ele>314</ele>
						<time>2025-12-07T14:57:10Z</time>
					</trkpt>
					<trkpt lat="49.862570" lon="4.889390">
						<ele>310</ele>
						<time>2025-12-07T14:57:18Z</time>
					</trkpt>
					<trkpt lat="49.862530" lon="4.889260">
						<ele>309</ele>
						<time>2025-12-07T14:57:23Z</time>
					</trkpt>
					<trkpt lat="49.862560" lon="4.889170">
						<ele>306</ele>
						<time>2025-12-07T14:57:26Z</time>
					</trkpt>
					<trkpt lat="49.862640" lon="4.889120">
						<ele>301</ele>
						<time>2025-12-07T14:57:31Z</time>
					</trkpt>
					<trkpt lat="49.862710" lon="4.888910">
						<ele>292</ele>
						<time>2025-12-07T14:57:38Z</time>
					</trkpt>
					<trkpt lat="49.862720" lon="4.888650">
						<ele>284</ele>
						<time>2025-12-07T14:57:47Z</time>
					</trkpt>
					<trkpt lat="49.862690" lon="4.888590">
						<ele>283</ele>
						<time>2025-12-07T14:57:49Z</time>
					</trkpt>
					<trkpt lat="49.862730" lon="4.888480">
						<ele>279</ele>
						<time>2025-12-07T14:57:53Z</time>
					</trkpt>
					<trkpt lat="49.862700" lon="4.888340">
						<ele>276</ele>
						<time>2025-12-07T14:57:58Z</time>
					</trkpt>
					<trkpt lat="49.862780" lon="4.888260">
						<ele>270</ele>
						<time>2025-12-07T14:58:03Z</time>
					</trkpt>
					<trkpt lat="49.862780" lon="4.888210">
						<ele>269</ele>
						<time>2025-12-07T14:58:04Z</time>
					</trkpt>
					<trkpt lat="49.862730" lon="4.888140">
						<ele>268</ele>
						<time>2025-12-07T14:58:08Z</time>
					</trkpt>
					<trkpt lat="49.862770" lon="4.888110">
						<ele>266</ele>
						<time>2025-12-07T14:58:10Z</time>
					</trkpt>
					<trkpt lat="49.862770" lon="4.888030">
						<ele>263</ele>
						<time>2025-12-07T14:58:12Z</time>
					</trkpt>
					<trkpt lat="49.862680" lon="4.887840">
						<ele>260</ele>
						<time>2025-12-07T14:58:20Z</time>
					</trkpt>
					<trkpt lat="49.862670" lon="4.887770">
						<ele>258</ele>
						<time>2025-12-07T14:58:22Z</time>
					</trkpt>
					<trkpt lat="49.862710" lon="4.887710">
						<ele>255</ele>
						<time>2025-12-07T14:58:25Z</time>
					</trkpt>
					<trkpt lat="49.862760" lon="4.887710">
						<ele>253</ele>
						<time>2025-12-07T14:58:28Z</time>
					</trkpt>
					<trkpt lat="49.862790" lon="4.887740">
						<ele>253</ele>
						<time>2025-12-07T14:58:29Z</time>
					</trkpt>
					<trkpt lat="49.862830" lon="4.887720">
						<ele>252</ele>
						<time>2025-12-07T14:58:31Z</time>
					</trkpt>
					<trkpt lat="49.862880" lon="4.887550">
						<ele>245</ele>
						<time>2025-12-07T14:58:38Z</time>
					</trkpt>
					<trkpt lat="49.862950" lon="4.887550">
						<ele>243</ele>
						<time>2025-12-07T14:58:41Z</time>
					</trkpt>
					<trkpt lat="49.862960" lon="4.887480">
						<ele>241</ele>
						<time>2025-12-07T14:58:43Z</time>
					</trkpt>
					<trkpt lat="49.862920" lon="4.887400">
						<ele>239</ele>
						<time>2025-12-07T14:58:47Z</time>
					</trkpt>
					<trkpt lat="49.862910" lon="4.887350">
						<ele>238</ele>
						<time>2025-12-07T14:58:48Z</time>
					</trkpt>
					<trkpt lat="49.862850" lon="4.887320">
						<ele>238</ele>
						<time>2025-12-07T14:58:51Z</time>
					</trkpt>
					<trkpt lat="49.862790" lon="4.887200">
						<ele>235</ele>
						<time>2025-12-07T14:58:56Z</time>
					</trkpt>
					<trkpt lat="49.862800" lon="4.887110">
						<ele>232</ele>
						<time>2025-12-07T14:58:59Z</time>
					</trkpt>
					<trkpt lat="49.862870" lon="4.887040">
						<ele>228</ele>
						<time>2025-12-07T14:59:03Z</time>
					</trkpt>
					<trkpt lat="49.862900" lon="4.886860">
						<ele>221</ele>
						<time>2025-12-07T14:59:09Z</time>
					</trkpt>
					<trkpt lat="49.862550" lon="4.886670">
						<ele>221</ele>
						<time>2025-12-07T14:59:28Z</time>
					</trkpt>
					<trkpt lat="49.862440" lon="4.886640">
						<ele>220</ele>
						<time>2025-12-07T14:59:34Z</time>
					</trkpt>
					<trkpt lat="49.862090" lon="4.886620">
						<ele>216</ele>
						<time>2025-12-07T14:59:51Z</time>
					</trkpt>
					<trkpt lat="49.861800" lon="4.886560">
						<ele>211</ele>
						<time>2025-12-07T15:00:06Z</time>
					</trkpt>
					<trkpt lat="49.861710" lon="4.886560">
						<ele>210</ele>
						<time>2025-12-07T15:00:10Z</time>
					</trkpt>
					<trkpt lat="49.861540" lon="4.886600">
						<ele>209</ele>
						<time>2025-12-07T15:00:19Z</time>
					</trkpt>
					<trkpt lat="49.861290" lon="4.886710">
						<ele>210</ele>
						<time>2025-12-07T15:00:32Z</time>
					</trkpt>
					<trkpt lat="49.861040" lon="4.886750">
						<ele>208</ele>
						<time>2025-12-07T15:00:44Z</time>
					</trkpt>
					<trkpt lat="49.860970" lon="4.886740">
						<ele>207</ele>
						<time>2025-12-07T15:00:48Z</time>
					</trkpt>
					<trkpt lat="49.860800" lon="4.886790">
						<ele>207</ele>
						<time>2025-12-07T15:00:57Z</time>
					</trkpt>
					<trkpt lat="49.860680" lon="4.886790">
						<ele>208</ele>
						<time>2025-12-07T15:01:03Z</time>
					</trkpt>
					<trkpt lat="49.860850" lon="4.886640">
						<ele>204</ele>
						<time>2025-12-07T15:01:12Z</time>
					</trkpt>
					<trkpt lat="49.861240" lon="4.886240">
						<ele>204</ele>
						<time>2025-12-07T15:01:36Z</time>
					</trkpt>
					<trkpt lat="49.861500" lon="4.886030">
						<ele>198</ele>
						<time>2025-12-07T15:01:50Z</time>
					</trkpt>
					<trkpt lat="49.861180" lon="4.885400">
						<ele>207</ele>
						<time>2025-12-07T15:02:16Z</time>
					</trkpt>
					<trkpt lat="49.861230" lon="4.885310">
						<ele>206</ele>
						<time>2025-12-07T15:02:20Z</time>
					</trkpt>
					<trkpt lat="49.861310" lon="4.885140">
						<ele>205</ele>
						<time>2025-12-07T15:02:27Z</time>
					</trkpt>
					<trkpt lat="49.861370" lon="4.885060">
						<ele>203</ele>
						<time>2025-12-07T15:02:31Z</time>
					</trkpt>
					<trkpt lat="49.861450" lon="4.884920">
						<ele>201</ele>
						<time>2025-12-07T15:02:37Z</time>
					</trkpt>
					<trkpt lat="49.861490" lon="4.884800">
						<ele>200</ele>
						<time>2025-12-07T15:02:41Z</time>
					</trkpt>
					<trkpt lat="49.861500" lon="4.884640">
						<ele>202</ele>
						<time>2025-12-07T15:02:47Z</time>
					</trkpt>
					<trkpt lat="49.861510" lon="4.884000">
						<ele>209</ele>
						<time>2025-12-07T15:03:07Z</time>
					</trkpt>
					<trkpt lat="49.861480" lon="4.883730">
						<ele>212</ele>
						<time>2025-12-07T15:03:16Z</time>
					</trkpt>
					<trkpt lat="49.861370" lon="4.883190">
						<ele>219</ele>
						<time>2025-12-07T15:03:34Z</time>
					</trkpt>
					<trkpt lat="49.861250" lon="4.882710">
						<ele>226</ele>
						<time>2025-12-07T15:03:51Z</time>
					</trkpt>
					<trkpt lat="49.861200" lon="4.882400">
						<ele>230</ele>
						<time>2025-12-07T15:04:01Z</time>
					</trkpt>
					<trkpt lat="49.861070" lon="4.881960">
						<ele>235</ele>
						<time>2025-12-07T15:04:17Z</time>
					</trkpt>
					<trkpt lat="49.860960" lon="4.881660">
						<ele>237</ele>
						<time>2025-12-07T15:04:28Z</time>
					</trkpt>
					<trkpt lat="49.860910" lon="4.881440">
						<ele>238</ele>
						<time>2025-12-07T15:04:35Z</time>
					</trkpt>
					<trkpt lat="49.860910" lon="4.881150">
						<ele>240</ele>
						<time>2025-12-07T15:04:45Z</time>
					</trkpt>
					<trkpt lat="49.860860" lon="4.880680">
						<ele>243</ele>
						<time>2025-12-07T15:05:00Z</time>
					</trkpt>
					<trkpt lat="49.860790" lon="4.880440">
						<ele>248</ele>
						<time>2025-12-07T15:05:09Z</time>
					</trkpt>
					<trkpt lat="49.860760" lon="4.880260">
						<ele>251</ele>
						<time>2025-12-07T15:05:15Z</time>
					</trkpt>
					<trkpt lat="49.860760" lon="4.880080">
						<ele>254</ele>
						<time>2025-12-07T15:05:20Z</time>
					</trkpt>
					<trkpt lat="49.860830" lon="4.879900">
						<ele>254</ele>
						<time>2025-12-07T15:05:27Z</time>
					</trkpt>
					<trkpt lat="49.860830" lon="4.879810">
						<ele>256</ele>
						<time>2025-12-07T15:05:30Z</time>
					</trkpt>
					<trkpt lat="49.860770" lon="4.879520">
						<ele>265</ele>
						<time>2025-12-07T15:05:40Z</time>
					</trkpt>
					<trkpt lat="49.860660" lon="4.879300">
						<ele>272</ele>
						<time>2025-12-07T15:05:49Z</time>
					</trkpt>
					<trkpt lat="49.860580" lon="4.879050">
						<ele>278</ele>
						<time>2025-12-07T15:05:58Z</time>
					</trkpt>
					<trkpt lat="49.860480" lon="4.878680">
						<ele>286</ele>
						<time>2025-12-07T15:06:11Z</time>
					</trkpt>
					<trkpt lat="49.860460" lon="4.878380">
						<ele>291</ele>
						<time>2025-12-07T15:06:21Z</time>
					</trkpt>
					<trkpt lat="49.860450" lon="4.877330">
						<ele>304</ele>
						<time>2025-12-07T15:06:55Z</time>
					</trkpt>
					<trkpt lat="49.860370" lon="4.876860">
						<ele>307</ele>
						<time>2025-12-07T15:07:10Z</time>
					</trkpt>
					<trkpt lat="49.860330" lon="4.876700">
						<ele>307</ele>
						<time>2025-12-07T15:07:16Z</time>
					</trkpt>
					<trkpt lat="49.860240" lon="4.876190">
						<ele>312</ele>
						<time>2025-12-07T15:07:33Z</time>
					</trkpt>
					<trkpt lat="49.860170" lon="4.875760">
						<ele>316</ele>
						<time>2025-12-07T15:07:47Z</time>
					</trkpt>
					<trkpt lat="49.860130" lon="4.875460">
						<ele>322</ele>
						<time>2025-12-07T15:07:57Z</time>
					</trkpt>
					<trkpt lat="49.860120" lon="4.875210">
						<ele>326</ele>
						<time>2025-12-07T15:08:05Z</time>
					</trkpt>
					<trkpt lat="49.860040" lon="4.875150">
						<ele>326</ele>
						<time>2025-12-07T15:08:10Z</time>
					</trkpt>
					<trkpt lat="49.859930" lon="4.874890">
						<ele>330</ele>
						<time>2025-12-07T15:08:20Z</time>
					</trkpt>
					<trkpt lat="49.859820" lon="4.874780">
						<ele>331</ele>
						<time>2025-12-07T15:08:26Z</time>
					</trkpt>
					<trkpt lat="49.859650" lon="4.874720">
						<ele>332</ele>
						<time>2025-12-07T15:08:35Z</time>
					</trkpt>
					<trkpt lat="49.859620" lon="4.874710">
						<ele>333</ele>
						<time>2025-12-07T15:08:36Z</time>
					</trkpt>
					<trkpt lat="49.859420" lon="4.874720">
						<ele>333</ele>
						<time>2025-12-07T15:08:46Z</time>
					</trkpt>
					<trkpt lat="49.859230" lon="4.874720">
						<ele>333</ele>
						<time>2025-12-07T15:08:56Z</time>
					</trkpt>
					<trkpt lat="49.858890" lon="4.874790">
						<ele>337</ele>
						<time>2025-12-07T15:09:13Z</time>
					</trkpt>
					<trkpt lat="49.858760" lon="4.874950">
						<ele>337</ele>
						<time>2025-12-07T15:09:21Z</time>
					</trkpt>
					<trkpt lat="49.858610" lon="4.875180">
						<ele>339</ele>
						<time>2025-12-07T15:09:32Z</time>
					</trkpt>
					<trkpt lat="49.858620" lon="4.875360">
						<ele>338</ele>
						<time>2025-12-07T15:09:38Z</time>
					</trkpt>
					<trkpt lat="49.859270" lon="4.876390">
						<ele>324</ele>
						<time>2025-12-07T15:10:24Z</time>
					</trkpt>
					<trkpt lat="49.859510" lon="4.877410">
						<ele>316</ele>
						<time>2025-12-07T15:10:59Z</time>
					</trkpt>
					<trkpt lat="49.859430" lon="4.878450">
						<ele>317</ele>
						<time>2025-12-07T15:11:33Z</time>
					</trkpt>
					<trkpt lat="49.859430" lon="4.878550">
						<ele>316</ele>
						<time>2025-12-07T15:11:36Z</time>
					</trkpt>
					<trkpt lat="49.859460" lon="4.879410">
						<ele>312</ele>
						<time>2025-12-07T15:12:04Z</time>
					</trkpt>
					<trkpt lat="49.859550" lon="4.880200">
						<ele>304</ele>
						<time>2025-12-07T15:12:30Z</time>
					</trkpt>
					<trkpt lat="49.859550" lon="4.881090">
						<ele>299</ele>
						<time>2025-12-07T15:12:59Z</time>
					</trkpt>
					<trkpt lat="49.859490" lon="4.881500">
						<ele>297</ele>
						<time>2025-12-07T15:13:12Z</time>
					</trkpt>
					<trkpt lat="49.859240" lon="4.882650">
						<ele>290</ele>
						<time>2025-12-07T15:13:51Z</time>
					</trkpt>
					<trkpt lat="49.858860" lon="4.883260">
						<ele>285</ele>
						<time>2025-12-07T15:14:19Z</time>
					</trkpt>
					<trkpt lat="49.858650" lon="4.883440">
						<ele>282</ele>
						<time>2025-12-07T15:14:31Z</time>
					</trkpt>
					<trkpt lat="49.858250" lon="4.883480">
						<ele>283</ele>
						<time>2025-12-07T15:14:51Z</time>
					</trkpt>
					<trkpt lat="49.858070" lon="4.883560">
						<ele>279</ele>
						<time>2025-12-07T15:15:00Z</time>
					</trkpt>
					<trkpt lat="49.858080" lon="4.883700">
						<ele>274</ele>
						<time>2025-12-07T15:15:05Z</time>
					</trkpt>
					<trkpt lat="49.857980" lon="4.883540">
						<ele>279</ele>
						<time>2025-12-07T15:15:12Z</time>
					</trkpt>
					<trkpt lat="49.857880" lon="4.883460">
						<ele>280</ele>
						<time>2025-12-07T15:15:18Z</time>
					</trkpt>
					<trkpt lat="49.857720" lon="4.883390">
						<ele>281</ele>
						<time>2025-12-07T15:15:26Z</time>
					</trkpt>
					<trkpt lat="49.857430" lon="4.883040">
						<ele>289</ele>
						<time>2025-12-07T15:15:44Z</time>
					</trkpt>
					<trkpt lat="49.857190" lon="4.882480">
						<ele>299</ele>
						<time>2025-12-07T15:16:06Z</time>
					</trkpt>
					<trkpt lat="49.857070" lon="4.882290">
						<ele>301</ele>
						<time>2025-12-07T15:16:15Z</time>
					</trkpt>
					<trkpt lat="49.856820" lon="4.882040">
						<ele>301</ele>
						<time>2025-12-07T15:16:29Z</time>
					</trkpt>
					<trkpt lat="49.856640" lon="4.881810">
						<ele>302</ele>
						<time>2025-12-07T15:16:41Z</time>
					</trkpt>
					<trkpt lat="49.856510" lon="4.881540">
						<ele>307</ele>
						<time>2025-12-07T15:16:52Z</time>
					</trkpt>
					<trkpt lat="49.856420" lon="4.881330">
						<ele>310</ele>
						<time>2025-12-07T15:17:00Z</time>
					</trkpt>
					<trkpt lat="49.856330" lon="4.881140">
						<ele>313</ele>
						<time>2025-12-07T15:17:08Z</time>
					</trkpt>
					<trkpt lat="49.856230" lon="4.880940">
						<ele>315</ele>
						<time>2025-12-07T15:17:16Z</time>
					</trkpt>
					<trkpt lat="49.856090" lon="4.880700">
						<ele>318</ele>
						<time>2025-12-07T15:17:26Z</time>
					</trkpt>
					<trkpt lat="49.855960" lon="4.880640">
						<ele>318</ele>
						<time>2025-12-07T15:17:33Z</time>
					</trkpt>
					<trkpt lat="49.855690" lon="4.880630">
						<ele>318</ele>
						<time>2025-12-07T15:17:47Z</time>
					</trkpt>
					<trkpt lat="49.855450" lon="4.880530">
						<ele>322</ele>
						<time>2025-12-07T15:17:59Z</time>
					</trkpt>
					<trkpt lat="49.855280" lon="4.880440">
						<ele>325</ele>
						<time>2025-12-07T15:18:08Z</time>
					</trkpt>
					<trkpt lat="49.854850" lon="4.880120">
						<ele>335</ele>
						<time>2025-12-07T15:18:32Z</time>
					</trkpt>
					<trkpt lat="49.854680" lon="4.879980">
						<ele>339</ele>
						<time>2025-12-07T15:18:42Z</time>
					</trkpt>
					<trkpt lat="49.854480" lon="4.879850">
						<ele>344</ele>
						<time>2025-12-07T15:18:52Z</time>
					</trkpt>
					<trkpt lat="49.854220" lon="4.879740">
						<ele>347</ele>
						<time>2025-12-07T15:19:06Z</time>
					</trkpt>
					<trkpt lat="49.853940" lon="4.879680">
						<ele>350</ele>
						<time>2025-12-07T15:19:20Z</time>
					</trkpt>
					<trkpt lat="49.853810" lon="4.879660">
						<ele>352</ele>
						<time>2025-12-07T15:19:27Z</time>
					</trkpt>
					<trkpt lat="49.853550" lon="4.879630">
						<ele>354</ele>
						<time>2025-12-07T15:19:40Z</time>
					</trkpt>
					<trkpt lat="49.853390" lon="4.879650">
						<ele>355</ele>
						<time>2025-12-07T15:19:48Z</time>
					</trkpt>
					<trkpt lat="49.853320" lon="4.879590">
						<ele>357</ele>
						<time>2025-12-07T15:19:52Z</time>
					</trkpt>
					<trkpt lat="49.853380" lon="4.879850">
						<ele>354</ele>
						<time>2025-12-07T15:20:01Z</time>
					</trkpt>
					<trkpt lat="49.853610" lon="4.880300">
						<ele>351</ele>
						<time>2025-12-07T15:20:19Z</time>
					</trkpt>
					<trkpt lat="49.853800" lon="4.880600">
						<ele>348</ele>
						<time>2025-12-07T15:20:33Z</time>
					</trkpt>
					<trkpt lat="49.854000" lon="4.880980">
						<ele>344</ele>
						<time>2025-12-07T15:20:48Z</time>
					</trkpt>
					<trkpt lat="49.854290" lon="4.881590">
						<ele>339</ele>
						<time>2025-12-07T15:21:13Z</time>
					</trkpt>
					<trkpt lat="49.854520" lon="4.882170">
						<ele>335</ele>
						<time>2025-12-07T15:21:35Z</time>
					</trkpt>
					<trkpt lat="49.854910" lon="4.882950">
						<ele>323</ele>
						<time>2025-12-07T15:22:07Z</time>
					</trkpt>
					<trkpt lat="49.854990" lon="4.883130">
						<ele>321</ele>
						<time>2025-12-07T15:22:14Z</time>
					</trkpt>
					<trkpt lat="49.855040" lon="4.883450">
						<ele>318</ele>
						<time>2025-12-07T15:22:24Z</time>
					</trkpt>
					<trkpt lat="49.855040" lon="4.883610">
						<ele>316</ele>
						<time>2025-12-07T15:22:30Z</time>
					</trkpt>
					<trkpt lat="49.854970" lon="4.884000">
						<ele>314</ele>
						<time>2025-12-07T15:22:43Z</time>
					</trkpt>
					<trkpt lat="49.854830" lon="4.884260">
						<ele>315</ele>
						<time>2025-12-07T15:22:54Z</time>
					</trkpt>
					<trkpt lat="49.854600" lon="4.884570">
						<ele>315</ele>
						<time>2025-12-07T15:23:09Z</time>
					</trkpt>
					<trkpt lat="49.854190" lon="4.885020">
						<ele>318</ele>
						<time>2025-12-07T15:23:34Z</time>
					</trkpt>
					<trkpt lat="49.853980" lon="4.885400">
						<ele>314</ele>
						<time>2025-12-07T15:23:50Z</time>
					</trkpt>
					<trkpt lat="49.853860" lon="4.885810">
						<ele>306</ele>
						<time>2025-12-07T15:24:05Z</time>
					</trkpt>
					<trkpt lat="49.853590" lon="4.886550">
						<ele>300</ele>
						<time>2025-12-07T15:24:32Z</time>
					</trkpt>
					<trkpt lat="49.853450" lon="4.886780">
						<ele>298</ele>
						<time>2025-12-07T15:24:42Z</time>
					</trkpt>
					<trkpt lat="49.853300" lon="4.886860">
						<ele>298</ele>
						<time>2025-12-07T15:24:50Z</time>
					</trkpt>
					<trkpt lat="49.853080" lon="4.886860">
						<ele>297</ele>
						<time>2025-12-07T15:25:01Z</time>
					</trkpt>
					<trkpt lat="49.852830" lon="4.886880">
						<ele>296</ele>
						<time>2025-12-07T15:25:14Z</time>
					</trkpt>
					<trkpt lat="49.852630" lon="4.886910">
						<ele>294</ele>
						<time>2025-12-07T15:25:24Z</time>
					</trkpt>
					<trkpt lat="49.852420" lon="4.886920">
						<ele>292</ele>
						<time>2025-12-07T15:25:34Z</time>
					</trkpt>
					<trkpt lat="49.852190" lon="4.886900">
						<ele>291</ele>
						<time>2025-12-07T15:25:46Z</time>
					</trkpt>
					<trkpt lat="49.851990" lon="4.886920">
						<ele>288</ele>
						<time>2025-12-07T15:25:56Z</time>
					</trkpt>
					<trkpt lat="49.851790" lon="4.886920">
						<ele>286</ele>
						<time>2025-12-07T15:26:06Z</time>
					</trkpt>
					<trkpt lat="49.851590" lon="4.886900">
						<ele>285</ele>
						<time>2025-12-07T15:26:16Z</time>
					</trkpt>
					<trkpt lat="49.851410" lon="4.886850">
						<ele>286</ele>
						<time>2025-12-07T15:26:25Z</time>
					</trkpt>
					<trkpt lat="49.851330" lon="4.886920">
						<ele>285</ele>
						<time>2025-12-07T15:26:30Z</time>
					</trkpt>
					<trkpt lat="49.851040" lon="4.886450">
						<ele>291</ele>
						<time>2025-12-07T15:26:51Z</time>
					</trkpt>
					<trkpt lat="49.850960" lon="4.886280">
						<ele>294</ele>
						<time>2025-12-07T15:26:57Z</time>
					</trkpt>
					<trkpt lat="49.850540" lon="4.885510">
						<ele>310</ele>
						<time>2025-12-07T15:27:30Z</time>
					</trkpt>
					<trkpt lat="49.850360" lon="4.885300">
						<ele>315</ele>
						<time>2025-12-07T15:27:41Z</time>
					</trkpt>
					<trkpt lat="49.849990" lon="4.884580">
						<ele>327</ele>
						<time>2025-12-07T15:28:11Z</time>
					</trkpt>
					<trkpt lat="49.849740" lon="4.884040">
						<ele>337</ele>
						<time>2025-12-07T15:28:32Z</time>
					</trkpt>
					<trkpt lat="49.849580" lon="4.883610">
						<ele>346</ele>
						<time>2025-12-07T15:28:48Z</time>
					</trkpt>
					<trkpt lat="49.849320" lon="4.883600">
						<ele>349</ele>
						<time>2025-12-07T15:29:01Z</time>
					</trkpt>
					<trkpt lat="49.848930" lon="4.883770">
						<ele>351</ele>
						<time>2025-12-07T15:29:22Z</time>
					</trkpt>
					<trkpt lat="49.848540" lon="4.883910">
						<ele>356</ele>
						<time>2025-12-07T15:29:42Z</time>
					</trkpt>
					<trkpt lat="49.847530" lon="4.883800">
						<ele>370</ele>
						<time>2025-12-07T15:30:32Z</time>
					</trkpt>
					<trkpt lat="49.847320" lon="4.883440">
						<ele>373</ele>
						<time>2025-12-07T15:30:48Z</time>
					</trkpt>
					<trkpt lat="49.847330" lon="4.883030">
						<ele>376</ele>
						<time>2025-12-07T15:31:01Z</time>
					</trkpt>
					<trkpt lat="49.847380" lon="4.882700">
						<ele>377</ele>
						<time>2025-12-07T15:31:12Z</time>
					</trkpt>
					<trkpt lat="49.847490" lon="4.882150">
						<ele>383</ele>
						<time>2025-12-07T15:31:31Z</time>
					</trkpt>
					<trkpt lat="49.847760" lon="4.881550">
						<ele>389</ele>
						<time>2025-12-07T15:31:54Z</time>
					</trkpt>
					<trkpt lat="49.848030" lon="4.881060">
						<ele>392</ele>
						<time>2025-12-07T15:32:15Z</time>
					</trkpt>
					<trkpt lat="49.848080" lon="4.880910">
						<ele>393</ele>
						<time>2025-12-07T15:32:21Z</time>
					</trkpt>
					<trkpt lat="49.848150" lon="4.880740">
						<ele>394</ele>
						<time>2025-12-07T15:32:27Z</time>
					</trkpt>
					<trkpt lat="49.848280" lon="4.880310">
						<ele>396</ele>
						<time>2025-12-07T15:32:43Z</time>
					</trkpt>
					<trkpt lat="49.848250" lon="4.880110">
						<ele>397</ele>
						<time>2025-12-07T15:32:49Z</time>
					</trkpt>
					<trkpt lat="49.848120" lon="4.879920">
						<ele>397</ele>
						<time>2025-12-07T15:32:58Z</time>
					</trkpt>
					<trkpt lat="49.847800" lon="4.879760">
						<ele>395</ele>
						<time>2025-12-07T15:33:15Z</time>
					</trkpt>
					<trkpt lat="49.847420" lon="4.879490">
						<ele>393</ele>
						<time>2025-12-07T15:33:36Z</time>
					</trkpt>
					<trkpt lat="49.846920" lon="4.879010">
						<ele>389</ele>
						<time>2025-12-07T15:34:05Z</time>
					</trkpt>
					<trkpt lat="49.846650" lon="4.878900">
						<ele>388</ele>
						<time>2025-12-07T15:34:19Z</time>
					</trkpt>
					<trkpt lat="49.846320" lon="4.878490">
						<ele>385</ele>
						<time>2025-12-07T15:34:40Z</time>
					</trkpt>
					<trkpt lat="49.846090" lon="4.878110">
						<ele>383</ele>
						<time>2025-12-07T15:34:57Z</time>
					</trkpt>
					<trkpt lat="49.846020" lon="4.878010">
						<ele>382</ele>
						<time>2025-12-07T15:35:02Z</time>
					</trkpt>
					<trkpt lat="49.846080" lon="4.877830">
						<ele>382</ele>
						<time>2025-12-07T15:35:09Z</time>
					</trkpt>
					<trkpt lat="49.846220" lon="4.877730">
						<ele>382</ele>
						<time>2025-12-07T15:35:16Z</time>
					</trkpt>
					<trkpt lat="49.846470" lon="4.877510">
						<ele>382</ele>
						<time>2025-12-07T15:35:31Z</time>
					</trkpt>
					<trkpt lat="49.846550" lon="4.877490">
						<ele>382</ele>
						<time>2025-12-07T15:35:35Z</time>
					</trkpt>
					<trkpt lat="49.846640" lon="4.877370">
						<ele>381</ele>
						<time>2025-12-07T15:35:41Z</time>
					</trkpt>
					<trkpt lat="49.846710" lon="4.877360">
						<ele>381</ele>
						<time>2025-12-07T15:35:44Z</time>
					</trkpt>
					<trkpt lat="49.846220" lon="4.877100">
						<ele>380</ele>
						<time>2025-12-07T15:36:10Z</time>
					</trkpt>
					<trkpt lat="49.845870" lon="4.876960">
						<ele>379</ele>
						<time>2025-12-07T15:36:28Z</time>
					</trkpt>
					<trkpt lat="49.846040" lon="4.876800">
						<ele>379</ele>
						<time>2025-12-07T15:36:38Z</time>
					</trkpt>
					<trkpt lat="49.846250" lon="4.876520">
						<ele>379</ele>
						<time>2025-12-07T15:36:52Z</time>
					</trkpt>
					<trkpt lat="49.846560" lon="4.876100">
						<ele>377</ele>
						<time>2025-12-07T15:37:13Z</time>
					</trkpt>
					<trkpt lat="49.846870" lon="4.875530">
						<ele>373</ele>
						<time>2025-12-07T15:37:37Z</time>
					</trkpt>
					<trkpt lat="49.847010" lon="4.875000">
						<ele>368</ele>
						<time>2025-12-07T15:37:55Z</time>
					</trkpt>
					<trkpt lat="49.847030" lon="4.874010">
						<ele>361</ele>
						<time>2025-12-07T15:38:27Z</time>
					</trkpt>
					<trkpt lat="49.847180" lon="4.873200">
						<ele>355</ele>
						<time>2025-12-07T15:38:54Z</time>
					</trkpt>
					<trkpt lat="49.847380" lon="4.872470">
						<ele>348</ele>
						<time>2025-12-07T15:39:20Z</time>
					</trkpt>
					<trkpt lat="49.847420" lon="4.871800">
						<ele>343</ele>
						<time>2025-12-07T15:39:42Z</time>
					</trkpt>
					<trkpt lat="49.847500" lon="4.870730">
						<ele>333</ele>
						<time>2025-12-07T15:40:16Z</time>
					</trkpt>
					<trkpt lat="49.847490" lon="4.869720">
						<ele>327</ele>
						<time>2025-12-07T15:40:49Z</time>
					</trkpt>
					<trkpt lat="49.847610" lon="4.868710">
						<ele>319</ele>
						<time>2025-12-07T15:41:22Z</time>
					</trkpt>
					<trkpt lat="49.847520" lon="4.868180">
						<ele>314</ele>
						<time>2025-12-07T15:41:40Z</time>
					</trkpt>
					<trkpt lat="49.847420" lon="4.867870">
						<ele>311</ele>
						<time>2025-12-07T15:41:51Z</time>
					</trkpt>
					<trkpt lat="49.847040" lon="4.867050">
						<ele>302</ele>
						<time>2025-12-07T15:42:23Z</time>
					</trkpt>
					<trkpt lat="49.846480" lon="4.866080">
						<ele>291</ele>
						<time>2025-12-07T15:43:06Z</time>
					</trkpt>
					<trkpt lat="49.846270" lon="4.865540">
						<ele>289</ele>
						<time>2025-12-07T15:43:26Z</time>
					</trkpt>
					<trkpt lat="49.846230" lon="4.864990">
						<ele>286</ele>
						<time>2025-12-07T15:43:44Z</time>
					</trkpt>
					<trkpt lat="49.846300" lon="4.864610">
						<ele>285</ele>
						<time>2025-12-07T15:43:56Z</time>
					</trkpt>
					<trkpt lat="49.846540" lon="4.864080">
						<ele>279</ele>
						<time>2025-12-07T15:44:17Z</time>
					</trkpt>
					<trkpt lat="49.846860" lon="4.862860">
						<ele>279</ele>
						<time>2025-12-07T15:45:00Z</time>
					</trkpt>
					<trkpt lat="49.846910" lon="4.862510">
						<ele>279</ele>
						<time>2025-12-07T15:45:11Z</time>
					</trkpt>
					<trkpt lat="49.846930" lon="4.862200">
						<ele>277</ele>
						<time>2025-12-07T15:45:21Z</time>
					</trkpt>
					<trkpt lat="49.847030" lon="4.861390">
						<ele>271</ele>
						<time>2025-12-07T15:45:48Z</time>
					</trkpt>
					<trkpt lat="49.847060" lon="4.860490">
						<ele>265</ele>
						<time>2025-12-07T15:46:17Z</time>
					</trkpt>
					<trkpt lat="49.847030" lon="4.859250">
						<ele>255</ele>
						<time>2025-12-07T15:46:57Z</time>
					</trkpt>
					<trkpt lat="49.847170" lon="4.858100">
						<ele>240</ele>
						<time>2025-12-07T15:47:35Z</time>
					</trkpt>
					<trkpt lat="49.847240" lon="4.857890">
						<ele>238</ele>
						<time>2025-12-07T15:47:43Z</time>
					</trkpt>
					<trkpt lat="49.847240" lon="4.857890">
						<ele>238</ele>
						<time>2025-12-07T15:47:43Z</time>
					</trkpt>
					<trkpt lat="49.847270" lon="4.857850">
						<ele>237</ele>
						<time>2025-12-07T15:47:45Z</time>
					</trkpt>
					<trkpt lat="49.847300" lon="4.857830">
						<ele>237</ele>
						<time>2025-12-07T15:47:46Z</time>
					</trkpt>
					<trkpt lat="49.847540" lon="4.857700">
						<ele>236</ele>
						<time>2025-12-07T15:47:59Z</time>
					</trkpt>
					<trkpt lat="49.847730" lon="4.857560">
						<ele>237</ele>
						<time>2025-12-07T15:48:09Z</time>
					</trkpt>
					<trkpt lat="49.848160" lon="4.857230">
						<ele>239</ele>
						<time>2025-12-07T15:48:33Z</time>
					</trkpt>
					<trkpt lat="49.848350" lon="4.856890">
						<ele>236</ele>
						<time>2025-12-07T15:48:48Z</time>
					</trkpt>
					<trkpt lat="49.848420" lon="4.856690">
						<ele>234</ele>
						<time>2025-12-07T15:48:55Z</time>
					</trkpt>
					<trkpt lat="49.848450" lon="4.856600">
						<ele>233</ele>
						<time>2025-12-07T15:48:59Z</time>
					</trkpt>
					<trkpt lat="49.848510" lon="4.856580">
						<ele>233</ele>
						<time>2025-12-07T15:49:02Z</time>
					</trkpt>
					<trkpt lat="49.848730" lon="4.856620">
						<ele>235</ele>
						<time>2025-12-07T15:49:13Z</time>
					</trkpt>
					<trkpt lat="49.848880" lon="4.856690">
						<ele>236</ele>
						<time>2025-12-07T15:49:21Z</time>
					</trkpt>
					<trkpt lat="49.848860" lon="4.856880">
						<ele>239</ele>
						<time>2025-12-07T15:49:27Z</time>
					</trkpt>
					<trkpt lat="49.848850" lon="4.857230">
						<ele>246</ele>
						<time>2025-12-07T15:49:38Z</time>
					</trkpt>
					<trkpt lat="49.848820" lon="4.857370">
						<ele>248</ele>
						<time>2025-12-07T15:49:43Z</time>
					</trkpt>
					<trkpt lat="49.848880" lon="4.857370">
						<ele>249</ele>
						<time>2025-12-07T15:49:46Z</time>
					</trkpt>
					<trkpt lat="49.848880" lon="4.857460">
						<ele>250</ele>
						<time>2025-12-07T15:49:49Z</time>
					</trkpt>
					<trkpt lat="49.848820" lon="4.857750">
						<ele>255</ele>
						<time>2025-12-07T15:49:59Z</time>
					</trkpt>
					<trkpt lat="49.848800" lon="4.857950">
						<ele>258</ele>
						<time>2025-12-07T15:50:05Z</time>
					</trkpt>
					<trkpt lat="49.848810" lon="4.858170">
						<ele>262</ele>
						<time>2025-12-07T15:50:12Z</time>
					</trkpt>
					<trkpt lat="49.848830" lon="4.858300">
						<ele>265</ele>
						<time>2025-12-07T15:50:17Z</time>
					</trkpt>
					<trkpt lat="49.848880" lon="4.858450">
						<ele>267</ele>
						<time>2025-12-07T15:50:22Z</time>
					</trkpt>
					<trkpt lat="49.848900" lon="4.858570">
						<ele>269</ele>
						<time>2025-12-07T15:50:26Z</time>
					</trkpt>
					<trkpt lat="49.848930" lon="4.858700">
						<ele>271</ele>
						<time>2025-12-07T15:50:30Z</time>
					</trkpt>
					<trkpt lat="49.848960" lon="4.858840">
						<ele>273</ele>
						<time>2025-12-07T15:50:35Z</time>
					</trkpt>
					<trkpt lat="49.849060" lon="4.858880">
						<ele>275</ele>
						<time>2025-12-07T15:50:40Z</time>
					</trkpt>
					<trkpt lat="49.849150" lon="4.859120">
						<ele>279</ele>
						<time>2025-12-07T15:50:49Z</time>
					</trkpt>
					<trkpt lat="49.849190" lon="4.859330">
						<ele>283</ele>
						<time>2025-12-07T15:50:56Z</time>
					</trkpt>
					<trkpt lat="49.849150" lon="4.859440">
						<ele>283</ele>
						<time>2025-12-07T15:51:01Z</time>
					</trkpt>
					<trkpt lat="49.849250" lon="4.859660">
						<ele>288</ele>
						<time>2025-12-07T15:51:09Z</time>
					</trkpt>
					<trkpt lat="49.849310" lon="4.859780">
						<ele>290</ele>
						<time>2025-12-07T15:51:14Z</time>
					</trkpt>
					<trkpt lat="49.849400" lon="4.859880">
						<ele>293</ele>
						<time>2025-12-07T15:51:20Z</time>
					</trkpt>
					<trkpt lat="49.849450" lon="4.860010">
						<ele>295</ele>
						<time>2025-12-07T15:51:25Z</time>
					</trkpt>
					<trkpt lat="49.849530" lon="4.860120">
						<ele>298</ele>
						<time>2025-12-07T15:51:30Z</time>
					</trkpt>
					<trkpt lat="49.849640" lon="4.860200">
						<ele>300</ele>
						<time>2025-12-07T15:51:36Z</time>
					</trkpt>
					<trkpt lat="49.849740" lon="4.860350">
						<ele>303</ele>
						<time>2025-12-07T15:51:43Z</time>
					</trkpt>
					<trkpt lat="49.849800" lon="4.860390">
						<ele>304</ele>
						<time>2025-12-07T15:51:46Z</time>
					</trkpt>
					<trkpt lat="49.849890" lon="4.860470">
						<ele>306</ele>
						<time>2025-12-07T15:51:51Z</time>
					</trkpt>
					<trkpt lat="49.850230" lon="4.860870">
						<ele>314</ele>
						<time>2025-12-07T15:52:13Z</time>
					</trkpt>
					<trkpt lat="49.850340" lon="4.860910">
						<ele>315</ele>
						<time>2025-12-07T15:52:18Z</time>
					</trkpt>
					<trkpt lat="49.850390" lon="4.860960">
						<ele>317</ele>
						<time>2025-12-07T15:52:21Z</time>
					</trkpt>
					<trkpt lat="49.850440" lon="4.860990">
						<ele>317</ele>
						<time>2025-12-07T15:52:24Z</time>
					</trkpt>
					<trkpt lat="49.850550" lon="4.861020">
						<ele>319</ele>
						<time>2025-12-07T15:52:30Z</time>
					</trkpt>
					<trkpt lat="49.850670" lon="4.861060">
						<ele>321</ele>
						<time>2025-12-07T15:52:36Z</time>
					</trkpt>
					<trkpt lat="49.850760" lon="4.861130">
						<ele>322</ele>
						<time>2025-12-07T15:52:41Z</time>
					</trkpt>
					<trkpt lat="49.850830" lon="4.861280">
						<ele>324</ele>
						<time>2025-12-07T15:52:47Z</time>
					</trkpt>
					<trkpt lat="49.850910" lon="4.861380">
						<ele>326</ele>
						<time>2025-12-07T15:52:52Z</time>
					</trkpt>
					<trkpt lat="49.850960" lon="4.861510">
						<ele>327</ele>
						<time>2025-12-07T15:52:57Z</time>
					</trkpt>
					<trkpt lat="49.851010" lon="4.861650">
						<ele>328</ele>
						<time>2025-12-07T15:53:02Z</time>
					</trkpt>
					<trkpt lat="49.851040" lon="4.861790">
						<ele>329</ele>
						<time>2025-12-07T15:53:07Z</time>
					</trkpt>
					<trkpt lat="49.851130" lon="4.862120">
						<ele>332</ele>
						<time>2025-12-07T15:53:18Z</time>
					</trkpt>
					<trkpt lat="49.851270" lon="4.862390">
						<ele>336</ele>
						<time>2025-12-07T15:53:29Z</time>
					</trkpt>
					<trkpt lat="49.851380" lon="4.862420">
						<ele>337</ele>
						<time>2025-12-07T15:53:35Z</time>
					</trkpt>
					<trkpt lat="49.851440" lon="4.862550">
						<ele>338</ele>
						<time>2025-12-07T15:53:40Z</time>
					</trkpt>
					<trkpt lat="49.851580" lon="4.862450">
						<ele>339</ele>
						<time>2025-12-07T15:53:48Z</time>
					</trkpt>
					<trkpt lat="49.851680" lon="4.862370">
						<ele>340</ele>
						<time>2025-12-07T15:53:54Z</time>
					</trkpt>
					<trkpt lat="49.851790" lon="4.862260">
						<ele>341</ele>
						<time>2025-12-07T15:54:00Z</time>
					</trkpt>
					<trkpt lat="49.851870" lon="4.862120">
						<ele>342</ele>
						<time>2025-12-07T15:54:06Z</time>
					</trkpt>
					<trkpt lat="49.851920" lon="4.862000">
						<ele>342</ele>
						<time>2025-12-07T15:54:11Z</time>
					</trkpt>
					<trkpt lat="49.851930" lon="4.861870">
						<ele>342</ele>
						<time>2025-12-07T15:54:15Z</time>
					</trkpt>
					<trkpt lat="49.852010" lon="4.861360">
						<ele>342</ele>
						<time>2025-12-07T15:54:32Z</time>
					</trkpt>
					<trkpt lat="49.852280" lon="4.860150">
						<ele>345</ele>
						<time>2025-12-07T15:55:13Z</time>
					</trkpt>
					<trkpt lat="49.852460" lon="4.859590">
						<ele>348</ele>
						<time>2025-12-07T15:55:33Z</time>
					</trkpt>
					<trkpt lat="49.852570" lon="4.859520">
						<ele>349</ele>
						<time>2025-12-07T15:55:39Z</time>
					</trkpt>
					<trkpt lat="49.852720" lon="4.859670">
						<ele>348</ele>
						<time>2025-12-07T15:55:48Z</time>
					</trkpt>
					<trkpt lat="49.852760" lon="4.859960">
						<ele>348</ele>
						<time>2025-12-07T15:55:58Z</time>
					</trkpt>
					<trkpt lat="49.852880" lon="4.859560">
						<ele>348</ele>
						<time>2025-12-07T15:56:12Z</time>
					</trkpt>
					<trkpt lat="49.853090" lon="4.859140">
						<ele>347</ele>
						<time>2025-12-07T15:56:29Z</time>
					</trkpt>
					<trkpt lat="49.853480" lon="4.858820">
						<ele>340</ele>
						<time>2025-12-07T15:56:51Z</time>
					</trkpt>
					<trkpt lat="49.853790" lon="4.858920">
						<ele>335</ele>
						<time>2025-12-07T15:57:07Z</time>
					</trkpt>
					<trkpt lat="49.853890" lon="4.859130">
						<ele>334</ele>
						<time>2025-12-07T15:57:16Z</time>
					</trkpt>
					<trkpt lat="49.854020" lon="4.859410">
						<ele>331</ele>
						<time>2025-12-07T15:57:27Z</time>
					</trkpt>
					<trkpt lat="49.854370" lon="4.860930">
						<ele>312</ele>
						<time>2025-12-07T15:58:19Z</time>
					</trkpt>
					<trkpt lat="49.854420" lon="4.861330">
						<ele>313</ele>
						<time>2025-12-07T15:58:32Z</time>
					</trkpt>
					<trkpt lat="49.854440" lon="4.861740">
						<ele>315</ele>
						<time>2025-12-07T15:58:45Z</time>
					</trkpt>
					<trkpt lat="49.854900" lon="4.862940">
						<ele>318</ele>
						<time>2025-12-07T15:59:30Z</time>
					</trkpt>
					<trkpt lat="49.855130" lon="4.863180">
						<ele>318</ele>
						<time>2025-12-07T15:59:44Z</time>
					</trkpt>
					<trkpt lat="49.855370" lon="4.863400">
						<ele>319</ele>
						<time>2025-12-07T15:59:58Z</time>
					</trkpt>
					<trkpt lat="49.856050" lon="4.864010">
						<ele>326</ele>
						<time>2025-12-07T16:00:37Z</time>
					</trkpt>
					<trkpt lat="49.856330" lon="4.864470">
						<ele>332</ele>
						<time>2025-12-07T16:00:58Z</time>
					</trkpt>
					<trkpt lat="49.857550" lon="4.865570">
						<ele>343</ele>
						<time>2025-12-07T16:02:08Z</time>
					</trkpt>
					<trkpt lat="49.857600" lon="4.865580">
						<ele>343</ele>
						<time>2025-12-07T16:02:11Z</time>
					</trkpt>
					<trkpt lat="49.857730" lon="4.865610">
						<ele>344</ele>
						<time>2025-12-07T16:02:18Z</time>
					</trkpt>
					<trkpt lat="49.857770" lon="4.865590">
						<ele>344</ele>
						<time>2025-12-07T16:02:20Z</time>
					</trkpt>
					<trkpt lat="49.857940" lon="4.865480">
						<ele>344</ele>
						<time>2025-12-07T16:02:29Z</time>
					</trkpt>
					<trkpt lat="49.858080" lon="4.865180">
						<ele>343</ele>
						<time>2025-12-07T16:02:41Z</time>
					</trkpt>
					<trkpt lat="49.858190" lon="4.864830">
						<ele>343</ele>
						<time>2025-12-07T16:02:53Z</time>
					</trkpt>
					<trkpt lat="49.858270" lon="4.864580">
						<ele>343</ele>
						<time>2025-12-07T16:03:02Z</time>
					</trkpt>
					<trkpt lat="49.858860" lon="4.862760">
						<ele>346</ele>
						<time>2025-12-07T16:04:08Z</time>
					</trkpt>
					<trkpt lat="49.858990" lon="4.862440">
						<ele>348</ele>
						<time>2025-12-07T16:04:20Z</time>
					</trkpt>
					<trkpt lat="49.859050" lon="4.862270">
						<ele>349</ele>
						<time>2025-12-07T16:04:27Z</time>
					</trkpt>
					<trkpt lat="49.859230" lon="4.861900">
						<ele>352</ele>
						<time>2025-12-07T16:04:41Z</time>
					</trkpt>
					<trkpt lat="49.859380" lon="4.861740">
						<ele>352</ele>
						<time>2025-12-07T16:04:51Z</time>
					</trkpt>
					<trkpt lat="49.859480" lon="4.861720">
						<ele>353</ele>
						<time>2025-12-07T16:04:56Z</time>
					</trkpt>
					<trkpt lat="49.859510" lon="4.861750">
						<ele>353</ele>
						<time>2025-12-07T16:04:57Z</time>
					</trkpt>
					<trkpt lat="49.859510" lon="4.861070">
						<ele>351</ele>
						<time>2025-12-07T16:05:19Z</time>
					</trkpt>
					<trkpt lat="49.859500" lon="4.860760">
						<ele>350</ele>
						<time>2025-12-07T16:05:29Z</time>
					</trkpt>
					<trkpt lat="49.859510" lon="4.860660">
						<ele>350</ele>
						<time>2025-12-07T16:05:33Z</time>
					</trkpt>
					<trkpt lat="49.859530" lon="4.860360">
						<ele>348</ele>
						<time>2025-12-07T16:05:42Z</time>
					</trkpt>
					<trkpt lat="49.859650" lon="4.859880">
						<ele>345</ele>
						<time>2025-12-07T16:05:59Z</time>
					</trkpt>
					<trkpt lat="49.859680" lon="4.859770">
						<ele>344</ele>
						<time>2025-12-07T16:06:03Z</time>
					</trkpt>
					<trkpt lat="49.859900" lon="4.859050">
						<ele>339</ele>
						<time>2025-12-07T16:06:29Z</time>
					</trkpt>
					<trkpt lat="49.860050" lon="4.858600">
						<ele>335</ele>
						<time>2025-12-07T16:06:45Z</time>
					</trkpt>
					<trkpt lat="49.860290" lon="4.858190">
						<ele>329</ele>
						<time>2025-12-07T16:07:03Z</time>
					</trkpt>
					<trkpt lat="49.860390" lon="4.858040">
						<ele>327</ele>
						<time>2025-12-07T16:07:10Z</time>
					</trkpt>
					<trkpt lat="49.860450" lon="4.857830">
						<ele>324</ele>
						<time>2025-12-07T16:07:17Z</time>
					</trkpt>
					<trkpt lat="49.860540" lon="4.857620">
						<ele>321</ele>
						<time>2025-12-07T16:07:25Z</time>
					</trkpt>
					<trkpt lat="49.860950" lon="4.857170">
						<ele>311</ele>
						<time>2025-12-07T16:07:50Z</time>
					</trkpt>
					<trkpt lat="49.861280" lon="4.856700">
						<ele>299</ele>
						<time>2025-12-07T16:08:13Z</time>
					</trkpt>
					<trkpt lat="49.861460" lon="4.856210">
						<ele>291</ele>
						<time>2025-12-07T16:08:31Z</time>
					</trkpt>
					<trkpt lat="49.861510" lon="4.855650">
						<ele>282</ele>
						<time>2025-12-07T16:08:49Z</time>
					</trkpt>
					<trkpt lat="49.861470" lon="4.854970">
						<ele>269</ele>
						<time>2025-12-07T16:09:11Z</time>
					</trkpt>
					<trkpt lat="49.861480" lon="4.854610">
						<ele>261</ele>
						<time>2025-12-07T16:09:23Z</time>
					</trkpt>
					<trkpt lat="49.861520" lon="4.854290">
						<ele>254</ele>
						<time>2025-12-07T16:09:33Z</time>
					</trkpt>
					<trkpt lat="49.861670" lon="4.854020">
						<ele>247</ele>
						<time>2025-12-07T16:09:45Z</time>
					</trkpt>
					<trkpt lat="49.861870" lon="4.853830">
						<ele>242</ele>
						<time>2025-12-07T16:09:57Z</time>
					</trkpt>
					<trkpt lat="49.862380" lon="4.853470">
						<ele>233</ele>
						<time>2025-12-07T16:10:25Z</time>
					</trkpt>
					<trkpt lat="49.862530" lon="4.853310">
						<ele>228</ele>
						<time>2025-12-07T16:10:34Z</time>
					</trkpt>
					<trkpt lat="49.863700" lon="4.852050">
						<ele>193</ele>
						<time>2025-12-07T16:11:45Z</time>
					</trkpt>
					<trkpt lat="49.863920" lon="4.852040">
						<ele>193</ele>
						<time>2025-12-07T16:11:56Z</time>
					</trkpt>
					<trkpt lat="49.864090" lon="4.852080">
						<ele>195</ele>
						<time>2025-12-07T16:12:05Z</time>
					</trkpt>
					<trkpt lat="49.864290" lon="4.852010">
						<ele>191</ele>
						<time>2025-12-07T16:12:15Z</time>
					</trkpt>
					<trkpt lat="49.864480" lon="4.852040">
						<ele>188</ele>
						<time>2025-12-07T16:12:25Z</time>
					</trkpt>
					<trkpt lat="49.864630" lon="4.852030">
						<ele>186</ele>
						<time>2025-12-07T16:12:32Z</time>
					</trkpt>
					<trkpt lat="49.864890" lon="4.852040">
						<ele>181</ele>
						<time>2025-12-07T16:12:45Z</time>
					</trkpt>
					<trkpt lat="49.864920" lon="4.852110">
						<ele>182</ele>
						<time>2025-12-07T16:12:48Z</time>
					</trkpt>
					<trkpt lat="49.864920" lon="4.852230">
						<ele>183</ele>
						<time>2025-12-07T16:12:52Z</time>
					</trkpt>
					<trkpt lat="49.864770" lon="4.852530">
						<ele>190</ele>
						<time>2025-12-07T16:13:04Z</time>
					</trkpt>
					<trkpt lat="49.864750" lon="4.852930">
						<ele>191</ele>
						<time>2025-12-07T16:13:17Z</time>
					</trkpt>
					<trkpt lat="49.864300" lon="4.854260">
						<ele>211</ele>
						<time>2025-12-07T16:14:05Z</time>
					</trkpt>
					<trkpt lat="49.864210" lon="4.854590">
						<ele>212</ele>
						<time>2025-12-07T16:14:17Z</time>
					</trkpt>
					<trkpt lat="49.864170" lon="4.854950">
						<ele>209</ele>
						<time>2025-12-07T16:14:29Z</time>
					</trkpt>
					<trkpt lat="49.864090" lon="4.855140">
						<ele>212</ele>
						<time>2025-12-07T16:14:36Z</time>
					</trkpt>
					<trkpt lat="49.863920" lon="4.855620">
						<ele>217</ele>
						<time>2025-12-07T16:14:54Z</time>
					</trkpt>
					<trkpt lat="49.863810" lon="4.855780">
						<ele>219</ele>
						<time>2025-12-07T16:15:01Z</time>
					</trkpt>
					<trkpt lat="49.863630" lon="4.855960">
						<ele>226</ele>
						<time>2025-12-07T16:15:12Z</time>
					</trkpt>
					<trkpt lat="49.863400" lon="4.856030">
						<ele>234</ele>
						<time>2025-12-07T16:15:24Z</time>
					</trkpt>
					<trkpt lat="49.863350" lon="4.856110">
						<ele>237</ele>
						<time>2025-12-07T16:15:27Z</time>
					</trkpt>
					<trkpt lat="49.863320" lon="4.856290">
						<ele>239</ele>
						<time>2025-12-07T16:15:33Z</time>
					</trkpt>
					<trkpt lat="49.863280" lon="4.856450">
						<ele>242</ele>
						<time>2025-12-07T16:15:39Z</time>
					</trkpt>
					<trkpt lat="49.863270" lon="4.856590">
						<ele>243</ele>
						<time>2025-12-07T16:15:43Z</time>
					</trkpt>
					<trkpt lat="49.863090" lon="4.856760">
						<ele>250</ele>
						<time>2025-12-07T16:15:54Z</time>
					</trkpt>
					<trkpt lat="49.863190" lon="4.856970">
						<ele>251</ele>
						<time>2025-12-07T16:16:02Z</time>
					</trkpt>
					<trkpt lat="49.863430" lon="4.857130">
						<ele>248</ele>
						<time>2025-12-07T16:16:15Z</time>
					</trkpt>
					<trkpt lat="49.863700" lon="4.857390">
						<ele>244</ele>
						<time>2025-12-07T16:16:31Z</time>
					</trkpt>
					<trkpt lat="49.863740" lon="4.857500">
						<ele>245</ele>
						<time>2025-12-07T16:16:35Z</time>
					</trkpt>
					<trkpt lat="49.863680" lon="4.857570">
						<ele>248</ele>
						<time>2025-12-07T16:16:39Z</time>
					</trkpt>
					<trkpt lat="49.863550" lon="4.857610">
						<ele>253</ele>
						<time>2025-12-07T16:16:46Z</time>
					</trkpt>
					<trkpt lat="49.863330" lon="4.857560">
						<ele>260</ele>
						<time>2025-12-07T16:16:57Z</time>
					</trkpt>
					<trkpt lat="49.863180" lon="4.857560">
						<ele>263</ele>
						<time>2025-12-07T16:17:04Z</time>
					</trkpt>
					<trkpt lat="49.863040" lon="4.857700">
						<ele>268</ele>
						<time>2025-12-07T16:17:13Z</time>
					</trkpt>
					<trkpt lat="49.863010" lon="4.857770">
						<ele>270</ele>
						<time>2025-12-07T16:17:15Z</time>
					</trkpt>
					<trkpt lat="49.863030" lon="4.857880">
						<ele>271</ele>
						<time>2025-12-07T16:17:19Z</time>
					</trkpt>
					<trkpt lat="49.863250" lon="4.858060">
						<ele>271</ele>
						<time>2025-12-07T16:17:31Z</time>
					</trkpt>
					<trkpt lat="49.863280" lon="4.858270">
						<ele>274</ele>
						<time>2025-12-07T16:17:38Z</time>
					</trkpt>
					<trkpt lat="49.863260" lon="4.858440">
						<ele>277</ele>
						<time>2025-12-07T16:17:44Z</time>
					</trkpt>
					<trkpt lat="49.863160" lon="4.858580">
						<ele>281</ele>
						<time>2025-12-07T16:17:51Z</time>
					</trkpt>
					<trkpt lat="49.863060" lon="4.858580">
						<ele>283</ele>
						<time>2025-12-07T16:17:56Z</time>
					</trkpt>
					<trkpt lat="49.863030" lon="4.858640">
						<ele>284</ele>
						<time>2025-12-07T16:17:58Z</time>
					</trkpt>
					<trkpt lat="49.863050" lon="4.858790">
						<ele>286</ele>
						<time>2025-12-07T16:18:03Z</time>
					</trkpt>
					<trkpt lat="49.863090" lon="4.858930">
						<ele>288</ele>
						<time>2025-12-07T16:18:08Z</time>
					</trkpt>
					<trkpt lat="49.863110" lon="4.859040">
						<ele>289</ele>
						<time>2025-12-07T16:18:12Z</time>
					</trkpt>
					<trkpt lat="49.863070" lon="4.859190">
						<ele>292</ele>
						<time>2025-12-07T16:18:17Z</time>
					</trkpt>
					<trkpt lat="49.863010" lon="4.859250">
						<ele>294</ele>
						<time>2025-12-07T16:18:21Z</time>
					</trkpt>
					<trkpt lat="49.862800" lon="4.859310">
						<ele>299</ele>
						<time>2025-12-07T16:18:31Z</time>
					</trkpt>
					<trkpt lat="49.862630" lon="4.859430">
						<ele>304</ele>
						<time>2025-12-07T16:18:41Z</time>
					</trkpt>
					<trkpt lat="49.862600" lon="4.859540">
						<ele>306</ele>
						<time>2025-12-07T16:18:44Z</time>
					</trkpt>
					<trkpt lat="49.862550" lon="4.859620">
						<ele>309</ele>
						<time>2025-12-07T16:18:48Z</time>
					</trkpt>
					<trkpt lat="49.862340" lon="4.859730">
						<ele>313</ele>
						<time>2025-12-07T16:18:59Z</time>
					</trkpt>
					<trkpt lat="49.862060" lon="4.859920">
						<ele>318</ele>
						<time>2025-12-07T16:19:14Z</time>
					</trkpt>
					<trkpt lat="49.861890" lon="4.859970">
						<ele>320</ele>
						<time>2025-12-07T16:19:23Z</time>
					</trkpt>
					<trkpt lat="49.861760" lon="4.860200">
						<ele>323</ele>
						<time>2025-12-07T16:19:33Z</time>
					</trkpt>
					<trkpt lat="49.861660" lon="4.860740">
						<ele>329</ele>
						<time>2025-12-07T16:19:51Z</time>
					</trkpt>
					<trkpt lat="49.861660" lon="4.860930">
						<ele>330</ele>
						<time>2025-12-07T16:19:57Z</time>
					</trkpt>
					<trkpt lat="49.861700" lon="4.861230">
						<ele>329</ele>
						<time>2025-12-07T16:20:07Z</time>
					</trkpt>
					<trkpt lat="49.861690" lon="4.861450">
						<ele>329</ele>
						<time>2025-12-07T16:20:14Z</time>
					</trkpt>
					<trkpt lat="49.861700" lon="4.861680">
						<ele>329</ele>
						<time>2025-12-07T16:20:22Z</time>
					</trkpt>
					<trkpt lat="49.861750" lon="4.862010">
						<ele>329</ele>
						<time>2025-12-07T16:20:33Z</time>
					</trkpt>
					<trkpt lat="49.861940" lon="4.862820">
						<ele>323</ele>
						<time>2025-12-07T16:21:00Z</time>
					</trkpt>
					<trkpt lat="49.861990" lon="4.863250">
						<ele>321</ele>
						<time>2025-12-07T16:21:14Z</time>
					</trkpt>
					<trkpt lat="49.862050" lon="4.863980">
						<ele>326</ele>
						<time>2025-12-07T16:21:38Z</time>
					</trkpt>
					<trkpt lat="49.862180" lon="4.864240">
						<ele>326</ele>
						<time>2025-12-07T16:21:49Z</time>
					</trkpt>
					<trkpt lat="49.862440" lon="4.864380">
						<ele>320</ele>
						<time>2025-12-07T16:22:03Z</time>
					</trkpt>
					<trkpt lat="49.863870" lon="4.864580">
						<ele>308</ele>
						<time>2025-12-07T16:23:14Z</time>
					</trkpt>
					<trkpt lat="49.864010" lon="4.864630">
						<ele>308</ele>
						<time>2025-12-07T16:23:22Z</time>
					</trkpt>
					<trkpt lat="49.864130" lon="4.864730">
						<ele>309</ele>
						<time>2025-12-07T16:23:28Z</time>
					</trkpt>
					<trkpt lat="49.864340" lon="4.865040">
						<ele>310</ele>
						<time>2025-12-07T16:23:43Z</time>
					</trkpt>
					<trkpt lat="49.864560" lon="4.865500">
						<ele>309</ele>
						<time>2025-12-07T16:24:01Z</time>
					</trkpt>
					<trkpt lat="49.864670" lon="4.865960">
						<ele>311</ele>
						<time>2025-12-07T16:24:17Z</time>
					</trkpt>
					<trkpt lat="49.864770" lon="4.866760">
						<ele>315</ele>
						<time>2025-12-07T16:24:44Z</time>
					</trkpt>
					<trkpt lat="49.864930" lon="4.867340">
						<ele>317</ele>
						<time>2025-12-07T16:25:04Z</time>
					</trkpt>
					<trkpt lat="49.865160" lon="4.867690">
						<ele>316</ele>
						<time>2025-12-07T16:25:20Z</time>
					</trkpt>
					<trkpt lat="49.865450" lon="4.868090">
						<ele>316</ele>
						<time>2025-12-07T16:25:39Z</time>
					</trkpt>
					<trkpt lat="49.865680" lon="4.868350">
						<ele>316</ele>
						<time>2025-12-07T16:25:54Z</time>
					</trkpt>
					<trkpt lat="49.865880" lon="4.868540">
						<ele>315</ele>
						<time>2025-12-07T16:26:05Z</time>
					</trkpt>
					<trkpt lat="49.865910" lon="4.868570">
						<ele>315</ele>
						<time>2025-12-07T16:26:07Z</time>
					</trkpt>
					<trkpt lat="49.866130" lon="4.868860">
						<ele>316</ele>
						<time>2025-12-07T16:26:22Z</time>
					</trkpt>
					<trkpt lat="49.866340" lon="4.869010">
						<ele>315</ele>
						<time>2025-12-07T16:26:33Z</time>
					</trkpt>
					<trkpt lat="49.866500" lon="4.869260">
						<ele>316</ele>
						<time>2025-12-07T16:26:45Z</time>
					</trkpt>
					<trkpt lat="49.866640" lon="4.869560">
						<ele>313</ele>
						<time>2025-12-07T16:26:57Z</time>
					</trkpt>
					<trkpt lat="49.866690" lon="4.869820">
						<ele>313</ele>
						<time>2025-12-07T16:27:05Z</time>
					</trkpt>
					<trkpt lat="49.866370" lon="4.869900">
						<ele>319</ele>
						<time>2025-12-07T16:27:22Z</time>
					</trkpt>
					<trkpt lat="49.866180" lon="4.869970">
						<ele>323</ele>
						<time>2025-12-07T16:27:31Z</time>
					</trkpt>
					<trkpt lat="49.865980" lon="4.870070">
						<ele>327</ele>
						<time>2025-12-07T16:27:42Z</time>
					</trkpt>
					<trkpt lat="49.865840" lon="4.870150">
						<ele>329</ele>
						<time>2025-12-07T16:27:49Z</time>
					</trkpt>
					<trkpt lat="49.865480" lon="4.870250">
						<ele>336</ele>
						<time>2025-12-07T16:28:08Z</time>
					</trkpt>
					<trkpt lat="49.865280" lon="4.870220">
						<ele>340</ele>
						<time>2025-12-07T16:28:18Z</time>
					</trkpt>
					<trkpt lat="49.865110" lon="4.870310">
						<ele>343</ele>
						<time>2025-12-07T16:28:27Z</time>
					</trkpt>
					<trkpt lat="49.865050" lon="4.870360">
						<ele>344</ele>
						<time>2025-12-07T16:28:30Z</time>
					</trkpt>
					<trkpt lat="49.864870" lon="4.870440">
						<ele>348</ele>
						<time>2025-12-07T16:28:39Z</time>
					</trkpt>
					<trkpt lat="49.864810" lon="4.870430">
						<ele>349</ele>
						<time>2025-12-07T16:28:42Z</time>
					</trkpt>
					<trkpt lat="49.864730" lon="4.870470">
						<ele>350</ele>
						<time>2025-12-07T16:28:47Z</time>
					</trkpt>
					<trkpt lat="49.864580" lon="4.870480">
						<ele>353</ele>
						<time>2025-12-07T16:28:54Z</time>
					</trkpt>
					<trkpt lat="49.864460" lon="4.870450">
						<ele>355</ele>
						<time>2025-12-07T16:29:00Z</time>
					</trkpt>
					<trkpt lat="49.864320" lon="4.870400">
						<ele>358</ele>
						<time>2025-12-07T16:29:07Z</time>
					</trkpt>
					<trkpt lat="49.864100" lon="4.870170">
						<ele>362</ele>
						<time>2025-12-07T16:29:21Z</time>
					</trkpt>
					<trkpt lat="49.863870" lon="4.869880">
						<ele>363</ele>
						<time>2025-12-07T16:29:36Z</time>
					</trkpt>
					<trkpt lat="49.863410" lon="4.868940">
						<ele>367</ele>
						<time>2025-12-07T16:30:14Z</time>
					</trkpt>
					<trkpt lat="49.863230" lon="4.868720">
						<ele>368</ele>
						<time>2025-12-07T16:30:25Z</time>
					</trkpt>
					<trkpt lat="49.863010" lon="4.868490">
						<ele>368</ele>
						<time>2025-12-07T16:30:38Z</time>
					</trkpt>
					<trkpt lat="49.862590" lon="4.868240">
						<ele>369</ele>
						<time>2025-12-07T16:31:01Z</time>
					</trkpt>
					<trkpt lat="49.862130" lon="4.868010">
						<ele>370</ele>
						<time>2025-12-07T16:31:25Z</time>
					</trkpt>
					<trkpt lat="49.861820" lon="4.867890">
						<ele>371</ele>
						<time>2025-12-07T16:31:41Z</time>
					</trkpt>
					<trkpt lat="49.861560" lon="4.867890">
						<ele>373</ele>
						<time>2025-12-07T16:31:54Z</time>
					</trkpt>
					<trkpt lat="49.861540" lon="4.867900">
						<ele>373</ele>
						<time>2025-12-07T16:31:55Z</time>
					</trkpt>
					<trkpt lat="49.860860" lon="4.868310">
						<ele>379</ele>
						<time>2025-12-07T16:32:32Z</time>
					</trkpt>
					<trkpt lat="49.860910" lon="4.868690">
						<ele>377</ele>
						<time>2025-12-07T16:32:44Z</time>
					</trkpt>
					<trkpt lat="49.861460" lon="4.871230">
						<ele>370</ele>
						<time>2025-12-07T16:34:11Z</time>
					</trkpt>
					<trkpt lat="49.861480" lon="4.871400">
						<ele>370</ele>
						<time>2025-12-07T16:34:16Z</time>
					</trkpt>
					<trkpt lat="49.861420" lon="4.871630">
						<ele>371</ele>
						<time>2025-12-07T16:34:24Z</time>
					</trkpt>
					<trkpt lat="49.861380" lon="4.871940">
						<ele>370</ele>
						<time>2025-12-07T16:34:34Z</time>
					</trkpt>
					<trkpt lat="49.861520" lon="4.872870">
						<ele>367</ele>
						<time>2025-12-07T16:35:05Z</time>
					</trkpt>
					<trkpt lat="49.861540" lon="4.873100">
						<ele>365</ele>
						<time>2025-12-07T16:35:13Z</time>
					</trkpt>
					<trkpt lat="49.861650" lon="4.873660">
						<ele>360</ele>
						<time>2025-12-07T16:35:31Z</time>
					</trkpt>
					<trkpt lat="49.861660" lon="4.873980">
						<ele>358</ele>
						<time>2025-12-07T16:35:42Z</time>
					</trkpt>
					<trkpt lat="49.861630" lon="4.874210">
						<ele>355</ele>
						<time>2025-12-07T16:35:49Z</time>
					</trkpt>
					<trkpt lat="49.861560" lon="4.874480">
						<ele>352</ele>
						<time>2025-12-07T16:35:59Z</time>
					</trkpt>
					<trkpt lat="49.861410" lon="4.874820">
						<ele>348</ele>
						<time>2025-12-07T16:36:12Z</time>
					</trkpt>
					<trkpt lat="49.861380" lon="4.874940">
						<ele>346</ele>
						<time>2025-12-07T16:36:16Z</time>
					</trkpt>
					<trkpt lat="49.861340" lon="4.875490">
						<ele>338</ele>
						<time>2025-12-07T16:36:34Z</time>
					</trkpt>
					<trkpt lat="49.861380" lon="4.876060">
						<ele>330</ele>
						<time>2025-12-07T16:36:53Z</time>
					</trkpt>
					<trkpt lat="49.861540" lon="4.876890">
						<ele>323</ele>
						<time>2025-12-07T16:37:21Z</time>
					</trkpt>
					<trkpt lat="49.861700" lon="4.877710">
						<ele>319</ele>
						<time>2025-12-07T16:37:48Z</time>
					</trkpt>
					<trkpt lat="49.861800" lon="4.877810">
						<ele>316</ele>
						<time>2025-12-07T16:37:54Z</time>
					</trkpt>
					<trkpt lat="49.861910" lon="4.877870">
						<ele>313</ele>
						<time>2025-12-07T16:38:00Z</time>
					</trkpt>
					<trkpt lat="49.861980" lon="4.877880">
						<ele>312</ele>
						<time>2025-12-07T16:38:03Z</time>
					</trkpt>
					<trkpt lat="49.862000" lon="4.877940">
						<ele>312</ele>
						<time>2025-12-07T16:38:06Z</time>
					</trkpt>
					<trkpt lat="49.862000" lon="4.877950">
						<ele>311</ele>
						<time>2025-12-07T16:38:06Z</time>
					</trkpt>
					<trkpt lat="49.862170" lon="4.878390">
						<ele>307</ele>
						<time>2025-12-07T16:38:23Z</time>
					</trkpt>
					<trkpt lat="49.862260" lon="4.878550">
						<ele>306</ele>
						<time>2025-12-07T16:38:29Z</time>
					</trkpt>
					<trkpt lat="49.862380" lon="4.878870">
						<ele>304</ele>
						<time>2025-12-07T16:38:41Z</time>
					</trkpt>
					<trkpt lat="49.862500" lon="4.879190">
						<ele>304</ele>
						<time>2025-12-07T16:38:53Z</time>
					</trkpt>
					<trkpt lat="49.862580" lon="4.879300">
						<ele>297</ele>
						<time>2025-12-07T16:38:59Z</time>
					</trkpt>
					<trkpt lat="49.862620" lon="4.879410">
						<ele>293</ele>
						<time>2025-12-07T16:39:03Z</time>
					</trkpt>
					<trkpt lat="49.862670" lon="4.879480">
						<ele>289</ele>
						<time>2025-12-07T16:39:06Z</time>
					</trkpt>
					<trkpt lat="49.862720" lon="4.879530">
						<ele>286</ele>
						<time>2025-12-07T16:39:09Z</time>
					</trkpt>
					<trkpt lat="49.862740" lon="4.879600">
						<ele>283</ele>
						<time>2025-12-07T16:39:11Z</time>
					</trkpt>
					<trkpt lat="49.862690" lon="4.879620">
						<ele>286</ele>
						<time>2025-12-07T16:39:14Z</time>
					</trkpt>
					<trkpt lat="49.862660" lon="4.879650">
						<ele>287</ele>
						<time>2025-12-07T16:39:16Z</time>
					</trkpt>
					<trkpt lat="49.862570" lon="4.879660">
						<ele>292</ele>
						<time>2025-12-07T16:39:20Z</time>
					</trkpt>
					<trkpt lat="49.862490" lon="4.879610">
						<ele>297</ele>
						<time>2025-12-07T16:39:25Z</time>
					</trkpt>
					<trkpt lat="49.862400" lon="4.879520">
						<ele>297</ele>
						<time>2025-12-07T16:39:30Z</time>
					</trkpt>
					<trkpt lat="49.862350" lon="4.879430">
						<ele>297</ele>
						<time>2025-12-07T16:39:34Z</time>
					</trkpt>
					<trkpt lat="49.862280" lon="4.879420">
						<ele>296</ele>
						<time>2025-12-07T16:39:37Z</time>
					</trkpt>
					<trkpt lat="49.862280" lon="4.879530">
						<ele>294</ele>
						<time>2025-12-07T16:39:41Z</time>
					</trkpt>
					<trkpt lat="49.862320" lon="4.879750">
						<ele>291</ele>
						<time>2025-12-07T16:39:48Z</time>
					</trkpt>
					<trkpt lat="49.862370" lon="4.879890">
						<ele>290</ele>
						<time>2025-12-07T16:39:53Z</time>
					</trkpt>
					<trkpt lat="49.862380" lon="4.880050">
						<ele>287</ele>
						<time>2025-12-07T16:39:59Z</time>
					</trkpt>
					<trkpt lat="49.862480" lon="4.880490">
						<ele>281</ele>
						<time>2025-12-07T16:40:14Z</time>
					</trkpt>
					<trkpt lat="49.862480" lon="4.880610">
						<ele>279</ele>
						<time>2025-12-07T16:40:18Z</time>
					</trkpt>
					<trkpt lat="49.862490" lon="4.880670">
						<ele>278</ele>
						<time>2025-12-07T16:40:20Z</time>
					</trkpt>
					<trkpt lat="49.862460" lon="4.880700">
						<ele>277</ele>
						<time>2025-12-07T16:40:21Z</time>
					</trkpt>
					<trkpt lat="49.862430" lon="4.880670">
						<ele>276</ele>
						<time>2025-12-07T16:40:23Z</time>
					</trkpt>
					<trkpt lat="49.862400" lon="4.880670">
						<ele>276</ele>
						<time>2025-12-07T16:40:25Z</time>
					</trkpt>
					<trkpt lat="49.862300" lon="4.880610">
						<ele>274</ele>
						<time>2025-12-07T16:40:30Z</time>
					</trkpt>
					<trkpt lat="49.862200" lon="4.880590">
						<ele>272</ele>
						<time>2025-12-07T16:40:35Z</time>
					</trkpt>
					<trkpt lat="49.862140" lon="4.880660">
						<ele>269</ele>
						<time>2025-12-07T16:40:39Z</time>
					</trkpt>
					<trkpt lat="49.862140" lon="4.880840">
						<ele>266</ele>
						<time>2025-12-07T16:40:45Z</time>
					</trkpt>
					<trkpt lat="49.862180" lon="4.881000">
						<ele>264</ele>
						<time>2025-12-07T16:40:50Z</time>
					</trkpt>
					<trkpt lat="49.862180" lon="4.881210">
						<ele>260</ele>
						<time>2025-12-07T16:40:57Z</time>
					</trkpt>
					<trkpt lat="49.862240" lon="4.881590">
						<ele>253</ele>
						<time>2025-12-07T16:41:10Z</time>
					</trkpt>
					<trkpt lat="49.862330" lon="4.881870">
						<ele>248</ele>
						<time>2025-12-07T16:41:20Z</time>
					</trkpt>
					<trkpt lat="49.862510" lon="4.882480">
						<ele>236</ele>
						<time>2025-12-07T16:41:41Z</time>
					</trkpt>
					<trkpt lat="49.862510" lon="4.882590">
						<ele>234</ele>
						<time>2025-12-07T16:41:45Z</time>
					</trkpt>
					<trkpt lat="49.862550" lon="4.882880">
						<ele>228</ele>
						<time>2025-12-07T16:41:54Z</time>
					</trkpt>
					<trkpt lat="49.862560" lon="4.883010">
						<ele>226</ele>
						<time>2025-12-07T16:41:59Z</time>
					</trkpt>
					<trkpt lat="49.862550" lon="4.883330">
						<ele>221</ele>
						<time>2025-12-07T16:42:09Z</time>
					</trkpt>
					<trkpt lat="49.862510" lon="4.883480">
						<ele>218</ele>
						<time>2025-12-07T16:42:14Z</time>
					</trkpt>
					<trkpt lat="49.862460" lon="4.883590">
						<ele>214</ele>
						<time>2025-12-07T16:42:19Z</time>
					</trkpt>
					<trkpt lat="49.862440" lon="4.883810">
						<ele>208</ele>
						<time>2025-12-07T16:42:26Z</time>
					</trkpt>
					<trkpt lat="49.862610" lon="4.884110">
						<ele>198</ele>
						<time>2025-12-07T16:42:39Z</time>
					</trkpt>
					<trkpt lat="49.862910" lon="4.884260">
						<ele>191</ele>
						<time>2025-12-07T16:42:54Z</time>
					</trkpt>
					<trkpt lat="49.863100" lon="4.884350">
						<ele>188</ele>
						<time>2025-12-07T16:43:04Z</time>
					</trkpt>
					<trkpt lat="49.863320" lon="4.884410">
						<ele>185</ele>
						<time>2025-12-07T16:43:15Z</time>
					</trkpt>
					<trkpt lat="49.863400" lon="4.884410">
						<ele>183</ele>
						<time>2025-12-07T16:43:19Z</time>
					</trkpt>
					<trkpt lat="49.863430" lon="4.884440">
						<ele>182</ele>
						<time>2025-12-07T16:43:21Z</time>
					</trkpt>
					<trkpt lat="49.863570" lon="4.884800">
						<ele>176</ele>
						<time>2025-12-07T16:43:35Z</time>
					</trkpt>
					<trkpt lat="49.863700" lon="4.884730">
						<ele>175</ele>
						<time>2025-12-07T16:43:42Z</time>
					</trkpt>
					<trkpt lat="49.863720" lon="4.884620">
						<ele>176</ele>
						<time>2025-12-07T16:43:45Z</time>
					</trkpt>
					<trkpt lat="49.863820" lon="4.884460">
						<ele>176</ele>
						<time>2025-12-07T16:43:53Z</time>
					</trkpt>
					<trkpt lat="49.863950" lon="4.884270">
						<ele>175</ele>
						<time>2025-12-07T16:44:02Z</time>
					</trkpt>
					<trkpt lat="49.863980" lon="4.884270">
						<ele>174</ele>
						<time>2025-12-07T16:44:03Z</time>
					</trkpt>
					<trkpt lat="49.864060" lon="4.884230">
						<ele>173</ele>
						<time>2025-12-07T16:44:07Z</time>
					</trkpt>
					<trkpt lat="49.864090" lon="4.884310">
						<ele>172</ele>
						<time>2025-12-07T16:44:10Z</time>
					</trkpt>
					<trkpt lat="49.864100" lon="4.884290">
						<ele>172</ele>
						<time>2025-12-07T16:44:11Z</time>
					</trkpt>
					<trkpt lat="49.864720" lon="4.883640">
						<ele>174</ele>
						<time>2025-12-07T16:44:49Z</time>
					</trkpt>
					<trkpt lat="49.864760" lon="4.883590">
						<ele>174</ele>
						<time>2025-12-07T16:44:51Z</time>
					</trkpt>
					<trkpt lat="49.864850" lon="4.883480">
						<ele>174</ele>
						<time>2025-12-07T16:44:57Z</time>
					</trkpt>
					<trkpt lat="49.864920" lon="4.883380">
						<ele>175</ele>
						<time>2025-12-07T16:45:02Z</time>
					</trkpt>
					<trkpt lat="49.864920" lon="4.883510">
						<ele>175</ele>
						<time>2025-12-07T16:45:06Z</time>
					</trkpt>
					<trkpt lat="49.864760" lon="4.883770">
						<ele>174</ele>
						<time>2025-12-07T16:45:17Z</time>
					</trkpt>
					<trkpt lat="49.864730" lon="4.883870">
						<ele>173</ele>
						<time>2025-12-07T16:45:21Z</time>
					</trkpt>
					<trkpt lat="49.864750" lon="4.883980">
						<ele>173</ele>
						<time>2025-12-07T16:45:25Z</time>
					</trkpt>
					<trkpt lat="49.864800" lon="4.884120">
						<ele>173</ele>
						<time>2025-12-07T16:45:30Z</time>
					</trkpt>
					<trkpt lat="49.864880" lon="4.884260">
						<ele>173</ele>
						<time>2025-12-07T16:45:36Z</time>
					</trkpt>
					<trkpt lat="49.864910" lon="4.884300">
						<ele>173</ele>
						<time>2025-12-07T16:45:38Z</time>
					</trkpt>
					<trkpt lat="49.864990" lon="4.884390">
						<ele>173</ele>
						<time>2025-12-07T16:45:43Z</time>
					</trkpt>
					<trkpt lat="49.865020" lon="4.884400">
						<ele>173</ele>
						<time>2025-12-07T16:45:44Z</time>
					</trkpt>
					<trkpt lat="49.865140" lon="4.884340">
						<ele>175</ele>
						<time>2025-12-07T16:45:51Z</time>
					</trkpt>
					<trkpt lat="49.865280" lon="4.884300">
						<ele>177</ele>
						<time>2025-12-07T16:45:58Z</time>
					</trkpt>
					<trkpt lat="49.865370" lon="4.884300">
						<ele>178</ele>
						<time>2025-12-07T16:46:02Z</time>
					</trkpt>
					<trkpt lat="49.865490" lon="4.884320">
						<ele>179</ele>
						<time>2025-12-07T16:46:08Z</time>
					</trkpt>
					<trkpt lat="49.865570" lon="4.884280">
						<ele>180</ele>
						<time>2025-12-07T16:46:12Z</time>
					</trkpt>
					<trkpt lat="49.865630" lon="4.884280">
						<ele>181</ele>
						<time>2025-12-07T16:46:15Z</time>
					</trkpt>
					<trkpt lat="49.865730" lon="4.884350">
						<ele>182</ele>
						<time>2025-12-07T16:46:21Z</time>
					</trkpt>
					<trkpt lat="49.865920" lon="4.884520">
						<ele>182</ele>
						<time>2025-12-07T16:46:32Z</time>
					</trkpt>
					<trkpt lat="49.865960" lon="4.884530">
						<ele>183</ele>
						<time>2025-12-07T16:46:34Z</time>
					</trkpt>
					<trkpt lat="49.865990" lon="4.884520">
						<ele>184</ele>
						<time>2025-12-07T16:46:35Z</time>
					</trkpt>
					<trkpt lat="49.866030" lon="4.884470">
						<ele>185</ele>
						<time>2025-12-07T16:46:38Z</time>
					</trkpt>
					<trkpt lat="49.866040" lon="4.884410">
						<ele>186</ele>
						<time>2025-12-07T16:46:40Z</time>
					</trkpt>
					<trkpt lat="49.866080" lon="4.884320">
						<ele>188</ele>
						<time>2025-12-07T16:46:44Z</time>
					</trkpt>
					<trkpt lat="49.866110" lon="4.884320">
						<ele>189</ele>
						<time>2025-12-07T16:46:45Z</time>
					</trkpt>
					<trkpt lat="49.866180" lon="4.884360">
						<ele>189</ele>
						<time>2025-12-07T16:46:49Z</time>
					</trkpt>
					<trkpt lat="49.866300" lon="4.884410">
						<ele>191</ele>
						<time>2025-12-07T16:46:55Z</time>
					</trkpt>
					<trkpt lat="49.866400" lon="4.884420">
						<ele>193</ele>
						<time>2025-12-07T16:47:00Z</time>
					</trkpt>
					<trkpt lat="49.866560" lon="4.884410">
						<ele>196</ele>
						<time>2025-12-07T16:47:08Z</time>
					</trkpt>
					<trkpt lat="49.866970" lon="4.884200">
						<ele>204</ele>
						<time>2025-12-07T16:47:30Z</time>
					</trkpt>
					<trkpt lat="49.867030" lon="4.884160">
						<ele>205</ele>
						<time>2025-12-07T16:47:33Z</time>
					</trkpt>
					<trkpt lat="49.867440" lon="4.883410">
						<ele>222</ele>
						<time>2025-12-07T16:48:05Z</time>
					</trkpt>
					<trkpt lat="49.868090" lon="4.882840">
						<ele>232</ele>
						<time>2025-12-07T16:48:42Z</time>
					</trkpt>
					<trkpt lat="49.868540" lon="4.882360">
						<ele>238</ele>
						<time>2025-12-07T16:49:09Z</time>
					</trkpt>
					<trkpt lat="49.868660" lon="4.882290">
						<ele>239</ele>
						<time>2025-12-07T16:49:16Z</time>
					</trkpt>
					<trkpt lat="49.869080" lon="4.881880">
						<ele>241</ele>
						<time>2025-12-07T16:49:41Z</time>
					</trkpt>
					<trkpt lat="49.869140" lon="4.881800">
						<ele>241</ele>
						<time>2025-12-07T16:49:45Z</time>
					</trkpt>
					<trkpt lat="49.869880" lon="4.880820">
						<ele>236</ele>
						<time>2025-12-07T16:50:33Z</time>
					</trkpt>
					<trkpt lat="49.870070" lon="4.880650">
						<ele>234</ele>
						<time>2025-12-07T16:50:44Z</time>
					</trkpt>
					<trkpt lat="49.870110" lon="4.880630">
						<ele>233</ele>
						<time>2025-12-07T16:50:46Z</time>
					</trkpt>
					<trkpt lat="49.870300" lon="4.880570">
						<ele>232</ele>
						<time>2025-12-07T16:50:56Z</time>
					</trkpt>
					<trkpt lat="49.870500" lon="4.880570">
						<ele>231</ele>
						<time>2025-12-07T16:51:06Z</time>
					</trkpt>
					<trkpt lat="49.870650" lon="4.880550">
						<ele>231</ele>
						<time>2025-12-07T16:51:14Z</time>
					</trkpt>
					<trkpt lat="49.870910" lon="4.880550">
						<ele>230</ele>
						<time>2025-12-07T16:51:27Z</time>
					</trkpt>
					<trkpt lat="49.871100" lon="4.880470">
						<ele>228</ele>
						<time>2025-12-07T16:51:36Z</time>
					</trkpt>
					<trkpt lat="49.871240" lon="4.880380">
						<ele>226</ele>
						<time>2025-12-07T16:51:44Z</time>
					</trkpt>
					<trkpt lat="49.871400" lon="4.880300">
						<ele>224</ele>
						<time>2025-12-07T16:51:52Z</time>
					</trkpt>
					<trkpt lat="49.871580" lon="4.880240">
						<ele>223</ele>
						<time>2025-12-07T16:52:02Z</time>
					</trkpt>
					<trkpt lat="49.872370" lon="4.880100">
						<ele>222</ele>
						<time>2025-12-07T16:52:41Z</time>
					</trkpt>
					<trkpt lat="49.872690" lon="4.880020">
						<ele>223</ele>
						<time>2025-12-07T16:52:58Z</time>
					</trkpt>
					<trkpt lat="49.872750" lon="4.879960">
						<ele>223</ele>
						<time>2025-12-07T16:53:01Z</time>
					</trkpt>
					<trkpt lat="49.872910" lon="4.879940">
						<ele>224</ele>
						<time>2025-12-07T16:53:09Z</time>
					</trkpt>
					<trkpt lat="49.873030" lon="4.879910">
						<ele>225</ele>
						<time>2025-12-07T16:53:15Z</time>
					</trkpt>
					<trkpt lat="49.873400" lon="4.879710">
						<ele>225</ele>
						<time>2025-12-07T16:53:35Z</time>
					</trkpt>
					<trkpt lat="49.873510" lon="4.879670">
						<ele>227</ele>
						<time>2025-12-07T16:53:41Z</time>
					</trkpt>
					<trkpt lat="49.873760" lon="4.879610">
						<ele>230</ele>
						<time>2025-12-07T16:53:53Z</time>
					</trkpt>
					<trkpt lat="49.873940" lon="4.879620">
						<ele>234</ele>
						<time>2025-12-07T16:54:02Z</time>
					</trkpt>
					<trkpt lat="49.874110" lon="4.879590">
						<ele>237</ele>
						<time>2025-12-07T16:54:11Z</time>
					</trkpt>
					<trkpt lat="49.874200" lon="4.879560">
						<ele>238</ele>
						<time>2025-12-07T16:54:15Z</time>
					</trkpt>
					<trkpt lat="49.874280" lon="4.879680">
						<ele>240</ele>
						<time>2025-12-07T16:54:21Z</time>
					</trkpt>
					<trkpt lat="49.874400" lon="4.879750">
						<ele>242</ele>
						<time>2025-12-07T16:54:27Z</time>
					</trkpt>
					<trkpt lat="49.874500" lon="4.879770">
						<ele>244</ele>
						<time>2025-12-07T16:54:32Z</time>
					</trkpt>
					<trkpt lat="49.874550" lon="4.879770">
						<ele>245</ele>
						<time>2025-12-07T16:54:35Z</time>
					</trkpt>
					<trkpt lat="49.874770" lon="4.879670">
						<ele>247</ele>
						<time>2025-12-07T16:54:46Z</time>
					</trkpt>
					<trkpt lat="49.874850" lon="4.879620">
						<ele>248</ele>
						<time>2025-12-07T16:54:51Z</time>
					</trkpt>
					<trkpt lat="49.875040" lon="4.879620">
						<ele>251</ele>
						<time>2025-12-07T16:55:00Z</time>
					</trkpt>
					<trkpt lat="49.875150" lon="4.879650">
						<ele>253</ele>
						<time>2025-12-07T16:55:06Z</time>
					</trkpt>
					<trkpt lat="49.875200" lon="4.879630">
						<ele>254</ele>
						<time>2025-12-07T16:55:08Z</time>
					</trkpt>
					<trkpt lat="49.875330" lon="4.879620">
						<ele>257</ele>
						<time>2025-12-07T16:55:15Z</time>
					</trkpt>
					<trkpt lat="49.875390" lon="4.879660">
						<ele>258</ele>
						<time>2025-12-07T16:55:18Z</time>
					</trkpt>
					<trkpt lat="49.875430" lon="4.879640">
						<ele>259</ele>
						<time>2025-12-07T16:55:20Z</time>
					</trkpt>
					<trkpt lat="49.875490" lon="4.879630">
						<ele>260</ele>
						<time>2025-12-07T16:55:23Z</time>
					</trkpt>
					<trkpt lat="49.875530" lon="4.879630">
						<ele>261</ele>
						<time>2025-12-07T16:55:25Z</time>
					</trkpt>
					<trkpt lat="49.875560" lon="4.879650">
						<ele>261</ele>
						<time>2025-12-07T16:55:27Z</time>
					</trkpt>
					<trkpt lat="49.875690" lon="4.879660">
						<ele>264</ele>
						<time>2025-12-07T16:55:33Z</time>
					</trkpt>
					<trkpt lat="49.875850" lon="4.879680">
						<ele>267</ele>
						<time>2025-12-07T16:55:42Z</time>
					</trkpt>
					<trkpt lat="49.875980" lon="4.879620">
						<ele>269</ele>
						<time>2025-12-07T16:55:48Z</time>
					</trkpt>
					<trkpt lat="49.876200" lon="4.879600">
						<ele>271</ele>
						<time>2025-12-07T16:55:59Z</time>
					</trkpt>
					<trkpt lat="49.876300" lon="4.879490">
						<ele>272</ele>
						<time>2025-12-07T16:56:05Z</time>
					</trkpt>
					<trkpt lat="49.876370" lon="4.879450">
						<ele>273</ele>
						<time>2025-12-07T16:56:09Z</time>
					</trkpt>
					<trkpt lat="49.876500" lon="4.879470">
						<ele>274</ele>
						<time>2025-12-07T16:56:16Z</time>
					</trkpt>
					<trkpt lat="49.876590" lon="4.879550">
						<ele>276</ele>
						<time>2025-12-07T16:56:21Z</time>
					</trkpt>
					<trkpt lat="49.876620" lon="4.879560">
						<ele>277</ele>
						<time>2025-12-07T16:56:22Z</time>
					</trkpt>
					<trkpt lat="49.876830" lon="4.879680">
						<ele>279</ele>
						<time>2025-12-07T16:56:34Z</time>
					</trkpt>
					<trkpt lat="49.877100" lon="4.879710">
						<ele>279</ele>
						<time>2025-12-07T16:56:47Z</time>
					</trkpt>
					<trkpt lat="49.877220" lon="4.879740">
						<ele>280</ele>
						<time>2025-12-07T16:56:53Z</time>
					</trkpt>
					<trkpt lat="49.877350" lon="4.879670">
						<ele>280</ele>
						<time>2025-12-07T16:57:00Z</time>
					</trkpt>
					<trkpt lat="49.877420" lon="4.879620">
						<ele>279</ele>
						<time>2025-12-07T16:57:04Z</time>
					</trkpt>
					<trkpt lat="49.877630" lon="4.879560">
						<ele>280</ele>
						<time>2025-12-07T16:57:15Z</time>
					</trkpt>
					<trkpt lat="49.877710" lon="4.879580">
						<ele>280</ele>
						<time>2025-12-07T16:57:19Z</time>
					</trkpt>
					<trkpt lat="49.878060" lon="4.879560">
						<ele>282</ele>
						<time>2025-12-07T16:57:36Z</time>
					</trkpt>
					<trkpt lat="49.878160" lon="4.879530">
						<ele>283</ele>
						<time>2025-12-07T16:57:41Z</time>
					</trkpt>
					<trkpt lat="49.878310" lon="4.879470">
						<ele>283</ele>
						<time>2025-12-07T16:57:49Z</time>
					</trkpt>
					<trkpt lat="49.878350" lon="4.879470">
						<ele>284</ele>
						<time>2025-12-07T16:57:51Z</time>
					</trkpt>
					<trkpt lat="49.878410" lon="4.879410">
						<ele>285</ele>
						<time>2025-12-07T16:57:55Z</time>
					</trkpt>
					<trkpt lat="49.878440" lon="4.879360">
						<ele>286</ele>
						<time>2025-12-07T16:57:57Z</time>
					</trkpt>
					<trkpt lat="49.878480" lon="4.879220">
						<ele>287</ele>
						<time>2025-12-07T16:58:02Z</time>
					</trkpt>
					<trkpt lat="49.878530" lon="4.879150">
						<ele>288</ele>
						<time>2025-12-07T16:58:05Z</time>
					</trkpt>
					<trkpt lat="49.878910" lon="4.878830">
						<ele>292</ele>
						<time>2025-12-07T16:58:27Z</time>
					</trkpt>
					<trkpt lat="49.878930" lon="4.878790">
						<ele>292</ele>
						<time>2025-12-07T16:58:28Z</time>
					</trkpt>
					<trkpt lat="49.879000" lon="4.878720">
						<ele>293</ele>
						<time>2025-12-07T16:58:33Z</time>
					</trkpt>
					<trkpt lat="49.879260" lon="4.878560">
						<ele>296</ele>
						<time>2025-12-07T16:58:47Z</time>
					</trkpt>
					<trkpt lat="49.879320" lon="4.878530">
						<ele>296</ele>
						<time>2025-12-07T16:58:50Z</time>
					</trkpt>
					<trkpt lat="49.879450" lon="4.878520">
						<ele>297</ele>
						<time>2025-12-07T16:58:56Z</time>
					</trkpt>
					<trkpt lat="49.879650" lon="4.878450">
						<ele>298</ele>
						<time>2025-12-07T16:59:07Z</time>
					</trkpt>
					<trkpt lat="49.879800" lon="4.878470">
						<ele>300</ele>
						<time>2025-12-07T16:59:14Z</time>
					</trkpt>
					<trkpt lat="49.879980" lon="4.878570">
						<ele>302</ele>
						<time>2025-12-07T16:59:24Z</time>
					</trkpt>
					<trkpt lat="49.880080" lon="4.878650">
						<ele>302</ele>
						<time>2025-12-07T16:59:29Z</time>
					</trkpt>
					<trkpt lat="49.880250" lon="4.878740">
						<ele>302</ele>
						<time>2025-12-07T16:59:38Z</time>
					</trkpt>
					<trkpt lat="49.880470" lon="4.878950">
						<ele>303</ele>
						<time>2025-12-07T16:59:51Z</time>
					</trkpt>
					<trkpt lat="49.880730" lon="4.879250">
						<ele>306</ele>
						<time>2025-12-07T17:00:07Z</time>
					</trkpt>
					<trkpt lat="49.880840" lon="4.879390">
						<ele>307</ele>
						<time>2025-12-07T17:00:15Z</time>
					</trkpt>
					<trkpt lat="49.881020" lon="4.879520">
						<ele>310</ele>
						<time>2025-12-07T17:00:25Z</time>
					</trkpt>
					<trkpt lat="49.881330" lon="4.879740">
						<ele>315</ele>
						<time>2025-12-07T17:00:42Z</time>
					</trkpt>
					<trkpt lat="49.881400" lon="4.879830">
						<ele>317</ele>
						<time>2025-12-07T17:00:46Z</time>
					</trkpt>
					<trkpt lat="49.881520" lon="4.880210">
						<ele>317</ele>
						<time>2025-12-07T17:01:00Z</time>
					</trkpt>
					<trkpt lat="49.881580" lon="4.880420">
						<ele>316</ele>
						<time>2025-12-07T17:01:07Z</time>
					</trkpt>
					<trkpt lat="49.881690" lon="4.880580">
						<ele>316</ele>
						<time>2025-12-07T17:01:15Z</time>
					</trkpt>
					<trkpt lat="49.881780" lon="4.880790">
						<ele>316</ele>
						<time>2025-12-07T17:01:23Z</time>
					</trkpt>
					<trkpt lat="49.881930" lon="4.881160">
						<ele>315</ele>
						<time>2025-12-07T17:01:37Z</time>
					</trkpt>
					<trkpt lat="49.882220" lon="4.881640">
						<ele>317</ele>
						<time>2025-12-07T17:01:58Z</time>
					</trkpt>
					<trkpt lat="49.882370" lon="4.881980">
						<ele>316</ele>
						<time>2025-12-07T17:02:11Z</time>
					</trkpt>
					<trkpt lat="49.882570" lon="4.882410">
						<ele>316</ele>
						<time>2025-12-07T17:02:29Z</time>
					</trkpt>
					<trkpt lat="49.882670" lon="4.882650">
						<ele>317</ele>
						<time>2025-12-07T17:02:38Z</time>
					</trkpt>
					<trkpt lat="49.882770" lon="4.882970">
						<ele>317</ele>
						<time>2025-12-07T17:02:49Z</time>
					</trkpt>
					<trkpt lat="49.882890" lon="4.883180">
						<ele>319</ele>
						<time>2025-12-07T17:02:58Z</time>
					</trkpt>
					<trkpt lat="49.882950" lon="4.883320">
						<ele>319</ele>
						<time>2025-12-07T17:03:04Z</time>
					</trkpt>
					<trkpt lat="49.882990" lon="4.883400">
						<ele>320</ele>
						<time>2025-12-07T17:03:07Z</time>
					</trkpt>
					<trkpt lat="49.883170" lon="4.883780">
						<ele>321</ele>
						<time>2025-12-07T17:03:22Z</time>
					</trkpt>
					<trkpt lat="49.883390" lon="4.884290">
						<ele>321</ele>
						<time>2025-12-07T17:03:42Z</time>
					</trkpt>
					<trkpt lat="49.883450" lon="4.884480">
						<ele>321</ele>
						<time>2025-12-07T17:03:49Z</time>
					</trkpt>
					<trkpt lat="49.883650" lon="4.884920">
						<ele>320</ele>
						<time>2025-12-07T17:04:06Z</time>
					</trkpt>
					<trkpt lat="49.883720" lon="4.885060">
						<ele>320</ele>
						<time>2025-12-07T17:04:12Z</time>
					</trkpt>
					<trkpt lat="49.883800" lon="4.885270">
						<ele>320</ele>
						<time>2025-12-07T17:04:20Z</time>
					</trkpt>
					<trkpt lat="49.883870" lon="4.885400">
						<ele>319</ele>
						<time>2025-12-07T17:04:25Z</time>
					</trkpt>
					<trkpt lat="49.883960" lon="4.885550">
						<ele>320</ele>
						<time>2025-12-07T17:04:32Z</time>
					</trkpt>
					<trkpt lat="49.884030" lon="4.885700">
						<ele>320</ele>
						<time>2025-12-07T17:04:38Z</time>
					</trkpt>
					<trkpt lat="49.884130" lon="4.885840">
						<ele>320</ele>
						<time>2025-12-07T17:04:45Z</time>
					</trkpt>
					<trkpt lat="49.884330" lon="4.886130">
						<ele>316</ele>
						<time>2025-12-07T17:04:58Z</time>
					</trkpt>
					<trkpt lat="49.884380" lon="4.886170">
						<ele>316</ele>
						<time>2025-12-07T17:05:01Z</time>
					</trkpt>
					<trkpt lat="49.884660" lon="4.886240">
						<ele>317</ele>
						<time>2025-12-07T17:05:15Z</time>
					</trkpt>
					<trkpt lat="49.884900" lon="4.886310">
						<ele>318</ele>
						<time>2025-12-07T17:05:27Z</time>
					</trkpt>
					<trkpt lat="49.885120" lon="4.886410">
						<ele>319</ele>
						<time>2025-12-07T17:05:39Z</time>
					</trkpt>
					<trkpt lat="49.885520" lon="4.886670">
						<ele>322</ele>
						<time>2025-12-07T17:06:01Z</time>
					</trkpt>
					<trkpt lat="49.885640" lon="4.886770">
						<ele>322</ele>
						<time>2025-12-07T17:06:07Z</time>
					</trkpt>
					<trkpt lat="49.885730" lon="4.886870">
						<ele>321</ele>
						<time>2025-12-07T17:06:13Z</time>
					</trkpt>
					<trkpt lat="49.886040" lon="4.887260">
						<ele>316</ele>
						<time>2025-12-07T17:06:33Z</time>
					</trkpt>
					<trkpt lat="49.886220" lon="4.887590">
						<ele>310</ele>
						<time>2025-12-07T17:06:47Z</time>
					</trkpt>
					<trkpt lat="49.886420" lon="4.887870">
						<ele>305</ele>
						<time>2025-12-07T17:07:00Z</time>
					</trkpt>
					<trkpt lat="49.886540" lon="4.888010">
						<ele>303</ele>
						<time>2025-12-07T17:07:08Z</time>
					</trkpt>
					<trkpt lat="49.886640" lon="4.888050">
						<ele>304</ele>
						<time>2025-12-07T17:07:13Z</time>
					</trkpt>
					<trkpt lat="49.886770" lon="4.888070">
						<ele>305</ele>
						<time>2025-12-07T17:07:20Z</time>
					</trkpt>
					<trkpt lat="49.886930" lon="4.888130">
						<ele>306</ele>
						<time>2025-12-07T17:07:28Z</time>
					</trkpt>
					<trkpt lat="49.887100" lon="4.888270">
						<ele>305</ele>
						<time>2025-12-07T17:07:37Z</time>
					</trkpt>
					<trkpt lat="49.887220" lon="4.888300">
						<ele>306</ele>
						<time>2025-12-07T17:07:44Z</time>
					</trkpt>
					<trkpt lat="49.887350" lon="4.888390">
						<ele>306</ele>
						<time>2025-12-07T17:07:51Z</time>
					</trkpt>
					<trkpt lat="49.887440" lon="4.888490">
						<ele>306</ele>
						<time>2025-12-07T17:07:56Z</time>
					</trkpt>
					<trkpt lat="49.887420" lon="4.888590">
						<ele>303</ele>
						<time>2025-12-07T17:08:00Z</time>
					</trkpt>
					<trkpt lat="49.887370" lon="4.888690">
						<ele>300</ele>
						<time>2025-12-07T17:08:04Z</time>
					</trkpt>
					<trkpt lat="49.887260" lon="4.888750">
						<ele>297</ele>
						<time>2025-12-07T17:08:09Z</time>
					</trkpt>
					<trkpt lat="49.887050" lon="4.888920">
						<ele>291</ele>
						<time>2025-12-07T17:08:21Z</time>
					</trkpt>
					<trkpt lat="49.886830" lon="4.889190">
						<ele>283</ele>
						<time>2025-12-07T17:08:35Z</time>
					</trkpt>
					<trkpt lat="49.886740" lon="4.889200">
						<ele>282</ele>
						<time>2025-12-07T17:08:40Z</time>
					</trkpt>
					<trkpt lat="49.886640" lon="4.889150">
						<ele>280</ele>
						<time>2025-12-07T17:08:45Z</time>
					</trkpt>
					<trkpt lat="49.886410" lon="4.888970">
						<ele>277</ele>
						<time>2025-12-07T17:08:58Z</time>
					</trkpt>
					<trkpt lat="49.886250" lon="4.888970">
						<ele>272</ele>
						<time>2025-12-07T17:09:06Z</time>
					</trkpt>
					<trkpt lat="49.886210" lon="4.888990">
						<ele>270</ele>
						<time>2025-12-07T17:09:08Z</time>
					</trkpt>
					<trkpt lat="49.886210" lon="4.888990">
						<ele>270</ele>
						<time>2025-12-07T17:09:08Z</time>
					</trkpt>
					<trkpt lat="49.886190" lon="4.889050">
						<ele>268</ele>
						<time>2025-12-07T17:09:10Z</time>
					</trkpt>
					<trkpt lat="49.886140" lon="4.889070">
						<ele>266</ele>
						<time>2025-12-07T17:09:13Z</time>
					</trkpt>
					<trkpt lat="49.886050" lon="4.889020">
						<ele>265</ele>
						<time>2025-12-07T17:09:18Z</time>
					</trkpt>
					<trkpt lat="49.886040" lon="4.889010">
						<ele>265</ele>
						<time>2025-12-07T17:09:18Z</time>
					</trkpt>
					<trkpt lat="49.885930" lon="4.889040">
						<ele>261</ele>
						<time>2025-12-07T17:09:24Z</time>
					</trkpt>
					<trkpt lat="49.885840" lon="4.889100">
						<ele>256</ele>
						<time>2025-12-07T17:09:29Z</time>
					</trkpt>
					<trkpt lat="49.885580" lon="4.889180">
						<ele>245</ele>
						<time>2025-12-07T17:09:42Z</time>
					</trkpt>
					<trkpt lat="49.885480" lon="4.889220">
						<ele>241</ele>
						<time>2025-12-07T17:09:47Z</time>
					</trkpt>
					<trkpt lat="49.885440" lon="4.889290">
						<ele>238</ele>
						<time>2025-12-07T17:09:50Z</time>
					</trkpt>
					<trkpt lat="49.885370" lon="4.889360">
						<ele>234</ele>
						<time>2025-12-07T17:09:54Z</time>
					</trkpt>
					<trkpt lat="49.885300" lon="4.889510">
						<ele>229</ele>
						<time>2025-12-07T17:10:00Z</time>
					</trkpt>
					<trkpt lat="49.885230" lon="4.889700">
						<ele>223</ele>
						<time>2025-12-07T17:10:07Z</time>
					</trkpt>
					<trkpt lat="49.885180" lon="4.889770">
						<ele>219</ele>
						<time>2025-12-07T17:10:11Z</time>
					</trkpt>
					<trkpt lat="49.885130" lon="4.889930">
						<ele>213</ele>
						<time>2025-12-07T17:10:17Z</time>
					</trkpt>
					<trkpt lat="49.885110" lon="4.890320">
						<ele>206</ele>
						<time>2025-12-07T17:10:29Z</time>
					</trkpt>
					<trkpt lat="49.885110" lon="4.890480">
						<ele>204</ele>
						<time>2025-12-07T17:10:34Z</time>
					</trkpt>
					<trkpt lat="49.885090" lon="4.890660">
						<ele>200</ele>
						<time>2025-12-07T17:10:40Z</time>
					</trkpt>
					<trkpt lat="49.885030" lon="4.890770">
						<ele>196</ele>
						<time>2025-12-07T17:10:45Z</time>
					</trkpt>
					<trkpt lat="49.885010" lon="4.890870">
						<ele>193</ele>
						<time>2025-12-07T17:10:48Z</time>
					</trkpt>
					<trkpt lat="49.885020" lon="4.891110">
						<ele>193</ele>
						<time>2025-12-07T17:10:56Z</time>
					</trkpt>
					<trkpt lat="49.885010" lon="4.891220">
						<ele>192</ele>
						<time>2025-12-07T17:11:00Z</time>
					</trkpt>
					<trkpt lat="49.885010" lon="4.891420">
						<ele>191</ele>
						<time>2025-12-07T17:11:06Z</time>
					</trkpt>
					<trkpt lat="49.885030" lon="4.891620">
						<ele>192</ele>
						<time>2025-12-07T17:11:13Z</time>
					</trkpt>
					<trkpt lat="49.885010" lon="4.891750">
						<ele>191</ele>
						<time>2025-12-07T17:11:17Z</time>
					</trkpt>
					<trkpt lat="49.884970" lon="4.891970">
						<ele>190</ele>
						<time>2025-12-07T17:11:24Z</time>
					</trkpt>
					<trkpt lat="49.884970" lon="4.892200">
						<ele>190</ele>
						<time>2025-12-07T17:11:32Z</time>
					</trkpt>
					<trkpt lat="49.884980" lon="4.892360">
						<ele>191</ele>
						<time>2025-12-07T17:11:37Z</time>
					</trkpt>
					<trkpt lat="49.885010" lon="4.892980">
						<ele>193</ele>
						<time>2025-12-07T17:11:57Z</time>
					</trkpt>
					<trkpt lat="49.884980" lon="4.893130">
						<ele>193</ele>
						<time>2025-12-07T17:12:02Z</time>
					</trkpt>
					<trkpt lat="49.885020" lon="4.893420">
						<ele>195</ele>
						<time>2025-12-07T17:12:12Z</time>
					</trkpt>
					<trkpt lat="49.884960" lon="4.893910">
						<ele>196</ele>
						<time>2025-12-07T17:12:28Z</time>
					</trkpt>
					<trkpt lat="49.884620" lon="4.894970">
						<ele>200</ele>
						<time>2025-12-07T17:13:06Z</time>
					</trkpt>
					<trkpt lat="49.884360" lon="4.895740">
						<ele>200</ele>
						<time>2025-12-07T17:13:34Z</time>
					</trkpt>
					<trkpt lat="49.884340" lon="4.895900">
						<ele>201</ele>
						<time>2025-12-07T17:13:39Z</time>
					</trkpt>
					<trkpt lat="49.884280" lon="4.896080">
						<ele>201</ele>
						<time>2025-12-07T17:13:46Z</time>
					</trkpt>
					<trkpt lat="49.884300" lon="4.896230">
						<ele>203</ele>
						<time>2025-12-07T17:13:51Z</time>
					</trkpt>
					<trkpt lat="49.884270" lon="4.896400">
						<ele>204</ele>
						<time>2025-12-07T17:13:56Z</time>
					</trkpt>
					<trkpt lat="49.884280" lon="4.896640">
						<ele>207</ele>
						<time>2025-12-07T17:14:04Z</time>
					</trkpt>
					<trkpt lat="49.884200" lon="4.896700">
						<ele>206</ele>
						<time>2025-12-07T17:14:08Z</time>
					</trkpt>
					<trkpt lat="49.884090" lon="4.896740">
						<ele>205</ele>
						<time>2025-12-07T17:14:14Z</time>
					</trkpt>
					<trkpt lat="49.883930" lon="4.896840">
						<ele>205</ele>
						<time>2025-12-07T17:14:23Z</time>
					</trkpt>
					<trkpt lat="49.883770" lon="4.897010">
						<ele>208</ele>
						<time>2025-12-07T17:14:32Z</time>
					</trkpt>
					<trkpt lat="49.883620" lon="4.897100">
						<ele>208</ele>
						<time>2025-12-07T17:14:40Z</time>
					</trkpt>
					<trkpt lat="49.883540" lon="4.897170">
						<ele>209</ele>
						<time>2025-12-07T17:14:45Z</time>
					</trkpt>
					<trkpt lat="49.883420" lon="4.897350">
						<ele>212</ele>
						<time>2025-12-07T17:14:53Z</time>
					</trkpt>
					<trkpt lat="49.883340" lon="4.897400">
						<ele>212</ele>
						<time>2025-12-07T17:14:58Z</time>
					</trkpt>
					<trkpt lat="49.883230" lon="4.897430">
						<ele>211</ele>
						<time>2025-12-07T17:15:03Z</time>
					</trkpt>
					<trkpt lat="49.883120" lon="4.897500">
						<ele>210</ele>
						<time>2025-12-07T17:15:09Z</time>
					</trkpt>
					<trkpt lat="49.882920" lon="4.897540">
						<ele>207</ele>
						<time>2025-12-07T17:15:19Z</time>
					</trkpt>
					<trkpt lat="49.882690" lon="4.897830">
						<ele>211</ele>
						<time>2025-12-07T17:15:34Z</time>
					</trkpt>
					<trkpt lat="49.882840" lon="4.897880">
						<ele>217</ele>
						<time>2025-12-07T17:15:42Z</time>
					</trkpt>
					<trkpt lat="49.882880" lon="4.897910">
						<ele>219</ele>
						<time>2025-12-07T17:15:44Z</time>
					</trkpt>
					<trkpt lat="49.883030" lon="4.897930">
						<ele>223</ele>
						<time>2025-12-07T17:15:52Z</time>
					</trkpt>
					<trkpt lat="49.883020" lon="4.898020">
						<ele>226</ele>
						<time>2025-12-07T17:15:55Z</time>
					</trkpt>
					<trkpt lat="49.883170" lon="4.898100">
						<ele>233</ele>
						<time>2025-12-07T17:16:02Z</time>
					</trkpt>
					<trkpt lat="49.883250" lon="4.898190">
						<ele>239</ele>
						<time>2025-12-07T17:16:07Z</time>
					</trkpt>
					<trkpt lat="49.883400" lon="4.898270">
						<ele>246</ele>
						<time>2025-12-07T17:16:15Z</time>
					</trkpt>
					<trkpt lat="49.883440" lon="4.898320">
						<ele>249</ele>
						<time>2025-12-07T17:16:18Z</time>
					</trkpt>
					<trkpt lat="49.883400" lon="4.898440">
						<ele>253</ele>
						<time>2025-12-07T17:16:22Z</time>
					</trkpt>
					<trkpt lat="49.883350" lon="4.898540">
						<ele>255</ele>
						<time>2025-12-07T17:16:26Z</time>
					</trkpt>
					<trkpt lat="49.883320" lon="4.898590">
						<ele>256</ele>
						<time>2025-12-07T17:16:29Z</time>
					</trkpt>
					<trkpt lat="49.883290" lon="4.898720">
						<ele>260</ele>
						<time>2025-12-07T17:16:33Z</time>
					</trkpt>
					<trkpt lat="49.883300" lon="4.898770">
						<ele>262</ele>
						<time>2025-12-07T17:16:35Z</time>
					</trkpt>
					<trkpt lat="49.883490" lon="4.898800">
						<ele>268</ele>
						<time>2025-12-07T17:16:44Z</time>
					</trkpt>
					<trkpt lat="49.883530" lon="4.898830">
						<ele>270</ele>
						<time>2025-12-07T17:16:47Z</time>
					</trkpt>
					<trkpt lat="49.883550" lon="4.898880">
						<ele>273</ele>
						<time>2025-12-07T17:16:48Z</time>
					</trkpt>
					<trkpt lat="49.883550" lon="4.898980">
						<ele>276</ele>
						<time>2025-12-07T17:16:52Z</time>
					</trkpt>
					<trkpt lat="49.883490" lon="4.899200">
						<ele>283</ele>
						<time>2025-12-07T17:16:59Z</time>
					</trkpt>
					<trkpt lat="49.883360" lon="4.899550">
						<ele>292</ele>
						<time>2025-12-07T17:17:12Z</time>
					</trkpt>
					<trkpt lat="49.883310" lon="4.899820">
						<ele>301</ele>
						<time>2025-12-07T17:17:21Z</time>
					</trkpt>
					<trkpt lat="49.883210" lon="4.900150">
						<ele>309</ele>
						<time>2025-12-07T17:17:33Z</time>
					</trkpt>
					<trkpt lat="49.882750" lon="4.900440">
						<ele>309</ele>
						<time>2025-12-07T17:17:58Z</time>
					</trkpt>
					<trkpt lat="49.882410" lon="4.900560">
						<ele>308</ele>
						<time>2025-12-07T17:18:15Z</time>
					</trkpt>
					<trkpt lat="49.882180" lon="4.900570">
						<ele>304</ele>
						<time>2025-12-07T17:18:27Z</time>
					</trkpt>
					<trkpt lat="49.882050" lon="4.900640">
						<ele>304</ele>
						<time>2025-12-07T17:18:34Z</time>
					</trkpt>
					<trkpt lat="49.882010" lon="4.900910">
						<ele>311</ele>
						<time>2025-12-07T17:18:43Z</time>
					</trkpt>
					<trkpt lat="49.881950" lon="4.901050">
						<ele>312</ele>
						<time>2025-12-07T17:18:48Z</time>
					</trkpt>
					<trkpt lat="49.881930" lon="4.901230">
						<ele>313</ele>
						<time>2025-12-07T17:18:54Z</time>
					</trkpt>
					<trkpt lat="49.881910" lon="4.901290">
						<ele>314</ele>
						<time>2025-12-07T17:18:56Z</time>
					</trkpt>
					<trkpt lat="49.881900" lon="4.901320">
						<ele>314</ele>
						<time>2025-12-07T17:18:57Z</time>
					</trkpt>
					<trkpt lat="49.881840" lon="4.901410">
						<ele>314</ele>
						<time>2025-12-07T17:19:02Z</time>
					</trkpt>
					<trkpt lat="49.881670" lon="4.901590">
						<ele>314</ele>
						<time>2025-12-07T17:19:12Z</time>
					</trkpt>
					<trkpt lat="49.881410" lon="4.901740">
						<ele>310</ele>
						<time>2025-12-07T17:19:26Z</time>
					</trkpt>
					<trkpt lat="49.880970" lon="4.901990">
						<ele>301</ele>
						<time>2025-12-07T17:19:49Z</time>
					</trkpt>
					<trkpt lat="49.880650" lon="4.901750">
						<ele>294</ele>
						<time>2025-12-07T17:20:07Z</time>
					</trkpt>
					<trkpt lat="49.880270" lon="4.901680">
						<ele>286</ele>
						<time>2025-12-07T17:20:26Z</time>
					</trkpt>
					<trkpt lat="49.879850" lon="4.900950">
						<ele>270</ele>
						<time>2025-12-07T17:20:58Z</time>
					</trkpt>
					<trkpt lat="49.879610" lon="4.900860">
						<ele>274</ele>
						<time>2025-12-07T17:21:10Z</time>
					</trkpt>
					<trkpt lat="49.879510" lon="4.900880">
						<ele>276</ele>
						<time>2025-12-07T17:21:15Z</time>
					</trkpt>
					<trkpt lat="49.879250" lon="4.900920">
						<ele>282</ele>
						<time>2025-12-07T17:21:28Z</time>
					</trkpt>
					<trkpt lat="49.879140" lon="4.900780">
						<ele>283</ele>
						<time>2025-12-07T17:21:35Z</time>
					</trkpt>
					<trkpt lat="49.879080" lon="4.900570">
						<ele>280</ele>
						<time>2025-12-07T17:21:43Z</time>
					</trkpt>
					<trkpt lat="49.879030" lon="4.900270">
						<ele>276</ele>
						<time>2025-12-07T17:21:53Z</time>
					</trkpt>
					<trkpt lat="49.878900" lon="4.899990">
						<ele>273</ele>
						<time>2025-12-07T17:22:04Z</time>
					</trkpt>
					<trkpt lat="49.878700" lon="4.899720">
						<ele>272</ele>
						<time>2025-12-07T17:22:17Z</time>
					</trkpt>
					<trkpt lat="49.878250" lon="4.898890">
						<ele>269</ele>
						<time>2025-12-07T17:22:52Z</time>
					</trkpt>
					<trkpt lat="49.878180" lon="4.898680">
						<ele>267</ele>
						<time>2025-12-07T17:23:00Z</time>
					</trkpt>
					<trkpt lat="49.878090" lon="4.898300">
						<ele>262</ele>
						<time>2025-12-07T17:23:13Z</time>
					</trkpt>
					<trkpt lat="49.877760" lon="4.897200">
						<ele>249</ele>
						<time>2025-12-07T17:23:52Z</time>
					</trkpt>
					<trkpt lat="49.877530" lon="4.896210">
						<ele>238</ele>
						<time>2025-12-07T17:24:26Z</time>
					</trkpt>
					<trkpt lat="49.877480" lon="4.895970">
						<ele>235</ele>
						<time>2025-12-07T17:24:34Z</time>
					</trkpt>
					<trkpt lat="49.877380" lon="4.895440">
						<ele>228</ele>
						<time>2025-12-07T17:24:52Z</time>
					</trkpt>
					<trkpt lat="49.877250" lon="4.894880">
						<ele>221</ele>
						<time>2025-12-07T17:25:11Z</time>
					</trkpt>
					<trkpt lat="49.877150" lon="4.894470">
						<ele>216</ele>
						<time>2025-12-07T17:25:25Z</time>
					</trkpt>
					<trkpt lat="49.877120" lon="4.894060">
						<ele>210</ele>
						<time>2025-12-07T17:25:38Z</time>
					</trkpt>
					<trkpt lat="49.877090" lon="4.893240">
						<ele>201</ele>
						<time>2025-12-07T17:26:05Z</time>
					</trkpt>
					<trkpt lat="49.876900" lon="4.892780">
						<ele>197</ele>
						<time>2025-12-07T17:26:22Z</time>
					</trkpt>
					<trkpt lat="49.876780" lon="4.892590">
						<ele>195</ele>
						<time>2025-12-07T17:26:31Z</time>
					</trkpt>
					<trkpt lat="49.876680" lon="4.892310">
						<ele>192</ele>
						<time>2025-12-07T17:26:41Z</time>
					</trkpt>
					<trkpt lat="49.876680" lon="4.892140">
						<ele>191</ele>
						<time>2025-12-07T17:26:47Z</time>
					</trkpt>
					<trkpt lat="49.876720" lon="4.892020">
						<ele>190</ele>
						<time>2025-12-07T17:26:51Z</time>
					</trkpt>
					<trkpt lat="49.877110" lon="4.891260">
						<ele>188</ele>
						<time>2025-12-07T17:27:23Z</time>
					</trkpt>
					<trkpt lat="49.877100" lon="4.891020">
						<ele>186</ele>
						<time>2025-12-07T17:27:30Z</time>
					</trkpt>
					<trkpt lat="49.877000" lon="4.890840">
						<ele>184</ele>
						<time>2025-12-07T17:27:38Z</time>
					</trkpt>
					<trkpt lat="49.876880" lon="4.890830">
						<ele>184</ele>
						<time>2025-12-07T17:27:44Z</time>
					</trkpt>
					<trkpt lat="49.876730" lon="4.890930">
						<ele>183</ele>
						<time>2025-12-07T17:27:52Z</time>
					</trkpt>
					<trkpt lat="49.876640" lon="4.890970">
						<ele>183</ele>
						<time>2025-12-07T17:27:57Z</time>
					</trkpt>
					<trkpt lat="49.876540" lon="4.891070">
						<ele>182</ele>
						<time>2025-12-07T17:28:03Z</time>
					</trkpt>
					<trkpt lat="49.876360" lon="4.891490">
						<ele>183</ele>
						<time>2025-12-07T17:28:19Z</time>
					</trkpt>
					<trkpt lat="49.876330" lon="4.891560">
						<ele>183</ele>
						<time>2025-12-07T17:28:22Z</time>
					</trkpt>
					<trkpt lat="49.876180" lon="4.892020">
						<ele>183</ele>
						<time>2025-12-07T17:28:38Z</time>
					</trkpt>
					<trkpt lat="49.876150" lon="4.892270">
						<ele>184</ele>
						<time>2025-12-07T17:28:47Z</time>
					</trkpt>
					<trkpt lat="49.876160" lon="4.893150">
						<ele>188</ele>
						<time>2025-12-07T17:29:15Z</time>
					</trkpt>
					<trkpt lat="49.876100" lon="4.893540">
						<ele>190</ele>
						<time>2025-12-07T17:29:28Z</time>
					</trkpt>
					<trkpt lat="49.876000" lon="4.893910">
						<ele>190</ele>
						<time>2025-12-07T17:29:41Z</time>
					</trkpt>
					<trkpt lat="49.875830" lon="4.894240">
						<ele>187</ele>
						<time>2025-12-07T17:29:54Z</time>
					</trkpt>
					<trkpt lat="49.875770" lon="4.894540">
						<ele>191</ele>
						<time>2025-12-07T17:30:05Z</time>
					</trkpt>
					<trkpt lat="49.875640" lon="4.894760">
						<ele>192</ele>
						<time>2025-12-07T17:30:14Z</time>
					</trkpt>
					<trkpt lat="49.875510" lon="4.895080">
						<ele>194</ele>
						<time>2025-12-07T17:30:26Z</time>
					</trkpt>
					<trkpt lat="49.875260" lon="4.895530">
						<ele>195</ele>
						<time>2025-12-07T17:30:46Z</time>
					</trkpt>
					<trkpt lat="49.875080" lon="4.895730">
						<ele>193</ele>
						<time>2025-12-07T17:30:57Z</time>
					</trkpt>
					<trkpt lat="49.874830" lon="4.895870">
						<ele>190</ele>
						<time>2025-12-07T17:31:10Z</time>
					</trkpt>
					<trkpt lat="49.874650" lon="4.895940">
						<ele>188</ele>
						<time>2025-12-07T17:31:19Z</time>
					</trkpt>
					<trkpt lat="49.874570" lon="4.896140">
						<ele>190</ele>
						<time>2025-12-07T17:31:27Z</time>
					</trkpt>
					<trkpt lat="49.874510" lon="4.896190">
						<ele>190</ele>
						<time>2025-12-07T17:31:30Z</time>
					</trkpt>
					<trkpt lat="49.874340" lon="4.896150">
						<ele>185</ele>
						<time>2025-12-07T17:31:39Z</time>
					</trkpt>
					<trkpt lat="49.874270" lon="4.896210">
						<ele>185</ele>
						<time>2025-12-07T17:31:43Z</time>
					</trkpt>
					<trkpt lat="49.874240" lon="4.896280">
						<ele>185</ele>
						<time>2025-12-07T17:31:46Z</time>
					</trkpt>
					<trkpt lat="49.874160" lon="4.896280">
						<ele>183</ele>
						<time>2025-12-07T17:31:50Z</time>
					</trkpt>
					<trkpt lat="49.874110" lon="4.896250">
						<ele>183</ele>
						<time>2025-12-07T17:31:52Z</time>
					</trkpt>
					<trkpt lat="49.873790" lon="4.896160">
						<ele>180</ele>
						<time>2025-12-07T17:32:09Z</time>
					</trkpt>
					<trkpt lat="49.873620" lon="4.896090">
						<ele>179</ele>
						<time>2025-12-07T17:32:17Z</time>
					</trkpt>
					<trkpt lat="49.873360" lon="4.895920">
						<ele>178</ele>
						<time>2025-12-07T17:32:31Z</time>
					</trkpt>
					<trkpt lat="49.873290" lon="4.895810">
						<ele>178</ele>
						<time>2025-12-07T17:32:36Z</time>
					</trkpt>
					<trkpt lat="49.873220" lon="4.895630">
						<ele>178</ele>
						<time>2025-12-07T17:32:43Z</time>
					</trkpt>
					<trkpt lat="49.873090" lon="4.895590">
						<ele>178</ele>
						<time>2025-12-07T17:32:50Z</time>
					</trkpt>
					<trkpt lat="49.872840" lon="4.895450">
						<ele>178</ele>
						<time>2025-12-07T17:33:03Z</time>
					</trkpt>
					<trkpt lat="49.872770" lon="4.895310">
						<ele>178</ele>
						<time>2025-12-07T17:33:09Z</time>
					</trkpt>
					<trkpt lat="49.872690" lon="4.895190">
						<ele>178</ele>
						<time>2025-12-07T17:33:14Z</time>
					</trkpt>
					<trkpt lat="49.872620" lon="4.895100">
						<ele>178</ele>
						<time>2025-12-07T17:33:19Z</time>
					</trkpt>
					<trkpt lat="49.872590" lon="4.894960">
						<ele>178</ele>
						<time>2025-12-07T17:33:24Z</time>
					</trkpt>
					<trkpt lat="49.872570" lon="4.894880">
						<ele>179</ele>
						<time>2025-12-07T17:33:27Z</time>
					</trkpt>
					<trkpt lat="49.872290" lon="4.894570">
						<ele>180</ele>
						<time>2025-12-07T17:33:44Z</time>
					</trkpt>
					<trkpt lat="49.872180" lon="4.894460">
						<ele>179</ele>
						<time>2025-12-07T17:33:50Z</time>
					</trkpt>
					<trkpt lat="49.872080" lon="4.894360">
						<ele>179</ele>
						<time>2025-12-07T17:33:56Z</time>
					</trkpt>
					<trkpt lat="49.871940" lon="4.894200">
						<ele>178</ele>
						<time>2025-12-07T17:34:05Z</time>
					</trkpt>
					<trkpt lat="49.871810" lon="4.894030">
						<ele>179</ele>
						<time>2025-12-07T17:34:13Z</time>
					</trkpt>
					<trkpt lat="49.871600" lon="4.893680">
						<ele>181</ele>
						<time>2025-12-07T17:34:29Z</time>
					</trkpt>
					<trkpt lat="49.871370" lon="4.893420">
						<ele>182</ele>
						<time>2025-12-07T17:34:43Z</time>
					</trkpt>
					<trkpt lat="49.871300" lon="4.893370">
						<ele>182</ele>
						<time>2025-12-07T17:34:47Z</time>
					</trkpt>
					<trkpt lat="49.871280" lon="4.893390">
						<ele>181</ele>
						<time>2025-12-07T17:34:48Z</time>
					</trkpt>
					<trkpt lat="49.871210" lon="4.893600">
						<ele>179</ele>
						<time>2025-12-07T17:34:56Z</time>
					</trkpt>
					</trkseg>
				</trk>
			</gpx>